[[{"header":{"parameterUnit":"m.s-1","parameterCategory":1,"la1":31.0,"la2":29.5877,"lo1":-88.7671,"lo2":-86.6584,"dy":0.0162,"dx":0.0185,"nx":115,"ny":88,"refTime":"2023-06-02T06:00:00:Z","depth":0,"parameterNumber":2,"parameterNumberName":"U-component_of_WINDS"},"data":[0.0,0.0,0.0,0.0,0.0,0.0,0.0,0.0,0.0,0.0,0.0,0.0,0.0,0.0,0.0,0.0,0.0,0.0,0.0,0.0,0.0,0.0,0.0,0.0,0.0,0.0,0.0,0.0,0.0,0.0,0.0,0.0,0.0,0.0,0.0,0.0,0.0,0.0,0.0,0.0,0.0,0.0,0.0,0.0,0.0,0.0,0.0,0.0,0.0,0.0,0.0,0.0,0.0,0.0,0.0,0.0,0.0,0.0,0.0,0.0,0.0,0.0,0.0,0.0,0.0,0.0,0.0,0.0,0.0,0.0,0.0,0.0,0.0,0.0,0.0,0.0,0.0,0.0,0.0,0.0,0.0,0.0,0.0,0.0,0.0,0.0,0.0,0.0,0.0,0.0,0.0,0.0,0.0,0.0,0.0,0.0,0.0,0.0,0.0,0.0,0.0,0.0,0.0,0.0,0.0,0.0,0.0,0.0,0.0,0.0,0.0,0.0,0.0,0.0,0.0,0.0,0.0,0.0,0.0,0.0,0.0,0.0,0.0,0.0,0.0,0.0,0.0,0.0,0.0,0.0,0.0,0.0,0.0,0.0,0.0,0.0,0.0,0.0,0.0,0.0,0.0,0.0,0.0,0.0,0.0,0.0,0.0,0.0,0.0,0.0,0.0,0.0,0.0,0.0,0.0,0.0,0.0,0.0,0.0,0.0,0.0,0.0,0.0,0.0,0.0,0.0,0.0,0.0,0.0,0.0,0.0,0.0,0.0,0.0,0.0,0.0,0.0,0.0,0.0,0.0,0.0,0.0,0.0,0.0,0.0,0.0,0.0,0.0,0.0,0.0,0.0,0.0,0.0,0.0,0.0,0.0,0.0,0.0,0.0,0.0,0.0,0.0,0.0,0.0,0.0,0.0,0.0,0.0,0.0,0.0,0.0,0.0,0.0,0.0,0.0,0.0,0.0,0.0,0.0,0.0,0.0,0.0,0.0,0.0,0.0,0.0,0.0,0.0,0.0,0.0,0.0,0.0,0.0,0.0,0.0,0.0,0.0,0.0,0.0,0.0,0.0,0.0,0.0,0.0,0.0,0.0,0.0,0.0,0.0,0.0,0.0,0.0,0.0,0.0,0.0,0.0,0.0,0.0,0.0,0.0,0.0,0.0,0.0,0.0,0.0,0.0,0.0,0.0,0.0,0.0,0.0,0.0,0.0,0.0,0.0,0.0,0.0,0.0,0.0,0.0,0.0,0.0,0.0,0.0,0.0,0.0,0.0,0.0,0.0,0.0,0.0,0.0,0.0,0.0,0.0,0.0,0.0,0.0,0.0,0.0,0.0,0.0,0.0,0.0,0.0,0.0,0.0,0.0,0.0,0.0,0.0,0.0,0.0,0.0,0.0,0.0,0.0,0.0,0.0,0.0,0.0,0.0,0.0,0.0,0.0,0.0,0.0,0.0,0.0,0.0,0.0,0.0,0.0,0.0,0.0,0.0,0.0,0.0,0.0,0.0,0.0,0.0,0.0,0.0,0.0,0.0,0.0,0.0,0.0,0.0,0.0,0.0,0.0,0.0,0.0,0.0,0.0,0.0,0.0,0.0,0.0,0.0,0.0,0.0,0.0,0.0,0.0,0.0,0.0,0.0,0.0,0.0,0.0,0.0,0.0,0.0,0.0,0.0,0.0,0.0,0.0,0.0,0.0,0.0,0.0,0.0,0.0,0.0,0.0,0.0,0.0,0.0,0.0,0.0,0.0,0.0,0.0,0.0,0.0,0.0,0.0,0.0,0.0,0.0,0.0,0.0,0.0,0.0,0.0,0.0,0.0,0.0,0.0,0.0,0.0,0.0,0.0,0.0,0.0,0.0,0.0,0.0,0.0,0.0,0.0,0.0,0.0,0.0,0.0,0.0,0.0,0.0,0.0,0.0,0.0,0.0,0.0,0.0,0.0,0.0,0.0,0.0,0.0,0.0,0.0,0.0,0.0,0.0,0.0,0.0,0.0,0.0,0.0,0.0,0.0,0.0,0.0,0.0,0.0,0.0,0.0,0.0,0.0,0.0,0.0,0.0,0.0,0.0,0.0,0.0,0.0,0.0,0.0,0.0,0.0,0.0,0.0,0.0,0.0,0.0,0.0,0.0,0.0,0.0,0.0,0.0,0.0,0.0,0.0,0.0,0.0,0.0,0.0,0.0,0.0,0.0,0.0,0.0,0.0,0.0,0.0,0.0,0.0,0.0,0.0,0.0,0.0,0.0,0.0,0.0,0.0,0.0,0.0,0.0,0.0,0.0,0.0,0.0,0.0,0.0,0.0,0.0,0.0,0.0,0.0,0.0,0.0,0.0,0.0,0.0,0.0,0.0,0.0,0.0,0.0,0.0,0.0,0.0,0.0,0.0,0.0,0.0,0.0,0.0,0.0,0.0,0.0,0.0,0.0,0.0,0.0,0.0,0.0,0.0,0.0,0.0,0.0,0.0,0.0,0.0,0.0,0.0,0.0,0.0,0.0,0.0,0.0,0.0,0.0,0.0,0.0,0.0,0.0,0.0,0.0,0.0,0.0,0.0,0.0,0.0,0.0,0.0,0.0,0.0,0.0,0.0,0.0,0.0,0.0,0.0,0.0,0.0,0.0,0.0,0.0,0.0,0.0,0.0,0.0,0.0,0.0,0.0,0.0,0.0,0.0,0.0,0.0,0.0,0.0,0.0,0.0,0.0,0.0,0.0,0.0,0.0,0.0,0.0,0.0,0.0,0.0,0.0,0.0,0.0,0.0,0.0,0.0,0.0,0.0,0.0,0.0,0.0,0.0,0.0,0.0,0.0,0.0,0.0,0.0,0.0,0.0,0.0,0.0,0.0,0.0,0.0,0.0,0.0,0.0,0.0,0.0,0.0,0.0,0.0,0.0,0.0,0.0,0.0,0.0,0.0,0.0,0.0,0.0,0.0,0.0,0.0,0.0,0.0,0.0,0.0,0.0,0.0,0.0,0.0,0.0,0.0,0.0,0.0,0.0,0.0,0.0,0.0,0.0,0.0,0.0,0.0,0.0,0.0,0.0,0.0,0.0,0.0,0.0,0.0,0.0,0.0,0.0,0.0,0.0,0.0,0.0,0.0,0.0,0.0,0.0,0.0,0.0,0.0,0.0,0.0,0.0,0.0,0.0,0.0,0.0,0.0,0.0,0.0,0.0,0.0,0.0,0.0,0.0,0.0,0.0,0.0,0.0,0.0,0.0,0.0,0.0,0.0,0.0,0.0,0.0,0.0,0.0,0.0,0.0,0.0,0.0,0.0,0.0,0.0,0.0,0.0,0.0,0.0,0.0,0.0,0.0,0.0,0.0,0.0,0.0,0.0,0.0,0.0,0.0,0.0,0.0,0.0,0.0,0.0,0.0,0.0,0.0,0.0,0.0,0.0,0.0,0.0,0.0,0.0,0.0,0.0,0.0,0.0,0.0,0.0,0.0,0.0,0.0,0.0,0.0,0.0,0.0,0.0,0.0,0.0,0.0,0.0,0.0,0.0,0.0,0.0,0.0,0.0,0.0,0.0,0.0,0.0,0.0,0.0,0.0,0.0,0.0,0.0,0.0,0.0,0.0,0.0,0.0,0.0,0.0,0.0,0.0,0.0,0.0,0.0,0.0,0.0,0.0,0.0,0.0,0.0,0.0,0.0,0.0,0.0,0.0,0.0,0.0,0.0,0.0,0.0,0.0,0.0,0.0,0.0,0.0,0.0,0.0,0.0,0.0,0.0,0.0,0.0,0.0,0.0,0.0,0.0,0.0,0.0,0.0,0.0,0.0,0.0,0.0,0.0,0.0,0.0,0.0,0.0,0.0,0.0,0.0,0.0,0.0,0.0,0.0,0.0,0.0,0.0,0.0,0.0,0.0,0.0,0.0,0.0,0.0,0.0,0.0,0.0,0.0,0.0,0.0,0.0,0.0,0.0,0.0,0.0,0.0,0.0,0.0,0.0,0.0,0.0,0.0,0.0,0.0,0.0,0.0,0.0,0.0,0.0,0.0,0.0,0.0,0.0,0.0,0.0,0.0,0.0,0.0,0.0,0.0,0.0,0.0,0.0,0.0,0.0,0.0,0.0,0.0,0.0,0.0,0.0,0.0,0.0,0.0,0.0,0.0,0.0,0.0,0.0,0.0,0.0,0.0,0.0,0.0,0.0,0.0,0.0,0.0,0.0,0.0,0.0,0.0,0.0,0.0,0.0,0.0,0.0,0.0,0.0,0.0,0.0,0.0,0.0,0.0,0.0,0.0,0.0,0.0,0.0,-0.4769,0.0,0.0,0.0,0.0,0.0,0.0,0.0,0.0,0.0,0.0,0.0,0.0,0.0,0.0,0.0,0.0,0.0,0.0,0.0,0.0,0.0,0.0,0.0,0.0,0.0,0.0,0.0,0.0,0.0,0.0,0.0,0.0,0.0,0.0,0.0,0.0,0.0,0.0,0.0,0.0,0.0,0.0,0.0,0.0,0.0,0.0,0.0,0.0,0.0,0.0,0.0,0.0,0.0,0.0,0.0,0.0,0.0,0.0,0.0,0.0,0.0,0.0,0.0,0.0,0.0,0.0,0.0,0.0,0.0,0.0,0.0,0.0,0.0,0.0,0.0,0.0,0.0,0.0,0.0,0.0,0.0,0.0,0.0,0.0,0.0,0.0,0.0,0.0,0.0,0.0,0.0,0.0,0.0,0.0,0.0,0.0,0.0,0.0,0.0,0.0,0.0,0.0,0.0,0.0,0.0,0.0,0.0,0.0,0.0,0.0,-0.567,-0.5419,-0.4993,-0.4726,-0.4565,0.0,0.0,0.0,0.0,0.0,0.0,0.0,0.0,0.0,0.0,0.0,0.0,0.0,0.0,0.0,0.0,0.0,0.0,0.0,0.0,0.0,0.0,0.0,0.0,0.0,0.0,0.0,0.0,0.0,0.0,0.0,0.0,0.0,0.0,0.0,0.0,0.0,0.0,0.0,0.0,0.0,0.0,0.0,0.0,0.0,0.0,0.0,0.0,0.0,0.0,0.0,0.0,0.0,0.0,0.0,0.0,0.0,0.0,0.0,0.0,0.0,0.0,0.0,0.0,0.0,0.0,0.0,0.0,0.0,0.0,0.0,0.0,0.0,0.0,0.0,0.0,0.0,0.0,0.0,0.0,0.0,0.0,0.0,0.0,0.0,0.0,0.0,0.0,0.0,0.0,0.0,0.0,0.0,0.0,0.0,0.0,0.0,0.0,0.0,0.0,0.0,0.0,0.0,0.0,0.0,0.0,0.0,0.0,0.0,0.0,0.0,0.0,-0.4853,-0.4497,-0.4276,0.0,0.0,0.0,0.0,0.0,0.0,0.0,0.0,0.0,0.0,0.0,0.0,0.0,0.0,0.0,0.0,0.0,0.0,0.0,0.0,0.0,0.0,0.0,0.0,0.0,0.0,0.0,0.0,0.0,0.0,0.0,0.0,0.0,0.0,0.0,0.0,0.0,0.0,0.0,0.0,0.0,0.0,0.0,0.0,0.0,0.0,0.0,0.0,0.0,0.0,0.0,0.0,0.0,0.0,0.0,0.0,0.0,0.0,0.0,0.0,0.0,0.0,0.0,0.0,0.0,0.0,0.0,0.0,0.0,0.0,0.0,0.0,0.0,0.0,0.0,0.0,0.0,0.0,0.0,0.0,0.0,0.0,0.0,0.0,0.0,0.0,0.0,0.0,0.0,0.0,0.0,0.0,0.0,0.0,0.0,0.0,0.0,0.0,0.0,0.0,0.0,0.0,0.0,0.0,0.0,0.0,0.0,0.0,0.0,0.0,-0.5244,-0.5024,-0.4536,0.0,-0.3613,0.0,0.0,0.0,0.0,0.0,0.0,0.0,0.0,0.0,0.0,0.0,0.0,0.0,0.0,0.0,0.0,0.0,0.0,0.0,0.0,0.0,0.0,0.0,0.0,0.0,0.0,0.0,0.0,0.0,0.0,0.0,0.0,0.0,0.0,0.0,0.0,0.0,0.0,0.0,0.0,0.0,0.0,0.0,0.0,0.0,0.0,0.0,0.0,0.0,0.0,0.0,0.0,0.0,0.0,0.0,0.0,0.0,0.0,0.0,0.0,0.0,0.0,0.0,0.0,0.0,0.0,0.0,0.0,0.0,0.0,0.0,0.0,0.0,0.0,0.0,0.0,0.0,0.0,0.0,0.0,0.0,0.0,0.0,0.0,0.0,0.0,0.0,0.0,0.0,0.0,0.0,0.0,0.0,0.0,0.0,0.0,0.0,0.0,0.0,0.0,0.0,0.0,0.0,0.0,0.0,0.0,0.0,0.0,0.0,0.0,-0.4799,-0.4585,-0.4086,-0.3643,0.0,0.0,0.0,0.0,0.0,0.0,0.0,0.0,0.0,0.0,0.0,0.0,0.0,0.0,0.0,0.0,0.0,0.0,0.0,0.0,0.0,0.0,0.0,0.0,0.0,0.0,0.0,0.0,0.0,0.0,0.0,0.0,0.0,0.0,0.0,0.0,0.0,0.0,0.0,0.0,0.0,0.0,0.0,0.0,0.0,0.0,0.0,0.0,0.0,0.0,0.0,0.0,0.0,0.0,0.0,0.0,0.0,0.0,0.0,0.0,0.0,0.0,0.0,0.0,0.0,0.0,0.0,0.0,0.0,0.0,0.0,0.0,0.0,0.0,0.0,0.0,0.0,0.0,0.0,0.0,0.0,0.0,0.0,0.0,0.0,0.0,0.0,0.0,0.0,0.0,0.0,0.0,0.0,0.0,0.0,0.0,0.0,0.0,0.0,0.0,0.0,0.0,0.0,0.0,0.0,0.0,0.0,0.0,0.0,0.0,-0.4372,-0.4269,-0.3948,-0.3633,-0.3272,-0.288,0.0,0.0,0.0,0.0,0.0,0.0,0.0,0.0,0.0,0.0,0.0,0.0,0.0,0.0,0.0,0.0,0.0,0.0,0.0,0.0,0.0,0.0,0.0,0.0,0.0,0.0,0.0,0.0,0.0,0.0,0.0,0.0,0.0,0.0,0.0,0.0,0.0,0.0,0.0,0.0,0.0,0.0,0.0,0.0,0.0,0.0,0.0,0.0,0.0,0.0,0.0,0.0,0.0,0.0,0.0,0.0,0.0,0.0,0.0,0.0,0.0,0.0,0.0,0.0,0.0,0.0,0.0,0.0,0.0,0.0,0.0,0.0,0.0,0.0,0.0,0.0,0.0,0.0,0.0,0.0,0.0,0.0,0.0,0.0,0.0,0.0,0.0,0.0,0.0,0.0,0.0,0.0,0.0,0.0,0.0,0.0,0.0,0.0,0.0,0.0,0.0,0.0,0.0,0.0,0.0,0.0,0.0,0.0,0.0,-0.3842,-0.3689,-0.32,-0.3127,-0.302,0.0,0.0,0.0,0.0,0.0,0.0,0.0,0.0,0.0,0.0,0.0,0.0,0.0,0.0,0.0,0.0,0.0,0.0,0.0,0.0,0.0,0.0,0.0,0.0,0.0,0.0,0.0,0.0,0.0,0.0,0.0,0.0,0.0,0.0,0.0,0.0,0.0,0.0,0.0,0.0,0.0,0.0,0.0,0.0,0.0,0.0,0.0,0.0,0.0,0.0,0.0,0.0,0.0,0.0,0.0,0.0,0.0,0.0,0.0,0.0,0.0,0.0,0.0,0.0,0.0,0.0,0.0,0.0,0.0,0.0,0.0,0.0,0.0,0.0,0.0,0.0,0.0,0.0,0.0,0.0,0.0,0.0,0.0,0.0,0.0,0.0,0.0,0.0,0.0,0.0,0.0,0.0,0.0,0.0,0.0,0.0,0.0,0.0,0.0,0.0,0.0,0.0,0.0,0.0,0.0,0.0,0.0,0.0,0.0,-0.3427,-0.336,-0.3125,-0.2789,-0.2774,-0.2724,0.0,0.0,0.0,0.0,0.0,0.0,0.0,0.0,0.0,0.0,0.0,0.0,0.0,0.0,0.0,0.0,0.0,0.0,0.0,0.0,0.0,0.0,0.0,0.0,0.0,0.0,0.0,0.0,0.0,0.0,0.0,0.0,0.0,0.0,0.0,0.0,0.0,0.0,0.0,0.0,0.0,0.0,0.0,0.0,0.0,0.0,0.0,0.0,0.0,0.0,0.0,0.0,0.0,0.0,0.0,0.0,0.0,0.0,0.0,0.0,0.0,0.0,0.0,0.0,0.0,0.0,0.0,0.0,0.0,0.0,0.0,0.0,0.0,0.0,0.0,0.0,0.0,0.0,0.0,0.0,0.0,0.0,0.0,0.0,0.0,0.0,0.0,0.0,0.0,0.0,0.0,0.0,0.0,0.0,0.0,0.0,0.0,0.0,0.0,0.0,0.0,0.0,0.0,0.0,0.0,0.0,0.0,0.0,0.0,-0.3028,0.0,-0.2658,0.0,-0.2428,-0.2391,0.0,0.0,0.0,0.0,0.0,0.0,0.0,0.0,0.0,0.0,0.0,0.0,0.0,0.0,0.0,0.0,0.0,0.0,0.0,0.0,0.0,0.0,0.0,0.0,0.0,0.0,0.0,0.0,0.0,0.0,0.0,0.0,0.0,0.0,0.0,0.0,0.0,0.0,0.0,0.0,0.0,0.0,0.0,0.0,0.0,0.0,0.0,0.0,0.0,0.0,0.0,0.0,0.0,0.0,0.0,0.0,0.0,0.0,0.0,0.0,0.0,0.0,0.0,0.0,0.0,0.0,0.0,0.0,0.0,0.0,0.0,0.0,0.0,0.0,0.0,0.0,0.0,0.0,0.0,0.0,0.0,0.0,0.0,0.0,0.0,0.0,0.0,0.0,0.0,0.0,0.0,0.0,0.0,0.0,0.0,0.0,0.0,0.0,0.0,0.0,0.0,0.0,0.0,0.0,0.0,0.0,0.0,0.0,-0.2576,-0.2491,-0.2367,-0.2234,-0.2007,-0.2001,-0.2021,0.0,0.0,0.0,0.0,0.0,0.0,0.0,0.0,0.0,0.0,0.0,0.0,0.0,0.0,0.0,0.0,0.0,0.0,0.0,0.0,0.0,0.0,0.0,0.0,0.0,0.0,0.0,0.0,0.0,0.0,0.0,0.0,0.0,0.0,0.0,0.0,0.0,0.0,0.0,0.0,0.0,0.0,0.0,0.0,0.0,0.0,0.0,0.0,0.0,0.0,0.0,0.0,0.0,0.0,0.0,0.0,0.0,0.0,0.0,0.0,0.0,0.0,0.0,0.0,0.0,0.0,0.0,0.0,0.0,0.0,0.0,0.0,0.0,0.0,0.0,0.0,0.0,0.0,0.0,0.0,0.0,0.0,0.0,0.0,0.0,0.0,0.0,0.0,0.0,0.0,0.0,0.0,0.0,0.0,0.0,0.0,0.0,0.0,0.0,0.0,0.0,0.0,0.0,0.0,0.0,0.0,0.0,0.0,0.0,-0.2142,-0.2119,-0.1979,-0.1813,-0.1804,-0.1797,0.0,0.0,0.0,0.0,0.0,0.0,0.0,0.0,0.0,0.0,0.0,0.0,0.0,0.0,0.0,0.0,0.0,0.0,0.0,0.0,0.0,0.0,0.0,0.0,0.0,0.0,0.0,0.0,0.0,0.0,0.0,0.0,0.0,0.0,0.0,0.0,0.0,0.0,0.0,0.0,0.0,0.0,0.0,0.0,0.0,0.0,0.0,0.0,0.0,0.0,0.0,0.0,0.0,0.0,0.0,0.0,0.0,0.0,0.0,0.0,0.0,0.0,0.0,0.0,0.0,0.0,0.0,0.0,0.0,0.0,0.0,0.0,0.0,0.0,0.0,0.0,0.0,0.0,0.0,0.0,0.0,0.0,0.0,0.0,0.0,0.0,0.0,0.0,0.0,0.0,0.0,0.0,0.0,0.0,0.0,0.0,0.0,0.0,0.0,0.0,0.0,0.0,0.0,0.0,0.0,0.0,0.0,0.0,0.0,-0.1767,-0.1769,-0.1648,-0.1453,-0.1504,-0.1548,-0.1627,0.0,0.0,0.0,0.0,0.0,0.0,0.0,0.0,0.0,0.0,0.0,0.0,0.0,0.0,0.0,0.0,0.0,0.0,0.0,0.0,0.0,0.0,0.0,0.0,0.0,0.0,0.0,0.0,0.0,0.0,0.0,0.0,0.0,0.0,0.0,0.0,0.0,0.0,0.0,0.0,0.0,0.0,0.0,0.0,0.0,0.0,0.0,0.0,0.0,0.0,0.0,0.0,0.0,0.0,0.0,0.0,0.0,0.0,0.0,0.0,0.0,0.0,0.0,0.0,0.0,0.0,0.0,0.0,0.0,0.0,0.0,0.0,0.0,0.0,0.0,0.0,0.0,0.0,0.0,0.0,0.0,0.0,0.0,0.0,0.0,0.0,0.0,0.0,0.0,0.0,0.0,0.0,0.0,0.0,0.0,0.0,0.0,0.0,0.0,0.0,0.0,0.0,0.0,0.0,0.0,0.0,0.0,0.0,-0.1389,-0.1299,-0.1186,-0.1096,-0.1168,-0.1266,0.0,0.0,0.0,0.0,0.0,0.0,0.0,0.0,0.0,0.0,0.0,0.0,0.0,0.0,0.0,0.0,0.0,0.0,0.0,0.0,0.0,0.0,0.0,0.0,0.0,0.0,0.0,0.0,0.0,0.0,0.0,0.0,0.0,0.0,0.0,0.0,0.0,0.0,0.0,0.0,0.0,0.0,0.0,0.0,0.0,0.0,0.0,0.0,0.0,0.0,0.0,0.0,0.0,0.0,0.0,0.0,0.0,0.0,0.0,0.0,0.0,0.0,0.0,0.0,0.0,0.0,0.0,0.0,0.0,0.0,0.0,0.0,0.0,0.0,0.0,0.0,0.0,0.0,0.0,0.0,0.0,0.0,0.0,0.0,0.0,0.0,0.0,0.0,0.0,0.0,0.0,0.0,0.0,0.0,0.0,0.0,0.0,0.0,0.0,0.0,0.0,0.0,0.0,0.0,0.0,0.0,0.0,0.0,0.0,-0.1123,-0.0808,-0.0748,-0.1012,-0.1008,-0.1037,0.0,0.0,0.0,0.0,0.0,0.0,0.0,0.0,0.0,0.0,0.0,0.0,0.0,0.0,0.0,0.0,0.0,0.0,0.0,0.0,0.0,0.0,0.0,0.0,0.0,0.0,0.0,0.0,0.0,0.0,0.0,0.0,0.0,0.0,0.0,0.0,0.0,0.0,0.0,0.0,0.0,0.0,0.0,0.0,0.0,0.0,0.0,0.0,0.0,0.0,0.0,0.0,0.0,0.0,0.0,0.0,0.0,0.0,0.0,0.0,0.0,0.0,0.0,0.0,0.0,0.0,0.0,0.0,0.0,0.0,0.0,0.0,0.0,0.0,0.0,0.0,0.0,0.0,0.0,0.0,0.0,0.0,0.0,0.0,0.0,0.0,0.0,0.0,0.0,0.0,0.0,0.0,0.0,0.0,0.0,0.0,0.0,0.0,0.0,0.0,0.0,0.0,0.0,0.0,0.0,0.0,0.0,0.0,-0.1013,-0.0877,-0.0646,-0.0593,-0.0757,-0.0781,-0.0892,0.0,0.0,0.0,0.0,0.0,0.0,0.0,0.0,0.0,0.0,0.0,0.0,0.0,0.0,0.0,0.0,0.0,0.0,0.0,0.0,0.0,0.0,0.0,0.0,0.0,0.0,0.0,0.0,0.0,0.0,0.0,0.0,0.0,0.0,0.0,0.0,0.0,0.0,0.0,0.0,0.0,0.0,0.0,0.0,0.0,0.0,0.0,0.0,0.0,0.0,0.0,0.0,0.0,0.0,0.0,0.0,0.0,0.0,0.0,0.0,0.0,0.0,0.0,0.0,0.0,0.0,0.0,0.0,0.0,0.0,0.0,0.0,0.0,0.0,0.0,0.0,0.0,0.0,0.0,0.0,0.0,0.0,0.0,0.0,0.0,0.0,0.0,0.0,0.0,0.0,0.0,0.0,0.0,0.0,0.0,0.0,0.0,0.0,0.0,0.0,0.0,0.0,0.0,0.0,0.0,0.0,0.0,0.0,-0.0906,-0.0717,-0.072,-0.0624,-0.0429,-0.0595,-0.079,0.0,0.0,0.0,0.0,0.0,0.0,0.0,0.0,0.0,0.0,0.0,0.0,0.0,0.0,0.0,0.0,0.0,0.0,0.0,0.0,0.0,0.0,0.0,0.0,0.0,0.0,0.0,0.0,0.0,0.0,0.0,0.0,0.0,0.0,0.0,0.0,0.0,0.0,0.0,0.0,0.0,0.0,0.0,0.0,0.0,0.0,0.0,0.0,0.0,0.0,0.0,0.0,0.0,0.0,0.0,0.0,0.0,0.0,0.0,0.0,0.0,0.0,0.0,0.0,0.0,0.0,0.0,0.0,0.0,0.0,0.0,0.0,0.0,0.0,0.0,0.0,0.0,0.0,0.0,0.0,0.0,0.0,0.0,0.0,0.0,0.0,0.0,0.0,0.0,0.0,0.0,0.0,0.0,0.0,0.0,0.0,0.0,0.0,0.0,0.0,0.0,0.0,0.0,0.0,0.0,0.0,0.0,0.0,-0.0764,-0.0717,-0.069,-0.0592,-0.0382,-0.0568,-0.0776,0.0,0.0,0.0,0.0,0.0,0.0,0.0,0.0,0.0,0.0,0.0,0.0,0.0,0.0,0.0,0.0,0.0,0.0,0.0,0.0,0.0,0.0,0.0,0.0,0.0,0.0,0.0,0.0,0.0,0.0,0.0,0.0,0.0,0.0,0.0,0.0,0.0,0.0,0.0,0.0,0.0,0.0,0.0,0.0,0.0,0.0,0.0,0.0,0.467,0.0,0.0,0.0,0.0,0.0,0.0,0.0,0.0,0.0,0.0,0.0,0.0,0.0,0.0,0.0,0.0,0.0,0.0,0.0,0.0,0.0,0.0,0.0,0.0,0.0,0.0,0.0,0.0,0.0,0.0,0.0,0.0,0.0,0.0,0.0,0.0,0.0,0.0,0.0,0.0,0.0,0.0,0.0,0.0,0.0,0.0,0.0,0.0,0.0,0.0,0.0,0.0,0.0,0.0,0.0,0.0,0.0,0.0,0.0,-0.0593,-0.0352,-0.0359,-0.0357,-0.0392,-0.0739,-0.0903,0.0,0.0,0.0,0.0,0.0,0.0,0.0,0.0,0.0,0.0,0.0,0.0,0.0,0.0,0.0,0.0,0.0,0.0,0.0,0.0,0.0,0.0,0.0,0.0,0.0,0.0,0.0,0.0,0.0,0.0,0.0,0.0,0.0,0.0,0.0,0.0,0.0,0.0,0.0,0.0,0.0,0.0,0.0,0.0,0.0,0.0,0.0,0.0,0.0,0.0,0.0,0.0,0.0,0.0,0.0,0.0,0.0,0.0,0.0,0.0,0.0,0.0,0.0,0.0,0.0,0.0,0.0,0.0,0.0,0.0,0.0,0.0,0.0,0.0,0.0,0.0,0.0,0.0,0.0,0.0,0.0,0.0,0.0,0.0,0.0,0.0,0.0,0.0,0.0,0.0,0.0,0.0,0.0,0.0,0.0,0.0,0.0,0.0,0.0,0.0,0.0,0.0,0.0,0.0,0.0,0.0,0.0,-0.0545,-0.0411,-0.0,-0.0,-0.0158,-0.0407,-0.0834,-0.1047,-0.0969,0.0,0.0,0.0,0.0,0.0,0.0,0.0,0.0,0.0,0.0,0.0,0.0,0.0,0.0,0.0,0.0,0.0,0.0,0.0,0.0,0.0,0.0,0.0,0.0,0.0,0.0,0.0,0.0,0.0,0.0,0.0,0.0,0.0,0.0,0.0,0.0,0.0,0.0,0.3634,0.4254,0.0,0.0,0.0,0.0,0.0,0.0,0.0,0.0,0.5455,0.0,0.0,0.0,0.0,0.0,0.0,0.0,0.0,0.0,0.0,0.0,0.0,0.0,0.0,0.0,0.0,0.0,0.0,0.0,0.0,0.0,0.0,0.0,0.0,0.0,0.0,0.0,0.0,0.0,0.0,0.0,0.0,0.0,0.0,0.0,0.0,0.0,0.0,0.0,0.0,0.0,0.0,0.0,0.0,0.0,0.0,0.0,0.0,0.0,0.0,0.0,0.0,0.0,0.0,0.0,0.0,-0.0382,-0.0198,-0.0103,-0.0,-0.0,-0.0164,-0.0423,-0.0866,-0.1105,-0.1144,0.0,0.0,0.0,0.0,0.0,0.0,0.0,0.0,0.0,0.0,0.0,0.0,0.0,0.0,0.0,0.0,0.0,0.0,0.0,0.0,0.0,0.0,0.0,0.0,0.0,0.0,0.0,0.0,0.0,0.0,0.0,0.0,0.0,0.0,0.0,0.0,0.0,0.0,0.0,0.4776,0.5038,0.0,0.0,0.0,0.0,0.0,0.0,0.0,0.0,0.5879,0.0,0.0,0.0,0.0,0.0,0.0,0.0,0.0,0.0,0.0,0.0,0.0,0.0,0.0,0.0,0.0,0.0,0.0,0.0,0.0,0.0,0.0,0.0,0.0,0.0,0.0,0.0,0.0,0.0,0.0,0.0,0.0,0.0,0.0,0.0,0.0,0.0,0.0,0.0,0.0,0.0,0.0,0.0,0.0,0.0,0.0,0.0,0.0,0.0,0.0,0.0,0.0,0.0,0.0,0.0,-0.0392,-0.015,-0.0,-0.0,-0.0278,-0.0441,-0.0426,-0.0925,-0.1228,0.0,0.0,0.0,0.0,0.0,0.0,0.0,0.0,0.0,0.0,0.0,0.0,0.0,0.0,0.0,0.0,0.0,0.0,0.0,0.0,0.0,0.0,0.0,0.0,0.0,0.0,0.0,0.0,0.0,0.0,0.0,0.0,0.0,0.0,0.0,0.0,0.0,0.0,0.0,0.0,0.502,0.5247,0.5333,0.0,0.0,0.0,0.0,0.0,0.0,0.6102,0.6233,0.0,0.0,0.0,0.0,0.0,0.0,0.0,0.0,0.0,0.0,0.0,0.0,0.0,0.0,0.0,0.0,0.0,0.0,0.0,0.0,0.0,0.0,0.0,0.0,0.0,0.0,0.0,0.0,0.0,0.0,0.0,0.0,0.0,0.0,0.0,0.0,0.0,0.0,0.0,0.0,0.0,0.0,0.0,0.0,0.0,0.0,0.0,0.0,0.0,0.0,0.0,0.0,0.0,0.0,0.0,-0.0402,-0.0152,-0.0,-0.0,-0.0617,-0.0775,-0.0538,-0.1033,-0.1343,0.0,0.0,0.0,0.0,0.0,0.0,0.0,0.0,0.0,0.0,0.0,0.0,0.0,0.0,0.0,0.0,0.0,0.0,0.0,0.0,0.0,0.0,0.0,0.0,0.0,0.0,0.0,0.0,0.0,0.0,0.0,0.0,0.0,0.0,0.0,0.0,0.0,0.0,0.0,0.0,0.0,0.5568,0.5808,0.5976,0.0,0.0,0.0,0.0,0.6571,0.6572,0.0,0.0,0.0,0.0,0.0,0.0,0.0,0.0,0.0,0.0,0.0,0.0,0.0,0.0,0.0,0.0,0.0,0.0,0.0,0.0,0.0,0.0,0.0,0.0,0.0,0.0,0.0,0.0,0.0,0.0,0.0,0.0,0.0,0.0,0.0,0.0,0.0,0.0,0.0,0.0,0.0,0.0,0.0,0.0,0.0,0.0,0.0,0.0,0.0,0.0,0.0,0.0,0.0,0.0,0.0,0.0,-0.0502,-0.0151,-0.0,-0.0,-0.0561,-0.0896,-0.0836,-0.1151,-0.1359,0.0,0.0,0.0,0.0,0.0,0.0,0.0,0.0,0.0,0.0,0.0,0.0,0.0,0.0,0.0,0.0,0.0,0.0,0.0,0.0,0.0,0.0,0.0,0.0,0.0,0.0,0.0,0.0,0.0,0.0,0.0,0.0,0.0,0.0,0.0,0.0,0.0,0.0,0.0,0.0,0.0,0.6073,0.6056,0.6633,0.6984,0.0,0.0,0.0,0.7242,0.7141,0.0,0.0,0.0,0.0,0.0,0.0,0.0,0.0,0.0,0.0,0.0,0.0,0.0,0.0,0.0,0.0,0.0,0.0,0.0,0.0,0.0,0.0,0.0,0.0,0.0,0.0,0.0,0.0,0.0,0.0,0.0,0.0,0.0,0.0,0.0,0.0,0.0,0.0,0.0,0.0,0.0,0.0,0.0,0.0,0.0,0.0,0.0,0.0,0.0,0.0,0.0,0.0,0.0,0.0,0.0,-0.0981,-0.0653,-0.0554,-0.0418,-0.0224,-0.0673,-0.0897,-0.0897,-0.1101,-0.1312,0.0,0.0,0.0,0.0,0.0,0.0,0.0,0.0,0.0,0.0,0.0,0.0,0.0,0.0,0.0,0.0,0.0,0.0,0.0,0.0,0.0,0.0,0.0,0.0,0.0,0.0,0.0,0.0,0.0,0.0,0.0,0.0,0.0,0.0,0.0,0.0,0.0,0.0,0.0,0.0,0.0,0.0,0.6456,0.6895,0.0,0.0,0.0,0.744,0.7576,0.0,0.0,0.0,0.0,0.0,0.0,0.0,0.0,0.0,0.0,0.0,0.0,0.0,0.0,0.0,0.0,0.0,0.0,0.0,0.0,0.0,0.0,0.0,0.0,0.0,0.0,0.0,0.0,0.0,0.0,0.0,0.0,0.0,0.0,0.0,0.0,0.0,0.0,0.0,0.0,0.0,0.0,0.0,0.0,0.0,0.0,0.0,0.0,0.0,0.0,0.0,0.0,0.0,0.0,0.0,0.0,0.0,-0.1007,-0.0958,-0.0784,-0.0559,-0.0841,-0.0953,-0.0896,-0.1111,0.0,0.0,0.0,0.0,0.0,0.0,0.0,0.0,0.0,0.0,0.0,0.0,0.0,0.0,0.0,0.0,0.0,0.0,0.0,0.0,0.0,0.0,0.0,0.0,0.0,0.0,0.0,0.3026,0.0,0.0,0.0,0.0,0.0,0.0,0.0,0.0,0.0,0.0,0.0,0.0,0.0,0.0,0.6463,0.6944,0.7279,0.7598,0.0,0.0,0.7895,0.7934,0.7928,0.7885,0.0,0.0,0.0,0.0,0.0,0.0,0.0,0.0,0.0,0.0,0.0,0.0,0.0,0.0,0.0,0.0,0.0,0.0,0.0,0.0,0.0,0.0,0.0,0.0,0.0,0.0,0.0,0.0,0.0,0.0,0.0,0.0,0.0,0.0,0.0,0.0,0.0,0.0,0.0,0.0,0.0,0.0,0.0,0.0,0.0,0.0,0.0,0.0,0.0,0.0,0.0,0.0,0.0,0.0,0.0,-0.1559,-0.1261,-0.0993,-0.0895,-0.1066,-0.1122,-0.0897,-0.1137,-0.1358,0.0,0.0,0.0,0.0,0.0,0.0,0.0,0.0,0.0,0.0,0.0,0.0,0.0,0.0,0.0,0.0,0.0,0.0,0.0,0.0,0.0,0.0,0.0,0.0,0.0,0.0,0.0,0.0,0.0,0.0,0.0,0.0,0.0,0.0,0.0,0.0,0.0,0.0,0.0,0.0,0.0,0.697,0.746,0.7978,0.8367,0.0,0.0,0.858,0.8692,0.8517,0.8343,0.8343,0.0,0.0,0.0,0.0,0.0,0.0,0.0,0.0,0.0,0.0,0.0,0.0,0.0,0.0,0.0,0.0,0.0,0.0,0.0,0.0,0.0,0.0,0.0,0.0,0.0,0.0,0.0,0.0,0.0,0.0,0.0,0.0,0.0,0.0,0.0,0.0,0.0,0.0,0.0,0.0,0.0,0.0,0.0,0.0,0.0,0.0,0.0,0.0,0.0,0.0,0.0,0.0,0.0,-0.1961,-0.1861,-0.1563,-0.136,-0.1342,-0.1291,-0.1234,-0.1122,-0.1303,-0.1468,0.0,0.0,0.0,0.0,0.0,0.0,0.0,0.0,0.0,0.0,0.0,0.0,0.0,0.0,0.0,0.0,0.0,0.0,0.0,0.0,0.0,0.0,0.0,0.0,0.0,0.0,0.0,0.0,0.3669,0.366,0.366,0.0,0.0,0.0,0.0,0.0,0.0,0.0,0.0,0.0,0.0,0.743,0.7791,0.8242,0.0,0.0,0.8745,0.8748,0.8808,0.8763,0.8737,0.8789,0.8745,0.0,0.0,0.0,0.0,0.0,0.0,0.0,0.0,0.0,0.0,0.0,0.0,0.0,0.0,0.0,0.0,0.0,0.0,0.0,0.0,0.0,0.0,0.0,0.0,0.0,0.0,0.0,0.0,0.0,0.0,0.0,0.0,0.0,0.0,0.0,0.0,0.0,0.0,0.0,0.0,0.0,0.0,0.0,0.0,0.0,0.0,0.0,0.0,0.0,0.0,0.0,0.0,-0.2359,-0.2162,-0.1988,-0.185,-0.1792,-0.1572,-0.1403,-0.1402,-0.1536,-0.1652,0.0,0.0,0.0,0.0,0.0,0.0,0.0,0.0,0.0,0.0,0.0,0.0,0.0,0.0,0.0,0.0,0.0,0.0,0.0,0.0,0.0,0.0,0.0,0.0,0.0,0.0,0.0,0.0,0.379,0.3788,0.3744,0.0,0.0,0.0,0.0,0.0,0.0,0.0,0.0,0.0,0.0,0.7778,0.812,0.8453,0.8689,0.8808,0.8808,0.8811,0.8857,0.8962,0.9001,0.9061,0.0,0.0,0.0,0.0,0.0,0.0,0.0,0.0,0.0,0.0,0.0,0.0,0.0,0.0,0.0,0.0,0.0,0.0,0.0,0.0,0.0,0.0,0.0,0.0,0.0,0.0,0.0,0.0,0.0,0.0,-0.4676,0.0,0.0,0.0,0.0,0.0,0.0,0.0,0.0,0.0,0.0,0.0,0.0,0.0,0.0,0.0,0.0,0.0,0.0,0.0,0.0,0.0,0.0,0.0,-0.2619,-0.2557,-0.2432,-0.2181,-0.1908,-0.174,-0.1628,-0.1739,-0.1821,-0.1918,0.0,0.0,0.0,0.0,0.0,0.0,0.0,0.0,0.0,0.0,0.0,0.0,0.0,0.0,0.0,0.0,0.0,0.0,0.0,0.0,0.0,0.0,0.0,0.0,0.0,0.0,0.3907,0.3882,0.3882,0.0,0.0,0.0,0.0,0.0,0.0,0.0,0.0,0.0,0.0,0.7639,0.7987,0.8521,0.8685,0.8808,0.8808,0.8808,0.8857,0.8956,0.9019,0.9061,0.0,0.0,0.0,0.0,0.0,0.0,0.0,0.0,0.0,0.0,0.0,0.0,0.0,0.0,0.0,0.0,0.0,0.0,0.0,0.0,0.0,0.0,0.0,0.0,0.0,0.0,0.0,-0.555,-0.5444,0.0,0.0,0.0,0.0,0.0,0.0,0.0,0.0,0.0,0.0,0.0,-0.4813,-0.473,0.0,0.0,0.0,0.0,0.0,0.0,0.0,0.0,0.0,0.0,0.0,0.0,-0.3147,-0.3018,-0.2922,-0.2809,-0.2681,-0.2409,-0.2243,-0.2187,-0.213,-0.2152,-0.2345,0.0,0.0,0.0,0.0,0.0,0.0,0.0,0.0,0.0,0.0,0.0,0.0,0.0,0.0,0.0,0.0,0.0,0.0,0.0,0.0,0.0,0.0,0.0,0.0,0.0,0.4291,0.0,0.0,0.0,0.0,0.0,0.0,0.0,0.0,0.0,0.0,0.0,0.6903,0.7473,0.7902,0.8309,0.8557,0.8692,0.8808,0.0,0.0,0.0,0.0,0.0,0.0,0.0,0.0,0.0,0.0,0.0,0.0,0.0,0.0,1.1697,1.1484,1.181,1.2059,1.2052,0.0,0.0,0.0,0.0,0.0,0.0,0.0,0.0,0.0,0.0,0.0,0.0,0.0,0.0,-0.6303,0.0,-0.5938,0.0,0.0,0.0,0.0,0.0,0.0,0.0,0.0,-0.54,-0.5462,-0.5441,-0.5305,-0.5209,0.0,-0.4835,-0.4525,0.0,0.0,0.0,0.0,0.0,0.0,0.0,0.0,-0.3454,-0.3432,-0.3291,-0.3223,-0.3128,-0.2854,-0.2687,-0.2632,-0.2517,-0.2532,-0.2714,-0.2643,-0.2495,0.0,0.0,0.0,0.0,0.0,0.0,0.0,0.0,0.0,0.0,0.0,0.0,0.0,0.0,0.0,0.0,0.0,0.0,0.0,0.0,0.0,0.0,0.0,0.453,0.0,0.0,0.0,0.0,0.0,0.0,0.0,0.0,0.0,0.6309,0.6831,0.7374,0.7829,0.829,0.8682,0.878,0.0,0.0,0.0,0.0,0.0,0.0,0.0,1.0391,1.0557,1.101,1.1435,1.166,1.2095,1.2473,1.2703,0.0,0.0,1.2445,1.2623,1.2932,1.2871,1.3264,1.3528,1.3628,1.396,1.4374,0.0,0.0,0.0,0.0,0.0,0.0,0.0,0.0,-0.7709,-0.741,0.0,-0.7019,0.0,0.0,0.0,0.0,0.0,0.0,0.0,0.0,-0.5995,-0.6,-0.5765,-0.563,-0.5527,-0.5524,-0.5414,-0.526,-0.5048,-0.4331,0.0,0.0,0.0,0.0,0.0,0.0,-0.3837,-0.3813,-0.3836,-0.3742,-0.3583,-0.3299,-0.3074,-0.2907,-0.2907,-0.2917,-0.2985,-0.2872,-0.2678,-0.2349,-0.1858,0.0,0.0,0.0,0.0,0.0,0.0,0.0,0.0,0.0,0.0,0.0,0.0,0.0,0.0,0.0,0.0,0.0,0.0,0.0,0.0,0.4585,0.0,0.0,0.0,0.0,0.0,0.0,0.0,0.0,0.0,0.0,0.701,0.7377,0.7822,0.8352,0.0,0.0,0.0,0.0,0.9679,0.9669,0.985,1.0013,1.0358,1.0537,1.0777,1.1228,0.0,0.0,1.2381,1.2893,1.3367,1.3668,1.4131,1.4172,1.3155,1.3213,1.3405,1.3577,1.3831,1.4038,1.4175,1.4399,1.4648,-1.0726,0.0,0.0,0.0,0.0,-0.8425,-0.8287,-0.8196,-0.8153,-0.8014,-0.7903,-0.7742,0.0,0.0,0.0,0.0,0.0,0.0,-0.6747,-0.6764,-0.6692,-0.6662,-0.6726,-0.6571,-0.647,-0.635,-0.6039,-0.5812,-0.5548,-0.5209,-0.4853,-0.4422,0.0,0.0,0.0,0.0,-0.4304,-0.409,-0.4224,-0.4187,-0.3913,-0.3687,-0.3465,-0.3245,-0.3246,-0.3284,-0.3252,-0.3178,-0.295,-0.2634,-0.2061,0.0,0.0,0.0,0.0,0.0,0.0,0.0,0.0,0.0,0.0,0.0,0.0,0.0,0.0,0.0,0.0,0.0,0.0,0.0,0.4971,0.5065,0.5152,0.0,0.0,0.0,0.0,0.0,0.0,0.0,0.0,0.0,0.7988,0.8124,0.8366,0.0,0.0,0.9394,0.9559,0.9629,0.9741,0.9857,0.0,0.0,0.0,1.1071,1.1577,1.1822,1.2429,1.3072,1.361,1.3934,1.4178,1.4358,1.4641,1.4763,1.4633,1.4505,1.4445,1.4368,1.4624,1.4843,1.4808,1.5128,1.5588,-1.2021,-1.083,-1.0229,-0.9755,-0.9343,-0.9096,-0.8949,-0.8795,-0.8749,-0.8644,-0.8442,-0.8335,-0.8215,-0.7963,-0.7824,0.0,0.0,0.0,-0.7387,-0.7389,-0.7344,-0.7317,-0.7345,-0.7147,-0.7041,-0.6918,-0.6627,-0.6348,-0.6182,-0.5958,-0.5694,-0.5381,0.0,0.0,-0.4717,-0.4767,-0.4696,-0.4549,-0.4636,-0.4515,-0.4187,-0.3965,-0.3799,-0.3634,-0.3634,-0.3633,-0.3577,-0.34,-0.3234,-0.2873,-0.2297,-0.1721,0.0,0.0,0.0,0.0,0.0,0.0,0.0,0.0,0.0,0.0,0.0,0.3382,0.3556,0.0,0.0,0.0,0.465,0.5037,0.5396,0.5519,0.0,0.0,0.0,0.0,0.0,0.0,0.0,0.7307,0.7827,0.8315,0.8764,0.8949,0.9035,0.9155,0.9502,0.9745,0.986,0.0,1.0144,1.0263,1.0499,1.0797,1.103,1.1675,1.2234,1.2588,1.3352,1.3988,1.4245,1.4538,1.472,1.4902,1.5024,1.5147,1.5264,1.5196,1.5129,1.4983,1.5124,1.5274,1.5315,1.5613,1.6029,-1.3268,-1.2912,-1.1731,-1.0905,-1.0402,-1.0119,-0.99,-0.9732,-0.9595,-0.9328,-0.8926,-0.8909,-0.8683,-0.8371,-0.817,0.0,0.0,-0.8012,-0.7996,-0.7799,-0.7914,-0.7925,-0.7755,-0.7575,-0.7426,-0.7429,-0.7133,-0.6962,-0.696,-0.6608,-0.649,-0.6426,-0.5636,-0.5244,-0.5197,-0.5046,-0.5018,-0.5122,-0.5009,-0.4792,-0.4519,-0.4244,-0.4022,-0.4022,-0.4021,-0.3964,-0.3796,-0.3691,-0.342,-0.3045,-0.25,-0.1962,-0.145,0.0,0.0,0.0,0.0,0.0,0.0,0.0,0.0,0.0,0.0,0.0,0.0,0.0,0.0,0.0,0.497,0.0,0.5775,0.5949,0.0,0.0,0.0,0.6346,0.6553,0.691,0.7347,0.8023,0.0,0.0,0.0,0.0,0.9879,0.962,0.9927,1.015,1.0157,1.0488,1.0804,1.077,1.1233,1.1611,1.1796,1.2258,1.2883,1.3472,1.4107,1.4469,1.4533,1.4784,1.5029,1.5201,1.5215,1.5264,1.5352,1.542,1.5415,1.54,1.5405,1.5541,1.5763,1.5899,1.6082,-1.4369,-1.4003,-1.3341,-1.2522,-1.1574,-1.149,-1.1285,-1.0875,-1.0598,-1.036,-1.0125,-0.9732,-0.9427,-0.9137,-0.8994,-0.8885,-0.8834,-0.8661,-0.8596,-0.8561,-0.8559,-0.8579,-0.8527,-0.8566,-0.8552,-0.8428,-0.8063,-0.775,-0.7522,-0.7236,-0.7041,-0.6918,-0.6706,-0.6412,-0.5972,-0.5815,-0.5677,-0.5666,-0.5346,-0.5071,-0.4792,-0.4515,-0.4408,-0.4353,-0.4132,-0.3965,-0.3964,-0.3799,-0.362,-0.3315,-0.2696,-0.2166,-0.1715,-0.0835,0.0,0.0,0.0,0.0,0.0,0.0,0.0,0.0,0.0,0.3764,0.4061,0.0,0.4359,0.0,0.5399,0.5739,0.5944,0.6242,0.0,0.0,0.6805,0.732,0.7937,0.8015,0.8315,0.8912,0.9317,0.9588,0.9776,1.0154,1.0372,1.0364,1.0408,1.0458,1.0461,1.0693,1.087,1.1055,1.1373,1.1747,1.2182,1.2781,1.3515,1.4167,1.441,1.4592,1.4966,1.5093,1.5205,1.5313,1.5362,1.5357,1.541,1.5415,1.5415,1.542,1.5546,1.5672,1.5861,1.5956,1.6181,-1.5283,-1.5049,-1.4659,-1.4011,-1.3261,-1.2585,-1.207,-1.1571,-1.1414,-1.1241,-1.1017,-1.0467,-1.0155,-0.9985,-0.9638,-0.9559,-0.9688,-0.9425,-0.94,-0.9549,-0.9306,-0.9202,-0.9209,-0.9134,-0.9088,-0.9032,-0.8707,-0.8459,-0.8281,-0.8036,-0.7967,-0.7852,-0.7682,-0.74,-0.706,-0.6589,-0.627,-0.6211,-0.5725,-0.5401,-0.5071,-0.4849,-0.4739,-0.4682,-0.4465,-0.4301,-0.4244,-0.4021,-0.3742,-0.3411,-0.286,-0.2328,-0.1814,-0.1025,-0.0199,0.0,0.0,0.0,0.0,0.0,0.0,0.0,0.0,0.0,0.0,0.0,0.4595,0.0,0.5739,0.6124,0.6278,0.6755,0.7039,0.6857,0.742,0.8027,0.8447,0.8582,0.8917,0.9482,0.9776,0.9994,1.0177,1.0458,1.0621,1.0621,1.0621,1.0621,1.0681,1.0807,1.0996,1.1314,1.1622,1.2054,1.2605,1.3208,1.3808,1.435,1.4592,1.4843,1.5152,1.5264,1.5318,1.542,1.5415,1.5415,1.5415,1.5415,1.5415,1.542,1.5609,1.5798,1.5914,1.6009,1.6223,-1.5984,-1.5984,-1.5647,-1.5362,-1.4972,-1.3652,-1.2745,-1.2254,-1.2187,-1.1981,-1.1652,-1.1165,-1.0922,-1.0906,-1.0257,-1.0135,-1.04,-1.0119,-1.023,-1.0584,-1.0082,-0.9856,-0.9798,-0.9652,-0.9492,-0.943,-0.9277,-0.9144,-0.9079,-0.8934,-0.8863,-0.8851,-0.851,-0.833,-0.8321,-0.7439,-0.6872,-0.6707,-0.6157,-0.567,-0.5409,-0.5181,-0.5071,-0.4958,-0.4796,-0.4688,-0.4519,-0.4244,-0.3856,-0.3469,-0.3023,-0.249,-0.1828,-0.1335,-0.0525,0.0,0.1264,0.0,0.0,0.0,0.0,0.0,0.0,0.0,0.0,0.4513,0.4842,0.5466,0.6079,0.6486,0.673,0.7346,0.7597,0.7291,0.7949,0.8513,0.8652,0.8961,0.931,0.99,0.9997,1.0164,1.0514,1.0621,1.0621,1.0621,1.0621,1.0684,1.0807,1.0996,1.1188,1.156,1.1937,1.2486,1.3147,1.3584,1.401,1.4474,1.4784,1.5034,1.5205,1.5303,1.5415,1.5415,1.5415,1.5415,1.5415,1.5415,1.5415,1.5415,1.5662,1.5861,1.5914,1.6072,1.6291,-1.6575,-1.6451,-1.6109,-1.5884,-1.5685,-1.5307,-1.4545,-1.3576,-1.3327,-1.2806,-1.206,-1.1878,-1.1734,-1.1559,-1.1213,-1.1062,-1.1124,-1.0846,-1.0703,-1.0613,-1.0637,-1.0569,-1.046,-1.0646,-1.0636,-1.0319,-1.0093,-0.9859,-0.9557,-0.9322,-0.9207,-0.9204,-0.9147,-0.907,-0.9064,0.0,0.0,0.0,-0.6332,-0.6064,-0.5843,-0.546,-0.5244,-0.5242,-0.5013,0.0,-0.4688,-0.4519,-0.4187,-0.3742,-0.3298,0.0,0.0,0.0,0.0,0.0,0.0,0.0,0.0,0.0,0.0,0.0,0.3708,0.4015,0.4617,0.5167,0.5591,0.5738,0.6428,0.6882,0.6928,0.7591,0.8024,0.8089,0.8161,0.8622,0.9538,0.9618,0.9833,1.0372,1.0474,1.0494,1.0544,1.0621,1.0621,1.0621,1.0621,1.0688,1.1,1.1059,1.1188,1.1556,1.2185,1.292,1.3588,1.3885,1.4185,1.4734,1.4916,1.5088,1.5308,1.5357,1.5415,1.5415,1.5415,1.5415,1.5415,1.5415,1.5415,1.5415,1.5662,1.5914,1.5914,1.6249,1.657,-1.7145,0.0,-1.6678,-1.6451,0.0,-1.6181,-1.5705,-1.4923,-1.4427,-1.3833,-1.3168,-1.2867,-1.2619,-1.2383,-1.1914,-1.1769,-1.1757,-1.1526,-1.1441,-1.1435,-1.1363,-1.1254,-1.1077,-1.1169,-1.1062,-1.0867,-1.0715,-1.0526,-1.0393,-1.018,-1.0046,-1.0043,-0.9727,-0.9596,-0.9593,-0.916,-0.8311,-0.7212,-0.6986,-0.6601,-0.6228,-0.59,-0.5686,-0.5519,0.0,0.0,0.0,0.0,0.0,0.0,0.0,0.0,0.0,0.0,0.0,-0.0,0.086,0.1542,0.2071,0.2497,0.3018,0.3735,0.4308,0.4675,0.4794,0.5487,0.5934,0.5992,0.668,0.7153,0.716,0.7893,0.8405,0.8535,0.8734,0.9174,0.9893,1.0033,1.0135,1.0518,1.0621,1.0621,1.0621,1.0621,1.0621,1.0621,1.0684,1.0811,1.1062,1.1129,1.131,1.1864,1.2548,1.3216,1.3709,1.4065,1.4359,1.4843,1.5029,1.5205,1.5357,1.5415,1.5415,1.5415,1.5415,1.5415,1.5415,1.5415,1.5425,1.5541,1.5735,1.5909,1.6014,1.6291,1.6632,-1.7639,-1.7518,-1.7234,-1.7022,-1.692,-1.674,-1.6394,-1.5994,0.0,0.0,0.0,-1.3898,-1.3531,-1.3169,-1.2736,-1.2537,-1.2521,-1.2352,-1.227,-1.2363,-1.2058,-1.1872,-1.1751,-1.1553,-1.1373,-1.1244,-1.1188,-1.1188,-1.1125,-1.0933,-1.0867,-1.0787,-1.0317,-1.0014,-0.9939,-0.9475,-0.8866,-0.81,-0.7806,-0.7343,-0.6668,-0.65,-0.6283,-0.6003,-0.5725,-0.5503,-0.5392,-0.4936,-0.4543,-0.4151,-0.3583,-0.2959,-0.2336,-0.1654,-0.097,-0.0114,0.0685,0.1426,0.2108,0.2618,0.3279,0.4017,0.4905,0.5285,0.5009,0.569,0.6127,0.6125,0.6897,0.7378,0.738,0.8198,0.8782,0.8788,0.9274,0.9713,1.0123,1.0244,1.0351,1.0558,1.0621,1.0621,1.0621,1.0621,1.0621,1.0621,1.0741,1.093,1.1125,1.1247,1.1556,1.2243,1.2911,1.339,1.383,1.4181,1.4592,1.4966,1.5098,1.5269,1.5366,1.5415,1.5415,1.5415,1.5415,1.5415,1.5415,1.5415,1.5478,1.5672,1.5798,1.5961,1.6124,1.641,1.6699,-1.8078,-1.7854,-1.7639,-1.7534,-1.7357,-1.7067,-1.6791,-1.6462,-1.5556,-1.5034,-1.4848,-1.466,-1.4332,-1.4049,-1.3809,-1.363,-1.3313,-1.3193,-1.2988,0.0,-1.2564,-1.2371,-1.2182,-1.2058,-1.1872,-1.1681,-1.1556,-1.1432,-1.1306,-1.1125,-1.1062,-1.1055,-1.0825,-1.0491,-1.0246,-1.014,-0.9858,-0.9411,-0.8687,-0.8022,-0.7643,-0.7349,-0.7108,-0.6752,-0.6572,-0.6285,-0.5811,-0.5624,-0.5208,-0.4611,-0.4065,-0.3399,-0.2671,-0.2126,-0.1339,-0.0305,0.0549,0.134,0.2006,0.2614,0.3344,0.4267,0.5024,0.5381,0.534,0.5953,0.6391,0.6398,0.7118,0.7618,0.7693,0.8439,0.8957,0.9093,0.957,0.9916,1.0197,1.0374,1.0558,1.0558,1.0621,1.0621,1.0621,1.0621,1.0684,1.0741,1.0863,1.0993,1.1439,1.1755,1.2123,1.2617,1.3029,1.3446,1.3885,1.43,1.4661,1.497,1.5152,1.5264,1.5357,1.5415,1.5415,1.5415,1.5415,1.5415,1.5415,1.5415,1.5483,1.5682,1.5856,1.6024,1.6311,1.6581,1.6864,-1.9001,-1.8789,-1.8314,-1.8035,-1.7975,-1.7529,-1.7256,-1.6925,-1.6353,-1.5841,-1.5483,-1.5181,-1.4893,-1.4611,-1.4488,-1.4181,-1.3877,-1.3756,-1.3588,-1.335,-1.3094,-1.2858,-1.2679,-1.2548,-1.2301,-1.2058,-1.1996,-1.1934,-1.1747,-1.1498,-1.1373,-1.1373,-1.1048,-1.08,-1.0741,-1.0621,-1.0428,-1.0174,-0.9275,-0.8642,-0.8266,-0.7852,-0.7496,-0.7307,-0.6959,-0.666,-0.6304,-0.6003,-0.5519,-0.4973,-0.4482,-0.3872,-0.3015,-0.2402,-0.1664,-0.0741,0.0185,0.111,0.2034,0.3062,0.3906,0.447,0.5236,0.5668,0.5666,0.6208,0.6584,0.6591,0.7392,0.784,0.7904,0.857,0.9022,0.9092,0.9594,0.9919,1.012,1.0374,1.0558,1.0621,1.0621,1.0618,1.0684,1.0744,1.0807,1.0933,1.1055,1.1373,1.1809,1.2127,1.244,1.2805,1.3216,1.3644,1.4014,1.4488,1.4789,1.4975,1.5205,1.5313,1.5415,1.5415,1.5415,1.5415,1.5415,1.5415,1.5415,1.5478,1.5609,1.5793,1.6029,1.6254,1.6477,1.6858,1.7251,-1.9935,-1.9813,-1.9075,-1.8629,-1.8422,-1.8035,-1.7706,-1.744,-1.7094,-1.6689,-1.6223,-1.5768,-1.542,-1.5191,-1.4951,-1.4652,-1.4369,-1.4245,-1.4065,-1.389,-1.358,-1.3333,-1.3164,-1.2985,-1.2793,-1.2544,-1.2425,-1.2371,-1.2185,-1.1937,-1.1685,-1.156,-1.1233,-1.1048,-1.1129,-1.0933,-1.0807,-1.0608,-0.9896,-0.9303,-0.8795,-0.8371,-0.8072,-0.777,-0.74,-0.7101,-0.6796,-0.6314,-0.5883,-0.5384,-0.4885,-0.4202,-0.3328,-0.264,-0.1887,-0.107,-0.0063,0.107,0.2267,0.3527,0.435,0.4736,0.5422,0.5954,0.6075,0.6486,0.6779,0.686,0.7557,0.8044,0.8172,0.8627,0.902,0.9081,0.9591,0.9916,1.005,1.0371,1.0621,1.0621,1.0628,1.0681,1.0807,1.0867,1.0996,1.1185,1.1435,1.1809,1.212,1.2428,1.2683,1.2981,1.3463,1.3894,1.407,1.4606,1.4975,1.5029,1.5245,1.5357,1.5415,1.5415,1.5415,1.5415,1.5415,1.542,1.5478,1.5604,1.573,1.5904,1.6139,1.6426,1.6761,1.7245,1.7639,-2.0868,-2.072,-2.0091,-1.9353,-1.8619,-1.8427,-1.8162,-1.7871,-1.77,-1.749,-1.7099,-1.6337,-1.5994,-1.5763,-1.5463,-1.5191,-1.4911,-1.472,-1.4478,-1.4189,-1.4005,-1.383,-1.3705,-1.3394,-1.3273,-1.3155,-1.2915,-1.2679,-1.256,-1.2371,-1.2054,-1.1622,-1.156,-1.1376,-1.1125,-1.1125,-1.0993,-1.0807,-1.0594,-1.0119,-0.9452,-0.9385,-0.9076,-0.8447,-0.8171,-0.7852,-0.7376,-0.6885,-0.6361,-0.5844,-0.5176,-0.4387,-0.3523,-0.2793,-0.1998,-0.1132,-0.0067,0.1267,0.2932,0.3869,0.4532,0.5003,0.5543,0.602,0.6284,0.6664,0.6981,0.717,0.7642,0.8114,0.8449,0.8767,0.9081,0.9268,0.9725,0.9986,1.005,1.0371,1.0621,1.0807,1.0807,1.087,1.1059,1.1125,1.1251,1.1498,1.1743,1.1999,1.2432,1.2674,1.2981,1.3338,1.364,1.4005,1.4359,1.472,1.5029,1.5152,1.5308,1.5357,1.5415,1.5415,1.5415,1.5415,1.5415,1.5483,1.5614,1.5677,1.5793,1.6066,1.6306,1.6602,1.7105,1.7651,1.7981,-2.176,-2.164,-2.0938,-2.0421,-1.9901,-1.9436,-1.9067,-1.8762,-1.8325,-1.7926,-1.7645,-1.7195,-1.6791,-1.628,-1.5994,-1.571,-1.5536,-1.5371,-1.5147,-1.4793,-1.4675,-1.4488,-1.43,-1.4001,-1.3821,-1.37,-1.3463,-1.3281,-1.2977,-1.2674,-1.2305,-1.2058,-1.1937,-1.1879,-1.1689,-1.1501,-1.1376,-1.1247,-1.0933,-1.0551,-1.0168,-0.9716,-0.9265,-0.8829,-0.8506,-0.8117,-0.7659,-0.7199,-0.6743,-0.6084,-0.5489,-0.4691,-0.3757,-0.2953,-0.2216,-0.1344,0.0672,0.2219,0.316,0.3888,0.4553,0.5087,0.5624,0.602,0.6418,0.6811,0.7206,0.7468,0.7789,0.812,0.8452,0.8765,0.9139,0.9396,0.9792,1.005,1.0177,1.0488,1.0747,1.0804,1.093,1.1055,1.1369,1.156,1.1751,1.1937,1.2127,1.2375,1.2621,1.292,1.3333,1.3636,1.4001,1.4231,1.4469,1.4784,1.5029,1.5147,1.5308,1.541,1.5415,1.5415,1.5415,1.5415,1.5483,1.5604,1.5677,1.5846,1.6014,1.6296,1.6699,1.711,1.7584,1.7865,1.8144,-2.2652,-2.2512,-2.185,-2.1367,-2.1069,-2.0495,-2.0102,-1.9787,-1.927,-1.8754,-1.8328,-1.8168,-1.7651,-1.6971,-1.6513,-1.6228,-1.6046,-1.5889,-1.5672,-1.5376,-1.5264,-1.5088,-1.4838,-1.4547,-1.4313,-1.4189,-1.4005,-1.37,-1.3394,-1.2981,-1.2674,-1.249,-1.2382,-1.2317,-1.2123,-1.1868,-1.1747,-1.1564,-1.1185,-1.0867,-1.0558,-1.0037,-0.9524,-0.9078,-0.8765,-0.8317,-0.7797,-0.7403,-0.6937,-0.6278,-0.569,-0.4892,-0.3892,-0.3087,-0.2216,-0.1008,0.1277,0.2827,0.316,0.3891,0.4553,0.5156,0.5688,0.615,0.6613,0.7005,0.7466,0.7862,0.8055,0.8249,0.8576,0.8952,0.9271,0.9591,0.9853,1.0174,1.0371,1.0614,1.087,1.093,1.1122,1.1373,1.1689,1.1937,1.2123,1.2251,1.244,1.2748,1.2867,1.3216,1.3575,1.3894,1.4245,1.4529,1.4652,1.4907,1.5093,1.5201,1.5357,1.5415,1.5415,1.5415,1.5415,1.542,1.5609,1.5735,1.5798,1.5961,1.6296,1.6653,1.7049,1.749,1.786,1.8078,1.841,-2.3531,-2.3441,-2.2814,-2.2255,-2.1748,-2.1387,-2.1151,-2.0981,-2.0637,-2.0026,-1.9374,-1.9121,-1.8636,-1.7861,-1.7204,-1.6705,-1.657,-1.6228,-1.6061,-1.5879,-1.572,-1.5508,-1.522,-1.5029,-1.4848,-1.4652,-1.4373,-1.4065,-1.3825,-1.3459,-1.3155,-1.2985,-1.2862,-1.2617,-1.2367,-1.2305,-1.2058,-1.1685,-1.156,-1.1247,-1.0688,-1.0368,-0.9916,-0.9335,-0.8961,-0.8506,-0.7987,-0.7463,-0.694,-0.642,-0.5758,-0.4892,-0.3892,-0.3088,-0.1745,0.0202,0.1681,0.2693,0.3227,0.3889,0.4621,0.5291,0.5885,0.6476,0.7005,0.7328,0.7787,0.8387,0.8449,0.8641,0.8952,0.9201,0.953,0.9798,1.0114,1.0371,1.0561,1.0747,1.0926,1.1237,1.1498,1.1747,1.2062,1.2182,1.2428,1.2556,1.2744,1.2924,1.3338,1.3515,1.3761,1.4134,1.4433,1.4597,1.4911,1.5034,1.5201,1.5303,1.5362,1.5415,1.5415,1.5415,1.5415,1.5478,1.5667,1.5793,1.5914,1.6202,1.6596,1.6992,1.7312,1.7695,1.803,1.8344,1.8625,-2.4021,-2.3878,-2.3625,-2.3367,-2.3071,-2.2496,-2.216,-2.1983,-2.133,-2.0857,-2.053,-2.0336,-1.9945,-1.936,-1.8747,-1.798,-1.72,-1.6842,-1.6627,-1.6467,-1.6348,-1.6119,-1.5778,-1.5652,-1.542,-1.5123,-1.4966,-1.4666,-1.424,-1.3881,-1.3644,-1.3459,-1.3281,-1.3029,-1.2911,-1.2679,-1.2371,-1.2054,-1.1747,-1.1376,-1.0937,-1.0495,-1.0044,-0.9457,-0.9084,-0.8635,-0.8047,-0.7591,-0.7068,-0.642,-0.562,-0.4756,-0.3757,-0.2282,-0.0873,0.0403,0.1611,0.2618,0.3354,0.3955,0.4687,0.5488,0.5949,0.6474,0.7134,0.7594,0.7984,0.8444,0.8958,0.9207,0.9265,0.9454,0.9649,1.0047,1.0371,1.0558,1.0744,1.1062,1.1373,1.1564,1.1937,1.2317,1.2494,1.2674,1.2854,1.3033,1.3151,1.3398,1.3644,1.3885,1.413,1.4369,1.4666,1.4902,1.5088,1.5152,1.5259,1.5366,1.5415,1.5415,1.5415,1.5541,1.5604,1.5604,1.5788,1.5956,1.6129,1.6467,1.6925,1.7217,1.754,1.7865,1.8259,1.8512,1.8786,-2.4472,-2.4363,-2.437,-2.4261,-2.4125,-2.354,-2.3256,-2.3065,-2.2344,-2.1907,-2.165,-2.1454,-2.1031,-2.0538,-2.007,-1.9394,-1.8424,-1.7634,-1.719,-1.7094,-1.6858,-1.657,-1.6343,-1.6171,-1.5936,-1.5647,-1.5362,-1.5079,-1.4715,-1.4359,-1.4189,-1.4001,-1.3696,-1.3511,-1.3329,-1.2972,-1.267,-1.2367,-1.1999,-1.1564,-1.1185,-1.0681,-1.0104,-0.9524,-0.9142,-0.863,-0.8047,-0.7526,-0.7005,-0.628,-0.5488,-0.4558,-0.3489,-0.1678,-0.0202,0.0672,0.1543,0.2549,0.3487,0.4157,0.4889,0.5617,0.6147,0.6671,0.7269,0.7787,0.8242,0.8765,0.921,0.9521,0.9716,0.984,1.0034,1.0364,1.0558,1.0811,1.0996,1.1376,1.1685,1.1934,1.2371,1.2744,1.2985,1.3168,1.3281,1.3454,1.3575,1.3756,1.4005,1.4194,1.4442,1.4661,1.4911,1.5088,1.5264,1.5376,1.5444,1.5551,1.5546,1.5483,1.5541,1.5667,1.5788,1.5788,1.5956,1.6119,1.64,1.6797,1.7088,1.7384,1.7711,1.809,1.8356,1.8673,1.8952,-2.5005,-2.5005,-2.4842,-2.4778,-2.4708,-2.4419,-2.4253,-2.4104,-2.3761,-2.3232,-2.2763,-2.2476,-2.1949,-2.1298,-2.1143,-2.0785,-2.0072,-1.8701,-1.789,-1.7734,-1.7262,-1.696,-1.6818,-1.6534,-1.6306,-1.6056,-1.5642,-1.5362,-1.5147,-1.4838,-1.4656,-1.4478,-1.424,-1.3945,-1.3511,-1.3329,-1.3033,-1.2617,-1.2243,-1.1806,-1.1303,-1.0807,-1.0231,-0.9518,-0.9017,-0.8511,-0.7984,-0.7335,-0.6681,-0.6081,-0.5292,-0.4227,-0.2955,-0.141,-0.0067,0.0941,0.1544,0.2415,0.3689,0.4564,0.5297,0.582,0.6416,0.6937,0.7594,0.8044,0.8495,0.9139,0.946,0.9716,1.0174,1.0428,1.0491,1.0621,1.0751,1.1059,1.1439,1.1626,1.1872,1.2498,1.2867,1.3103,1.3333,1.358,1.3769,1.383,1.3945,1.4125,1.4419,1.4542,1.4661,1.4907,1.5088,1.5264,1.5435,1.5546,1.5672,1.5735,1.5677,1.5672,1.5725,1.5846,1.5904,1.5961,1.6181,1.6348,1.6689,1.7088,1.7368,1.7662,1.7986,1.8253,1.8518,1.8786,1.9052,-2.5619,-2.5619,-2.5453,-2.5328,-2.5203,-2.4985,-2.4821,-2.4644,-2.4357,-2.4065,-2.3812,-2.3535,-2.3211,-2.2794,-2.2368,-2.1949,-2.1483,-2.0451,-1.9542,-1.8694,-1.7957,-1.7534,-1.7368,-1.7161,-1.6772,-1.6306,-1.5999,-1.5773,-1.5551,-1.5298,-1.5128,-1.4907,-1.4597,-1.4359,-1.4107,-1.3687,-1.3273,-1.2862,-1.2432,-1.1934,-1.1306,-1.087,-1.0231,-0.9518,-0.8891,-0.8317,-0.7792,-0.7209,-0.6616,-0.602,-0.5158,-0.4025,-0.2622,-0.121,0.0067,0.1008,0.1746,0.2618,0.3824,0.4967,0.5767,0.609,0.6548,0.7138,0.7857,0.8309,0.8823,0.9396,0.9655,1.0044,1.0434,1.0621,1.0744,1.0744,1.1122,1.1373,1.1689,1.2065,1.2552,1.3094,1.3273,1.3454,1.37,1.4005,1.413,1.4245,1.4419,1.4542,1.4784,1.4838,1.4907,1.5093,1.5264,1.5435,1.5672,1.5846,1.5967,1.5972,1.5972,1.5967,1.6024,1.6077,1.6134,1.6244,1.6405,1.6689,1.7032,1.7318,1.7595,1.7871,1.8193,1.8464,1.8685,1.8952,1.9216,-2.6211,-2.6143,-2.5988,-2.5865,-2.5742,-2.555,-2.5342,-2.5104,-2.4915,-2.4744,-2.458,-2.4325,-2.4157,-2.3891,-2.3406,-2.3045,-2.2619,-2.2039,-2.1192,-2.0091,-1.8908,-1.834,-1.796,-1.7601,-1.7155,-1.6694,-1.6467,-1.6244,-1.5967,-1.5773,-1.5531,-1.525,-1.4947,-1.4711,-1.4474,-1.3941,-1.3524,-1.3094,-1.2552,-1.1992,-1.1432,-1.0874,-1.0231,-0.9521,-0.8829,-0.8249,-0.7661,-0.7075,-0.6414,-0.5688,-0.469,-0.349,-0.2355,-0.1008,0.0336,0.1344,0.2014,0.275,0.4025,0.5166,0.6034,0.6286,0.6745,0.7332,0.7984,0.8571,0.9087,0.9533,0.998,1.0364,1.0621,1.0933,1.1115,1.1181,1.1299,1.1677,1.1996,1.2613,1.3099,1.3575,1.3812,1.3997,1.4181,1.4424,1.4552,1.4661,1.4779,1.4897,1.5083,1.5142,1.5264,1.5386,1.5561,1.5735,1.5914,1.6087,1.6202,1.6259,1.6259,1.6311,1.6311,1.642,1.6472,1.6637,1.6802,1.6971,1.7312,1.7523,1.7799,1.8127,1.8404,1.8619,1.8833,1.9111,1.9322,-2.6721,-2.6721,-2.645,-2.6351,-2.6297,-2.6049,-2.5886,-2.5722,-2.5529,-2.5363,-2.5223,-2.4942,-2.4708,-2.4567,-2.4328,-2.4033,-2.3618,-2.318,-2.2541,-2.171,-2.0465,-1.9408,-1.8559,-1.7977,-1.7473,-1.7067,-1.6858,-1.671,-1.6426,-1.6181,-1.5884,-1.5531,-1.5415,-1.5118,-1.4652,-1.4185,-1.3761,-1.3273,-1.2666,-1.212,-1.1564,-1.094,-1.0234,-0.9518,-0.8894,-0.8252,-0.7524,-0.6741,-0.6018,-0.535,-0.3955,-0.2822,-0.2085,-0.0806,0.0672,0.2018,0.2217,0.295,0.4155,0.5367,0.61,0.6484,0.7005,0.7526,0.8239,0.8762,0.928,0.9798,1.0308,1.0684,1.0933,1.131,1.1619,1.1736,1.1659,1.1965,1.2801,1.3281,1.364,1.4001,1.4295,1.4588,1.4715,1.4902,1.5029,1.5029,1.5088,1.5259,1.5366,1.5483,1.5599,1.5725,1.5851,1.6019,1.6254,1.642,1.6591,1.6715,1.671,1.6699,1.6699,1.6751,1.6864,1.7027,1.72,1.7368,1.7529,1.775,1.8018,1.8296,1.8512,1.8721,1.894,1.921,1.942,-2.7364,-2.7357,-2.7056,-2.6952,-2.69,-2.6638,-2.6418,-2.6304,-2.6122,-2.5967,-2.5832,-2.5564,-2.5377,-2.5189,-2.5041,-2.4694,-2.429,-2.4121,-2.3493,-2.27,-2.2204,-2.0778,-1.93,-1.8354,-1.781,-1.7529,-1.7312,-1.7038,-1.6858,-1.6524,-1.6244,-1.6134,-1.5652,-1.5298,-1.4961,-1.4428,-1.3945,-1.3454,-1.2789,-1.2178,-1.1622,-1.0937,-1.0234,-0.9524,-0.8969,-0.832,-0.7456,-0.6282,-0.5292,-0.4427,-0.3422,-0.2621,-0.2085,-0.0672,0.0941,0.222,0.2419,0.2882,0.4356,0.5631,0.6364,0.6747,0.7335,0.8052,0.8571,0.9078,0.9591,1.011,1.0555,1.093,1.131,1.1751,1.2046,1.2262,1.2389,1.2716,1.3281,1.3644,1.4005,1.43,1.4656,1.4902,1.5083,1.5318,1.5508,1.5561,1.5561,1.5672,1.5778,1.5778,1.5899,1.6009,1.6186,1.6358,1.6524,1.6745,1.692,1.7105,1.7155,1.7134,1.7134,1.7134,1.7245,1.7357,1.7534,1.7706,1.7871,1.8035,1.8253,1.8518,1.8727,1.8934,1.9099,1.9374,1.9519,-2.794,-2.7932,-2.7733,-2.7575,-2.7517,-2.7262,-2.7056,-2.69,-2.6736,-2.6563,-2.6411,-2.6143,-2.5967,-2.5797,-2.5646,-2.5314,-2.4901,-2.4908,-2.4366,-2.357,-2.2986,-2.1631,-1.9963,-1.8867,-1.8344,-1.8084,-1.7755,-1.7529,-1.7301,-1.6931,-1.6705,-1.6415,-1.5941,-1.5594,-1.5254,-1.472,-1.4181,-1.3696,-1.3038,-1.2428,-1.1813,-1.1125,-1.0488,-0.9722,-0.9098,-0.8317,-0.7066,-0.5952,-0.496,-0.4025,-0.3156,-0.2418,-0.1681,-0.0403,0.1142,0.2624,0.2754,0.3419,0.4558,0.5765,0.6496,0.6948,0.7599,0.8244,0.8826,0.9399,0.9913,1.0425,1.0867,1.1306,1.1809,1.2301,1.2565,1.2753,1.3287,1.383,1.411,1.4341,1.4547,1.4829,1.5181,1.5425,1.5546,1.5783,1.5899,1.5961,1.6019,1.6072,1.6181,1.6192,1.6249,1.6467,1.6575,1.6745,1.6971,1.719,1.7357,1.7545,1.7761,1.7738,1.7623,1.7628,1.7744,1.786,1.7926,1.8041,1.8199,1.8356,1.8572,1.878,1.8993,1.9146,1.9362,1.9525,1.9617,-2.8452,-2.8452,-2.8332,-2.822,-2.8065,-2.7925,-2.7733,-2.7496,-2.7379,-2.7196,-2.7019,-2.6774,-2.6563,-2.6404,-2.6258,-2.5974,-2.5515,-2.5508,-2.5126,-2.4376,-2.3476,-2.2069,-2.0744,-1.9636,-1.9,-1.8637,-1.8296,-1.7975,-1.77,-1.7434,-1.7105,-1.6699,-1.6348,-1.5936,-1.5478,-1.4951,-1.4483,-1.3945,-1.3281,-1.2674,-1.2062,-1.1376,-1.0684,-0.9919,-0.8958,-0.7919,-0.6741,-0.5756,-0.4962,-0.4029,-0.3156,-0.2216,-0.1142,-0.0067,0.1209,0.262,0.3289,0.3957,0.4895,0.5899,0.6692,0.7143,0.7792,0.8376,0.9084,0.9725,1.0361,1.0863,1.1365,1.1875,1.2371,1.2968,1.321,1.3327,1.41,1.4757,1.5089,1.5164,1.5196,1.5415,1.5753,1.6046,1.6166,1.6285,1.641,1.6462,1.6524,1.6524,1.6632,1.6632,1.6802,1.7022,1.7134,1.719,1.7412,1.7634,1.7854,1.803,1.8296,1.8392,1.8224,1.823,1.8296,1.8362,1.841,1.8512,1.8614,1.8774,1.8887,1.9046,1.9251,1.9402,1.9565,1.972,1.9869,-2.8959,-2.8943,-2.8826,-2.8677,-2.8542,-2.8383,-2.8309,-2.8194,-2.8039,-2.786,-2.7753,-2.7617,-2.7313,-2.7011,-2.6959,-2.6623,-2.6162,-2.6061,-2.5797,-2.51,-2.4021,-2.3072,-2.1917,-2.0702,-1.9713,-1.9148,-1.8661,-1.835,-1.8035,-1.7761,-1.7434,-1.7105,-1.6694,-1.6218,-1.5758,-1.5191,-1.4611,-1.401,-1.335,-1.274,-1.2123,-1.1501,-1.0747,-0.9916,-0.87,-0.7521,-0.6537,-0.5754,-0.4894,-0.3957,-0.3087,-0.2216,-0.0941,-0.0,0.1276,0.2618,0.3491,0.4292,0.5228,0.6224,0.7215,0.7729,0.8306,0.9022,0.9603,1.0234,1.08,1.1299,1.1868,1.249,1.3285,1.3644,1.3811,1.3982,1.4681,1.5585,1.6156,1.5974,1.5773,1.5879,1.628,1.6632,1.6632,1.6909,1.6965,1.7022,1.7027,1.7027,1.7083,1.7134,1.7301,1.7523,1.7634,1.7689,1.7958,1.8182,1.8398,1.8554,1.8821,1.904,1.8869,1.8768,1.8833,1.8833,1.8827,1.8981,1.9081,1.9133,1.9186,1.9344,1.9506,1.9656,1.9811,1.9914,2.0022,-2.9425,-2.9417,-2.9348,-2.9265,-2.9136,-2.8989,-2.8912,-2.8795,-2.8605,-2.8494,-2.839,-2.8197,-2.7944,-2.768,-2.7617,-2.7298,-2.6856,-2.6496,-2.6176,-2.5672,-2.4847,-2.3974,-2.3031,-2.1929,-2.0847,-1.967,-1.9146,-1.8833,-1.8512,-1.8187,-1.781,-1.7434,-1.6976,-1.6462,-1.5999,-1.5366,-1.4838,-1.424,-1.3584,-1.2915,-1.2305,-1.1685,-1.0741,-0.9719,-0.8501,-0.7458,-0.6605,-0.5818,-0.4891,-0.3959,-0.3224,-0.2216,-0.0739,0.0202,0.1344,0.2618,0.3623,0.4353,0.5282,0.6282,0.7342,0.8187,0.8826,0.9466,1.0044,1.0741,1.1362,1.1922,1.2421,1.3038,1.4001,1.4414,1.4523,1.4674,1.5375,1.6347,1.705,1.68,1.6348,1.6457,1.6864,1.7094,1.7312,1.7473,1.7579,1.7634,1.7639,1.7639,1.7639,1.7689,1.7854,1.8024,1.8078,1.8242,1.8512,1.8727,1.894,1.9139,1.9337,1.95,1.9506,1.9408,1.9362,1.9356,1.9291,1.939,1.9488,1.9488,1.9546,1.9714,1.9817,1.9914,2.001,2.0169,2.022,-2.9941,-2.9932,-2.9941,-2.9837,-2.9705,-2.9641,-2.9515,-2.9388,-2.919,-2.9036,-2.8997,-2.8756,-2.8598,-2.84,-2.823,-2.7985,-2.7522,-2.7012,-2.6594,-2.6361,-2.5652,-2.4667,-2.3664,-2.2753,-2.1713,-2.0137,-1.9668,-1.9356,-1.8987,-1.8614,-1.8242,-1.775,-1.7262,-1.6751,-1.6233,-1.5604,-1.5079,-1.4538,-1.3941,-1.3273,-1.2605,-1.193,-1.086,-0.9524,-0.8498,-0.7589,-0.6736,-0.5817,-0.4892,-0.3892,-0.3425,-0.2216,-0.0806,0.0403,0.1411,0.2619,0.3687,0.4482,0.5274,0.6338,0.7468,0.8449,0.9084,0.9783,1.0544,1.124,1.1922,1.2536,1.3151,1.3761,1.4592,1.5059,1.5293,1.5509,1.6208,1.7086,1.779,1.7489,1.7217,1.7078,1.7468,1.7805,1.792,1.8078,1.8193,1.8247,1.8247,1.8247,1.8242,1.8296,1.8506,1.8667,1.8715,1.8815,1.9087,1.9297,1.9519,1.9662,1.9798,1.9959,2.0074,2.0067,1.9965,1.9811,1.9805,1.985,1.9952,2.0003,2.0067,2.0131,2.0175,2.0308,2.0365,2.0429,2.0472,-3.0568,-3.0568,-3.0435,-3.0326,-3.0217,-3.0174,-3.0078,-2.9886,-2.9826,-2.9685,-2.9499,-2.9438,-2.9257,-2.902,-2.8935,-2.8598,-2.7997,-2.755,-2.7188,-2.6814,-2.6058,-2.5039,-2.4105,-2.322,-2.2101,-2.1113,-2.0334,-1.9778,-1.9368,-1.9046,-1.8667,-1.817,-1.775,-1.7251,-1.6627,-1.6114,-1.5478,-1.4897,-1.424,-1.3575,-1.2911,-1.205,-1.0982,-0.9521,-0.856,-0.7649,-0.6795,-0.5745,-0.4756,-0.3891,-0.3291,-0.2082,-0.0672,0.047,0.1612,0.2618,0.3751,0.4613,0.5467,0.6658,0.7777,0.8686,0.9463,1.0295,1.1052,1.1802,1.2536,1.3385,1.4116,1.4838,1.5352,1.5753,1.628,1.6641,1.6869,1.7413,1.8248,1.8455,1.8242,1.8104,1.8333,1.8506,1.8614,1.8721,1.8815,1.8869,1.8922,1.8981,1.8981,1.9034,1.9133,1.9297,1.9454,1.9552,1.965,1.9862,2.008,2.0125,2.0264,2.0453,2.0566,2.0616,2.056,2.0459,2.0308,2.0315,2.0416,2.0466,2.0516,2.0566,2.061,2.0703,2.0766,2.0822,2.0878,-3.1126,-3.1095,-3.099,-3.0893,-3.0804,-3.0699,-3.0634,-3.0502,-3.046,-3.0334,-3.0207,-3.007,-2.9924,-2.9741,-2.9528,-2.9088,-2.8505,-2.8217,-2.7742,-2.706,-2.633,-2.5394,-2.4394,-2.3487,-2.2602,-2.1753,-2.1068,-2.0429,-1.9823,-1.9466,-1.9081,-1.8661,-1.8176,-1.7628,-1.7016,-1.6384,-1.5811,-1.5186,-1.4469,-1.3808,-1.309,-1.205,-1.0793,-0.977,-0.8748,-0.7842,-0.6861,-0.5881,-0.4824,-0.3891,-0.3292,-0.2082,-0.0604,0.0873,0.2016,0.2887,0.3886,0.4945,0.5864,0.7123,0.8242,0.942,1.012,1.0863,1.1674,1.2478,1.326,1.4218,1.4996,1.5768,1.6208,1.6554,1.7072,1.7496,1.7626,1.8107,1.8893,1.9206,1.9216,1.9069,1.9081,1.9198,1.9192,1.9344,1.9488,1.954,1.9546,1.9656,1.9708,1.9759,1.9811,1.9907,2.0067,2.0112,2.0207,2.0416,2.0579,2.0673,2.0766,2.0908,2.1013,2.1111,2.1153,2.1097,2.1006,2.0914,2.0871,2.0977,2.0963,2.1006,2.1055,2.1111,2.1166,2.1173,2.1271,-3.1394,-3.1394,-3.1427,-3.1432,-3.1402,-3.1257,-3.1179,-3.1109,-3.1044,-3.0933,-3.0838,-3.0765,-3.0609,-3.0377,-3.0064,-2.9557,-2.8939,-2.8728,-2.8053,-2.7111,-2.6465,-2.5565,-2.4683,-2.3844,-2.3177,-2.2373,-2.1874,-2.1299,-2.0422,-1.9971,-1.9558,-1.9133,-1.8584,-1.7995,-1.7396,-1.6826,-1.6203,-1.5507,-1.4805,-1.4094,-1.3074,-1.1919,-1.0804,-0.9897,-0.9002,-0.7972,-0.6996,-0.5951,-0.4892,-0.4024,-0.3223,-0.2217,-0.0403,0.1412,0.2556,0.3223,0.4219,0.5345,0.6398,0.7517,0.8767,1.0091,1.0635,1.1432,1.2409,1.326,1.4218,1.5221,1.5926,1.6503,1.6944,1.739,1.7886,1.8298,1.8507,1.8808,1.9596,2.0066,2.0227,2.0093,1.9939,1.992,2.0003,1.9997,2.0188,2.0188,2.0245,2.0308,2.0365,2.0422,2.0472,2.0573,2.0673,2.0723,2.0815,2.0963,2.1068,2.116,2.1306,2.1444,2.1506,2.1609,2.1602,2.1636,2.165,2.1554,2.152,2.1471,2.1506,2.1554,2.1561,2.1568,2.1609,2.165,2.1698,-3.1054,-3.1115,-3.1681,-3.194,-3.1932,-3.1887,-3.175,-3.164,-3.1603,-3.1507,-3.1411,-3.1338,-3.1133,-3.0805,-3.0476,-2.9889,-2.9312,-2.8781,-2.807,-2.702,-2.6338,-2.5768,-2.5073,-2.4179,-2.368,-2.3046,-2.2603,-2.182,-2.1104,-2.0616,-2.0112,-1.9643,-1.9121,-1.8596,-1.799,-1.7385,-1.677,-1.614,-1.5454,-1.4332,-1.3009,-1.1973,-1.1115,-1.0161,-0.9198,-0.8102,-0.7195,-0.6084,-0.4959,-0.3892,-0.3156,-0.1947,-0.0269,0.188,0.2954,0.3688,0.4485,0.5547,0.6726,0.7837,0.9081,1.0397,1.108,1.1798,1.3009,1.4328,1.5337,1.6083,1.6662,1.7224,1.7771,1.8153,1.8632,1.9097,1.9438,1.9793,2.0404,2.0967,2.1133,2.1138,2.0957,2.0852,2.0845,2.0888,2.0888,2.0888,2.0894,2.1006,2.1062,2.1062,2.1118,2.1209,2.1264,2.1313,2.1354,2.1458,2.1602,2.1698,2.1834,2.1976,2.2023,2.2077,2.2084,2.2123,2.213,2.213,2.2077,2.203,2.2084,2.2084,2.2077,2.2084,2.2137,2.213,2.2116,-3.0859,-3.1533,-3.1733,-3.2047,-3.2417,-3.236,-3.23,-3.224,-3.2197,-3.2127,-3.1916,-3.1445,-3.0887,-3.036,-2.9938,-2.9736,-2.9386,-2.894,-2.7912,-2.6936,-2.6342,-2.5983,-2.5328,-2.4722,-2.4181,-2.3806,-2.3399,-2.2972,-2.2135,-2.1299,-2.0616,-2.0258,-1.9689,-1.918,-1.8638,-1.805,-1.7451,-1.6657,-1.5675,-1.4501,-1.3368,-1.2405,-1.1542,-1.0594,-0.9576,-0.8552,-0.7388,-0.6276,-0.515,-0.4019,-0.3153,-0.188,-0.0134,0.1812,0.3357,0.3818,0.488,0.6005,0.6992,0.8156,0.9457,1.0674,1.1611,1.27,1.4145,1.5391,1.6384,1.7051,1.7551,1.8098,1.8685,1.9103,1.9612,2.0029,2.0427,2.0739,2.1173,2.1746,2.2075,2.2026,2.1976,2.1908,2.1799,2.1759,2.1711,2.1623,2.1623,2.1732,2.1739,2.1739,2.1786,2.1786,2.1841,2.1848,2.1888,2.1983,2.213,2.2224,2.2296,2.2434,2.2526,2.2579,2.2579,2.2632,2.2678,2.2678,2.2579,2.2533,2.2487,2.2487,2.2533,2.254,2.2548,2.2586,2.2579,-3.0522,-3.1556,-3.1498,-3.181,-3.236,-3.2282,-3.2192,-3.2188,-3.2134,-3.2088,-3.1836,-3.1235,-3.0483,-2.9894,-2.9735,-2.9644,-2.9437,-2.8926,-2.7824,-2.6992,-2.6537,-2.629,-2.5788,-2.5245,-2.4926,-2.4528,-2.4207,-2.3779,-2.3165,-2.2406,-2.1609,-2.0908,-2.0403,-1.9843,-1.9279,-1.8691,-1.8087,-1.7051,-1.5958,-1.4914,-1.3979,-1.3017,-1.2089,-1.1153,-1.0148,-0.9002,-0.7774,-0.6666,-0.5542,-0.4285,-0.3153,-0.188,-0.0201,0.1745,0.3154,0.395,0.5145,0.6463,0.7507,0.8605,0.9758,1.1017,1.2488,1.3952,1.5313,1.6441,1.7224,1.7918,1.8566,1.9097,1.967,2.0124,2.0614,2.1002,2.1348,2.1657,2.1976,2.2434,2.2768,2.2826,2.2844,2.2979,2.2882,2.2701,2.2526,2.2402,2.241,2.2456,2.2449,2.2441,2.2441,2.2441,2.2441,2.2402,2.2395,2.2495,2.2601,2.2699,2.2814,2.2897,2.2986,2.3068,2.3061,2.312,2.3172,2.3165,2.3061,2.2972,2.2837,2.2889,2.2904,2.2949,2.3001,2.2994,2.2994,-2.9948,-3.0792,-3.1025,-3.1192,-3.1302,-3.1211,-3.122,-3.1329,-3.1229,-3.1128,-3.0977,-3.0644,-3.0505,-3.0252,-2.9897,-2.9532,-2.8956,-2.8667,-2.7935,-2.7286,-2.6876,-2.6666,-2.6298,-2.6016,-2.5726,-2.5411,-2.5036,-2.4584,-2.4127,-2.3679,-2.2711,-2.1786,-2.1217,-2.0677,-2.008,-1.9457,-1.8555,-1.7584,-1.6574,-1.5675,-1.4683,-1.373,-1.2822,-1.1845,-1.0713,-0.9506,-0.842,-0.7316,-0.6075,-0.4687,-0.3351,-0.2013,-0.047,0.1476,0.2883,0.4016,0.5536,0.6913,0.8208,0.9305,1.0398,1.1892,1.3593,1.5303,1.6451,1.7324,1.8093,1.8803,1.9542,2.0169,2.0677,2.1175,2.1677,2.2046,2.2363,2.2599,2.2839,2.3076,2.3392,2.3523,2.3645,2.3767,2.3852,2.3658,2.3297,2.3127,2.3038,2.3083,2.3127,2.3127,2.3083,2.3083,2.3031,2.2986,2.2889,2.2942,2.3046,2.3142,2.3216,2.3304,2.3443,2.348,2.3551,2.3559,2.361,2.3602,2.3551,2.3465,2.3377,2.3304,2.3268,2.3356,2.3356,2.3356,2.3356,-2.9823,-3.0152,-3.027,-3.0779,-3.1513,-3.1488,-3.146,-3.1449,-3.1418,-3.1066,-3.0506,-3.0394,-3.0035,-2.965,-2.9375,-2.9107,-2.8712,-2.8512,-2.8072,-2.7762,-2.747,-2.7246,-2.6993,-2.6757,-2.648,-2.6247,-2.5883,-2.5553,-2.5189,-2.4768,-2.4236,-2.3353,-2.2388,-2.1541,-2.0897,-2.0156,-1.9131,-1.828,-1.7462,-1.6631,-1.5733,-1.4674,-1.3661,-1.2696,-1.1578,-1.0385,-0.9314,-0.8156,-0.6789,-0.5406,-0.3875,-0.2409,-0.0872,0.1072,0.2747,0.4147,0.586,0.755,0.909,1.0119,1.1384,1.3511,1.5124,1.6451,1.7544,1.843,1.9224,1.9946,2.0687,2.1328,2.1778,2.2285,2.2741,2.3106,2.3405,2.3613,2.3819,2.4028,2.4161,2.4333,2.4446,2.455,2.4599,2.4639,2.4245,2.3847,2.3797,2.3746,2.3789,2.3789,2.3739,2.3696,2.3645,2.3566,2.3472,2.3472,2.348,2.3574,2.366,2.3746,2.3875,2.3967,2.4044,2.4044,2.4044,2.4036,2.3994,2.3959,2.3832,2.366,2.366,2.3746,2.3754,2.3718,2.3675,-2.9928,-2.995,-2.9946,-3.0436,-3.1186,-3.1173,-3.1173,-3.1152,-3.11,-3.0826,-3.0162,-3.0101,-2.9789,-2.9231,-2.9051,-2.8957,-2.8864,-2.8679,-2.8496,-2.8289,-2.8103,-2.7937,-2.771,-2.7473,-2.7251,-2.708,-2.679,-2.6455,-2.6108,-2.5786,-2.5384,-2.4689,-2.3792,-2.2959,-2.1852,-2.0933,-2.0004,-1.927,-1.8584,-1.7714,-1.6829,-1.5866,-1.4895,-1.3884,-1.2724,-1.1618,-1.0498,-0.9291,-0.7949,-0.6443,-0.486,-0.3272,-0.147,0.0468,0.254,0.4463,0.6367,0.8251,0.9898,1.1531,1.289,1.4993,1.645,1.7681,1.8708,1.9647,2.0561,2.1329,2.1997,2.2555,2.3069,2.3518,2.3926,2.4345,2.4458,2.4705,2.4878,2.5041,2.5096,2.5189,2.5297,2.5419,2.5419,2.5419,2.5051,2.4664,2.4477,2.4436,2.4436,2.4403,2.4377,2.4287,2.4238,2.4162,2.4044,2.4036,2.4029,2.4071,2.4162,2.4245,2.4336,2.4434,2.4515,2.4508,2.4508,2.4508,2.4467,2.4467,2.4261,2.4009,2.4051,2.4051,2.4051,2.4009,2.4009,-3.0215,-3.0292,-3.027,-3.0189,-3.0127,-2.9981,-3.003,-3.0173,-3.0142,-3.0042,-2.9918,-2.9829,-2.9784,-2.9644,-2.9505,-2.941,-2.9293,-2.9182,-2.9034,-2.8865,-2.8744,-2.8609,-2.841,-2.821,-2.7985,-2.7842,-2.7584,-2.7317,-2.7,-2.6746,-2.6438,-2.6102,-2.5378,-2.4467,-2.3179,-2.2172,-2.1253,-2.0512,-1.9953,-1.9058,-1.8151,-1.723,-1.6296,-1.5385,-1.4214,-1.3111,-1.2074,-1.0847,-0.9452,-0.7916,-0.6231,-0.459,-0.2939,-0.0267,0.2199,0.4728,0.7004,0.9234,1.1352,1.3399,1.5225,1.6546,1.7907,1.9114,2.016,2.1116,2.1995,2.279,2.3408,2.3963,2.4435,2.487,2.5215,2.546,2.5607,2.576,2.5955,2.6085,2.612,2.6137,2.6248,2.6351,2.6317,2.6212,2.5864,2.554,2.5261,2.5153,2.5114,2.5083,2.5013,2.4934,2.4887,2.4767,2.4687,2.4622,2.4622,2.4622,2.4655,2.4703,2.4791,2.4878,2.4926,2.4966,2.4997,2.4981,2.4997,2.5013,2.4831,2.4695,2.4377,2.4343,2.4302,2.4302,2.4385,-3.0402,-3.0423,-3.0433,-3.0414,-3.0342,-3.0222,-3.0167,-3.0161,-3.0171,-3.0144,-3.0127,-3.0095,-3.0056,-3.0018,-2.9949,-2.9858,-2.9801,-2.9647,-2.9513,-2.943,-2.9322,-2.9189,-2.9021,-2.8838,-2.8675,-2.8551,-2.8375,-2.8174,-2.7947,-2.767,-2.7455,-2.7142,-2.6612,-2.5489,-2.4192,-2.3229,-2.2588,-2.1923,-2.1315,-2.0578,-1.9641,-1.8772,-1.7941,-1.712,-1.5961,-1.4912,-1.3964,-1.2687,-1.1348,-0.9734,-0.8063,-0.6009,-0.3846,-0.106,0.2053,0.5013,0.7725,1.1415,1.4563,1.7185,1.8201,1.8867,1.9503,2.0746,2.1806,2.2687,2.3525,2.4197,2.485,2.5379,2.5807,2.6115,2.6429,2.6626,2.6764,2.6868,2.7028,2.7134,2.7191,2.7146,2.718,2.7163,2.7123,2.706,2.6787,2.648,2.6232,2.5872,2.575,2.5701,2.5672,2.5605,2.5522,2.5438,2.5323,2.5277,2.5161,2.5114,2.5122,2.5185,2.5232,2.5355,2.5424,2.5446,2.5492,2.55,2.5492,2.553,2.5538,2.537,2.5083,2.4815,2.4783,2.4791,2.4799,-3.0566,-3.0579,-3.0567,-3.0587,-3.0607,-3.0462,-3.0394,-3.0394,-3.0394,-3.0414,-3.0413,-3.0402,-3.0371,-3.0309,-3.0265,-3.0218,-3.0183,-3.0077,-2.9975,-2.9912,-2.9833,-2.9708,-2.9558,-2.943,-2.9315,-2.9202,-2.9077,-2.8918,-2.8723,-2.8573,-2.8317,-2.8005,-2.7626,-2.6868,-2.574,-2.4924,-2.4038,-2.3435,-2.2856,-2.2281,-2.145,-2.0633,-1.9813,-1.9013,-1.8035,-1.7049,-1.6038,-1.4883,-1.3657,-1.2003,-1.0027,-0.7624,-0.4833,-0.1573,0.1964,0.5735,1.0632,1.4506,1.8138,2.0462,2.1279,2.1806,2.2026,2.26,2.3557,2.4445,2.5155,2.5811,2.6327,2.6736,2.7108,2.7397,2.7542,2.7754,2.7835,2.7942,2.8021,2.8117,2.8109,2.8067,2.804,2.7986,2.7912,2.7855,2.7723,2.746,2.7194,2.6838,2.6445,2.6358,2.6305,2.6235,2.6129,2.6005,2.5933,2.5876,2.5795,2.5639,2.5684,2.5738,2.5775,2.5885,2.5921,2.5929,2.5957,2.5985,2.6002,2.6046,2.603,2.5957,2.5766,2.5505,2.5293,2.5224,2.5224,-3.0701,-3.0706,-3.0704,-3.0693,-3.0693,-3.0615,-3.06,-3.059,-3.059,-3.059,-3.06,-3.0586,-3.0559,-3.0562,-3.0527,-3.0466,-3.0422,-3.0394,-3.0356,-3.0292,-3.0206,-3.0129,-3.005,-2.9937,-2.9834,-2.9766,-2.9649,-2.9507,-2.9401,-2.9241,-2.904,-2.8832,-2.8603,-2.8112,-2.7427,-2.6659,-2.5704,-2.503,-2.4477,-2.3907,-2.3221,-2.2577,-2.1904,-2.1158,-2.0371,-1.951,-1.86,-1.7632,-1.6447,-1.4792,-1.2949,-0.9565,-0.6091,-0.2391,0.2631,0.8554,1.4704,1.8394,2.1228,2.3193,2.4369,2.4811,2.4746,2.5044,2.5428,2.617,2.6753,2.7256,2.77,2.8085,2.8443,2.8557,2.8698,2.8778,2.8845,2.8927,2.8998,2.9016,2.8975,2.8931,2.887,2.8809,2.8686,2.8627,2.8518,2.8355,2.8085,2.7847,2.7442,2.7008,2.6952,2.6856,2.6749,2.6607,2.6548,2.6488,2.6428,2.6307,2.6315,2.6367,2.641,2.6401,2.6428,2.6462,2.6436,2.6479,2.659,2.6556,2.6479,2.641,2.6367,2.6093,2.5795,2.5663,2.5634,-3.0761,-3.0765,-3.0767,-3.0769,-3.0771,-3.0741,-3.0753,-3.0749,-3.0742,-3.0746,-3.0755,-3.0681,-3.0661,-3.0651,-3.0663,-3.0622,-3.0609,-3.0608,-3.0615,-3.0558,-3.0474,-3.0438,-3.0394,-3.0318,-3.0236,-3.0183,-3.0095,-3.003,-2.9949,-2.9837,-2.9712,-2.9557,-2.9388,-2.9205,-2.8885,-2.8443,-2.7486,-2.6673,-2.6109,-2.5601,-2.5106,-2.4491,-2.3925,-2.3356,-2.2728,-2.1994,-2.1307,-2.0556,-1.9447,-1.8184,-1.6256,-1.3235,-0.9474,-0.4082,0.2194,1.3369,1.8563,2.2131,2.4174,2.5617,2.6627,2.7322,2.7368,2.7422,2.7589,2.7701,2.8191,2.8487,2.8764,2.9032,2.9167,2.9289,2.9422,2.9484,2.9522,2.9575,2.9622,2.9632,2.9589,2.9548,2.9512,2.9444,2.9345,2.9277,2.9181,2.9112,2.8946,2.8722,2.8373,2.7903,2.7575,2.7482,2.737,2.7251,2.7144,2.7089,2.7051,2.6971,2.6995,2.6995,2.6963,2.6963,2.6995,2.6987,2.7019,2.71,2.7221,2.7149,2.6995,2.7021,2.6956,2.6641,2.6367,2.6235,2.6101,-3.0765,-3.0763,-3.0751,-3.0753,-3.0759,-3.0741,-3.072,-3.0714,-3.0751,-3.0752,-3.0761,-3.0702,-3.0701,-3.0692,-3.0693,-3.0693,-3.0693,-3.0679,-3.0683,-3.0662,-3.0642,-3.0611,-3.0585,-3.0569,-3.0522,-3.0477,-3.0431,-3.0358,-3.033,-3.0259,-3.0143,-3.007,-2.9994,-2.9902,-2.9698,-2.9473,-2.9112,-2.835,-2.7738,-2.7206,-2.6744,-2.6326,-2.5941,-2.5527,-2.4971,-2.4497,-2.3995,-2.3325,-2.2536,-2.16,-1.9781,-1.7448,-1.207,-0.4934,0.6274,1.6795,2.1877,2.4485,2.624,2.7201,2.8007,2.8512,2.8851,2.8751,2.8734,2.8788,2.9087,2.9344,2.9564,2.9751,2.9836,2.991,2.9981,3.0057,3.0088,3.011,3.0137,3.0147,3.0121,3.0085,3.0027,2.9966,2.9912,2.9856,2.9794,2.9664,2.9555,2.9411,2.9073,2.8651,2.8287,2.8085,2.7993,2.7909,2.7805,2.771,2.7631,2.7572,2.7572,2.7551,2.7526,2.7526,2.7508,2.7547,2.7595,2.7633,2.7663,2.7633,2.7526,2.7543,2.7522,2.7281,2.6987,2.6741,2.6607,-3.0685,-3.0672,-3.0672,-3.0666,-3.0675,-3.0613,-3.0571,-3.0566,-3.0623,-3.0673,-3.0679,-3.0679,-3.0665,-3.0665,-3.066,-3.0657,-3.0655,-3.0645,-3.0645,-3.0684,-3.0637,-3.0624,-3.0664,-3.0692,-3.062,-3.0644,-3.0628,-3.0528,-3.0553,-3.0489,-3.0403,-3.0414,-3.0383,-3.0296,-3.0198,-3.0139,-2.9872,-2.9599,-2.9026,-2.8539,-2.8246,-2.8012,-2.7825,-2.7503,-2.7156,-2.679,-2.6417,-2.5992,-2.5516,-2.4621,-2.3367,-2.1322,-1.2817,-0.3555,0.927,1.8084,2.3279,2.5736,2.7029,2.7835,2.8239,2.8601,2.8874,2.8636,2.8518,2.9061,2.9347,2.9449,2.9565,2.9621,2.9673,2.9725,2.9808,2.9898,2.9962,3.004,3.0107,3.0175,3.0267,3.0254,3.0282,3.0238,3.0221,3.0151,3.0141,3.0092,3.0043,2.9956,2.9738,2.9336,2.903,2.8727,2.8591,2.8508,2.8391,2.8305,2.8228,2.8183,2.8148,2.812,2.8111,2.8093,2.8046,2.8074,2.8102,2.8046,2.8037,2.801,2.801,2.7954,2.7934,2.7867,2.7654,2.7374,2.7141,-3.0593,-3.0537,-3.0545,-3.0538,-3.0482,-3.0453,-3.0412,-3.0378,-3.0333,-3.0404,-3.0529,-3.0537,-3.0539,-3.0529,-3.0535,-3.0523,-3.0521,-3.0522,-3.0542,-3.0545,-3.0538,-3.0545,-3.0618,-3.0597,-3.0609,-3.0629,-3.0618,-3.0579,-3.0545,-3.0533,-3.0549,-3.0534,-3.0506,-3.0439,-3.038,-3.035,-3.0289,-3.0178,-2.9932,-2.9494,-2.9194,-2.9136,-2.8992,-2.8815,-2.8573,-2.8407,-2.811,-2.7932,-2.7618,-2.7119,-2.6193,-2.0611,-1.1299,-0.1354,0.8136,1.6812,2.2818,2.5328,2.6526,2.7099,2.7405,2.7423,2.7435,2.7448,2.7791,2.8721,2.9197,2.9212,2.9306,2.9321,2.9365,2.9413,2.9495,2.9604,2.9736,2.9851,2.9976,3.0149,3.0292,3.0377,3.0417,3.0428,3.0417,3.0437,3.0457,3.0425,3.0395,3.0336,3.0248,2.9963,2.9716,2.9427,2.9193,2.9086,2.8977,2.8879,2.8787,2.8735,2.8702,2.8676,2.8691,2.8599,2.8547,2.8583,2.8592,2.854,2.8515,2.8516,2.8491,2.8412,2.836,2.829,2.8255,2.8019,2.7751,-3.0472,-3.0413,-3.0346,-3.0288,-3.0241,-3.0222,-3.0178,-3.0071,-3.0008,-3.0047,-3.0161,-3.0261,-3.0327,-3.0317,-3.0309,-3.029,-3.029,-3.0353,-3.0335,-3.0345,-3.0346,-3.0366,-3.0403,-3.0411,-3.0418,-3.0422,-3.0424,-3.0413,-3.0364,-3.0372,-3.0358,-3.0363,-3.035,-3.0292,-3.0251,-3.0244,-3.0212,-3.016,-3.0124,-2.9926,-2.9677,-2.9685,-2.9712,-2.9634,-2.9514,-2.9373,-2.9271,-2.9082,-2.8839,-2.7964,-2.666,-1.952,-1.0879,-0.2636,0.6051,1.4436,2.0593,2.4129,2.4629,2.4981,2.5348,2.5171,2.5118,2.4829,2.4971,2.5799,2.6888,2.7052,2.7893,2.8041,2.8163,2.8233,2.8445,2.8593,2.8839,2.9032,2.9349,2.9645,2.9866,3.0066,3.0147,3.0271,3.0292,3.0407,3.0442,3.0542,3.0545,3.0523,3.0472,3.0435,3.0231,3.0061,2.9775,2.9627,2.9514,2.941,2.9323,2.9282,2.9221,2.9165,2.9111,2.9051,2.9025,2.9016,2.9016,2.9002,2.898,2.8966,2.8938,2.8855,2.8785,2.8707,2.8651,2.861,2.8378,-3.0289,-3.0222,-3.0109,-3.0003,-2.9946,-2.9928,-2.9853,-2.9759,-2.9669,-2.9634,-2.9643,-2.9861,-2.9964,-3.0032,-3.0008,-2.9979,-2.9969,-2.9994,-3.0013,-3.0028,-3.0047,-3.0031,-3.0048,-3.0084,-3.0059,-3.0062,-3.0059,-3.0014,-2.9962,-2.9943,-2.9924,-2.9962,-2.992,-2.9859,-2.984,-2.9802,-2.9706,-2.9621,-2.9551,-2.9522,-2.965,-2.9885,-2.9873,-2.9878,-2.9832,-2.9718,-2.9585,-2.9396,-2.9196,-2.7908,-2.589,-1.9177,-1.2039,-0.4645,0.3173,1.1271,1.7905,2.0155,2.0903,2.0973,2.1515,2.184,2.1996,2.2083,2.2148,2.2791,2.3882,2.4721,2.5554,2.6524,2.661,2.6906,2.7135,2.7503,2.7778,2.8158,2.8581,2.8997,2.9276,2.9548,2.9774,2.9913,3.0092,3.0221,3.0372,3.0487,3.057,3.0577,3.0566,3.054,3.0443,3.0366,3.0224,3.0091,2.9989,2.987,2.9769,2.9742,2.9672,2.9596,2.9533,2.9457,2.9418,2.9398,2.9378,2.9378,2.9367,2.9357,2.9325,2.9275,2.9178,2.9104,2.9038,2.898,2.8929,-2.9965,-2.9815,-2.9784,-2.9696,-2.9597,-2.9542,-2.9494,-2.9464,-2.9346,-2.9275,-2.9214,-2.9205,-2.935,-2.9678,-2.9633,-2.9588,-2.9569,-2.9587,-2.956,-2.9532,-2.955,-2.9577,-2.9585,-2.9565,-2.9584,-2.9548,-2.9519,-2.9493,-2.9336,-2.9317,-2.9345,-2.9326,-2.9261,-2.9195,-2.909,-2.9033,-2.8937,-2.8838,-2.8716,-2.8621,-2.8672,-2.8962,-2.9469,-2.9436,-2.9273,-2.9127,-2.8943,-2.8676,-2.8338,-2.7244,-2.4866,-1.9427,-1.3594,-0.7106,-0.0093,0.6366,1.3095,1.56,1.6215,1.6059,1.6356,1.8125,1.8285,1.8596,1.879,1.9214,2.0106,2.0781,2.1925,2.3803,2.4315,2.487,2.5222,2.5899,2.6362,2.6935,2.7437,2.7894,2.8284,2.8664,2.9032,2.9259,2.9531,2.9707,2.9947,3.0084,3.0274,3.0302,3.0421,3.05,3.0569,3.0556,3.0503,3.0508,3.0385,3.0248,3.0148,3.0136,3.0088,2.9985,2.9895,2.9845,2.9796,2.9751,2.9755,2.9774,2.9767,2.9704,2.9661,2.9606,2.9551,2.9485,2.9416,2.9357,2.9305]},{"header":{"parameterUnit":"m.s-1","parameterCategory":1,"la1":31.0,"la2":29.5877,"lo1":-88.7671,"lo2":-86.6584,"dy":0.0162,"dx":0.0185,"nx":115,"ny":88,"refTime":"2023-06-02T06:00:00:Z","depth":0,"parameterNumber":3,"parameterNumberName":"V-component_of_WINDS"},"data":[0.0,0.0,0.0,0.0,0.0,0.0,0.0,0.0,0.0,0.0,0.0,0.0,0.0,0.0,0.0,0.0,0.0,0.0,0.0,0.0,0.0,0.0,0.0,0.0,0.0,0.0,0.0,0.0,0.0,0.0,0.0,0.0,0.0,0.0,0.0,0.0,0.0,0.0,0.0,0.0,0.0,0.0,0.0,0.0,0.0,0.0,0.0,0.0,0.0,0.0,0.0,0.0,0.0,0.0,0.0,0.0,0.0,0.0,0.0,0.0,0.0,0.0,0.0,0.0,0.0,0.0,0.0,0.0,0.0,0.0,0.0,0.0,0.0,0.0,0.0,0.0,0.0,0.0,0.0,0.0,0.0,0.0,0.0,0.0,0.0,0.0,0.0,0.0,0.0,0.0,0.0,0.0,0.0,0.0,0.0,0.0,0.0,0.0,0.0,0.0,0.0,0.0,0.0,0.0,0.0,0.0,0.0,0.0,0.0,0.0,0.0,0.0,0.0,0.0,0.0,0.0,0.0,0.0,0.0,0.0,0.0,0.0,0.0,0.0,0.0,0.0,0.0,0.0,0.0,0.0,0.0,0.0,0.0,0.0,0.0,0.0,0.0,0.0,0.0,0.0,0.0,0.0,0.0,0.0,0.0,0.0,0.0,0.0,0.0,0.0,0.0,0.0,0.0,0.0,0.0,0.0,0.0,0.0,0.0,0.0,0.0,0.0,0.0,0.0,0.0,0.0,0.0,0.0,0.0,0.0,0.0,0.0,0.0,0.0,0.0,0.0,0.0,0.0,0.0,0.0,0.0,0.0,0.0,0.0,0.0,0.0,0.0,0.0,0.0,0.0,0.0,0.0,0.0,0.0,0.0,0.0,0.0,0.0,0.0,0.0,0.0,0.0,0.0,0.0,0.0,0.0,0.0,0.0,0.0,0.0,0.0,0.0,0.0,0.0,0.0,0.0,0.0,0.0,0.0,0.0,0.0,0.0,0.0,0.0,0.0,0.0,0.0,0.0,0.0,0.0,0.0,0.0,0.0,0.0,0.0,0.0,0.0,0.0,0.0,0.0,0.0,0.0,0.0,0.0,0.0,0.0,0.0,0.0,0.0,0.0,0.0,0.0,0.0,0.0,0.0,0.0,0.0,0.0,0.0,0.0,0.0,0.0,0.0,0.0,0.0,0.0,0.0,0.0,0.0,0.0,0.0,0.0,0.0,0.0,0.0,0.0,0.0,0.0,0.0,0.0,0.0,0.0,0.0,0.0,0.0,0.0,0.0,0.0,0.0,0.0,0.0,0.0,0.0,0.0,0.0,0.0,0.0,0.0,0.0,0.0,0.0,0.0,0.0,0.0,0.0,0.0,0.0,0.0,0.0,0.0,0.0,0.0,0.0,0.0,0.0,0.0,0.0,0.0,0.0,0.0,0.0,0.0,0.0,0.0,0.0,0.0,0.0,0.0,0.0,0.0,0.0,0.0,0.0,0.0,0.0,0.0,0.0,0.0,0.0,0.0,0.0,0.0,0.0,0.0,0.0,0.0,0.0,0.0,0.0,0.0,0.0,0.0,0.0,0.0,0.0,0.0,0.0,0.0,0.0,0.0,0.0,0.0,0.0,0.0,0.0,0.0,0.0,0.0,0.0,0.0,0.0,0.0,0.0,0.0,0.0,0.0,0.0,0.0,0.0,0.0,0.0,0.0,0.0,0.0,0.0,0.0,0.0,0.0,0.0,0.0,0.0,0.0,0.0,0.0,0.0,0.0,0.0,0.0,0.0,0.0,0.0,0.0,0.0,0.0,0.0,0.0,0.0,0.0,0.0,0.0,0.0,0.0,0.0,0.0,0.0,0.0,0.0,0.0,0.0,0.0,0.0,0.0,0.0,0.0,0.0,0.0,0.0,0.0,0.0,0.0,0.0,0.0,0.0,0.0,0.0,0.0,0.0,0.0,0.0,0.0,0.0,0.0,0.0,0.0,0.0,0.0,0.0,0.0,0.0,0.0,0.0,0.0,0.0,0.0,0.0,0.0,0.0,0.0,0.0,0.0,0.0,0.0,0.0,0.0,0.0,0.0,0.0,0.0,0.0,0.0,0.0,0.0,0.0,0.0,0.0,0.0,0.0,0.0,0.0,0.0,0.0,0.0,0.0,0.0,0.0,0.0,0.0,0.0,0.0,0.0,0.0,0.0,0.0,0.0,0.0,0.0,0.0,0.0,0.0,0.0,0.0,0.0,0.0,0.0,0.0,0.0,0.0,0.0,0.0,0.0,0.0,0.0,0.0,0.0,0.0,0.0,0.0,0.0,0.0,0.0,0.0,0.0,0.0,0.0,0.0,0.0,0.0,0.0,0.0,0.0,0.0,0.0,0.0,0.0,0.0,0.0,0.0,0.0,0.0,0.0,0.0,0.0,0.0,0.0,0.0,0.0,0.0,0.0,0.0,0.0,0.0,0.0,0.0,0.0,0.0,0.0,0.0,0.0,0.0,0.0,0.0,0.0,0.0,0.0,0.0,0.0,0.0,0.0,0.0,0.0,0.0,0.0,0.0,0.0,0.0,0.0,0.0,0.0,0.0,0.0,0.0,0.0,0.0,0.0,0.0,0.0,0.0,0.0,0.0,0.0,0.0,0.0,0.0,0.0,0.0,0.0,0.0,0.0,0.0,0.0,0.0,0.0,0.0,0.0,0.0,0.0,0.0,0.0,0.0,0.0,0.0,0.0,0.0,0.0,0.0,0.0,0.0,0.0,0.0,0.0,0.0,0.0,0.0,0.0,0.0,0.0,0.0,0.0,0.0,0.0,0.0,0.0,0.0,0.0,0.0,0.0,0.0,0.0,0.0,0.0,0.0,0.0,0.0,0.0,0.0,0.0,0.0,0.0,0.0,0.0,0.0,0.0,0.0,0.0,0.0,0.0,0.0,0.0,0.0,0.0,0.0,0.0,0.0,0.0,0.0,0.0,0.0,0.0,0.0,0.0,0.0,0.0,0.0,0.0,0.0,0.0,0.0,0.0,0.0,0.0,0.0,0.0,0.0,0.0,0.0,0.0,0.0,0.0,0.0,0.0,0.0,0.0,0.0,0.0,0.0,0.0,0.0,0.0,0.0,0.0,0.0,0.0,0.0,0.0,0.0,0.0,0.0,0.0,0.0,0.0,0.0,0.0,0.0,0.0,0.0,0.0,0.0,0.0,0.0,0.0,0.0,0.0,0.0,0.0,0.0,0.0,0.0,0.0,0.0,0.0,0.0,0.0,0.0,0.0,0.0,0.0,0.0,0.0,0.0,0.0,0.0,0.0,0.0,0.0,0.0,0.0,0.0,0.0,0.0,0.0,0.0,0.0,0.0,0.0,0.0,0.0,0.0,0.0,0.0,0.0,0.0,0.0,0.0,0.0,0.0,0.0,0.0,0.0,0.0,0.0,0.0,0.0,0.0,0.0,0.0,0.0,0.0,0.0,0.0,0.0,0.0,0.0,0.0,0.0,0.0,0.0,0.0,0.0,0.0,0.0,0.0,0.0,0.0,0.0,0.0,0.0,0.0,0.0,0.0,0.0,0.0,0.0,0.0,0.0,0.0,0.0,0.0,0.0,0.0,0.0,0.0,0.0,0.0,0.0,0.0,0.0,0.0,0.0,0.0,0.0,0.0,0.0,0.0,0.0,0.0,0.0,0.0,0.0,0.0,0.0,0.0,0.0,0.0,0.0,0.0,0.0,0.0,0.0,0.0,0.0,0.0,0.0,0.0,0.0,0.0,0.0,0.0,0.0,0.0,0.0,0.0,0.0,0.0,0.0,0.0,0.0,0.0,0.0,0.0,0.0,0.0,0.0,0.0,0.0,0.0,0.0,0.0,0.0,0.0,0.0,0.0,0.0,0.0,0.0,0.0,0.0,0.0,0.0,0.0,0.0,0.0,0.0,0.0,0.0,0.0,0.0,0.0,0.0,0.0,0.0,0.0,0.0,0.0,0.0,0.0,0.0,0.0,0.0,0.0,0.0,0.0,0.0,0.0,0.0,0.0,0.0,0.0,0.0,0.0,0.0,0.0,0.0,0.0,0.0,0.0,0.0,0.0,0.0,0.0,0.0,0.0,0.0,0.0,0.0,0.0,0.0,0.0,0.0,0.0,0.0,0.0,0.0,0.0,0.0,0.0,0.0,0.0,0.0,0.0,0.0,0.0,0.0,0.0,0.0,0.0,0.0,0.0,0.0,0.0,0.0,0.0,0.0,0.0,0.0,0.0,0.0,0.0,0.0,0.0,0.0,0.0,0.0,0.0,0.0,0.0,0.0,-1.5973,0.0,0.0,0.0,0.0,0.0,0.0,0.0,0.0,0.0,0.0,0.0,0.0,0.0,0.0,0.0,0.0,0.0,0.0,0.0,0.0,0.0,0.0,0.0,0.0,0.0,0.0,0.0,0.0,0.0,0.0,0.0,0.0,0.0,0.0,0.0,0.0,0.0,0.0,0.0,0.0,0.0,0.0,0.0,0.0,0.0,0.0,0.0,0.0,0.0,0.0,0.0,0.0,0.0,0.0,0.0,0.0,0.0,0.0,0.0,0.0,0.0,0.0,0.0,0.0,0.0,0.0,0.0,0.0,0.0,0.0,0.0,0.0,0.0,0.0,0.0,0.0,0.0,0.0,0.0,0.0,0.0,0.0,0.0,0.0,0.0,0.0,0.0,0.0,0.0,0.0,0.0,0.0,0.0,0.0,0.0,0.0,0.0,0.0,0.0,0.0,0.0,0.0,0.0,0.0,0.0,0.0,0.0,0.0,0.0,0.0,-1.8547,-1.8592,-1.7413,-1.6758,-1.6742,0.0,0.0,0.0,0.0,0.0,0.0,0.0,0.0,0.0,0.0,0.0,0.0,0.0,0.0,0.0,0.0,0.0,0.0,0.0,0.0,0.0,0.0,0.0,0.0,0.0,0.0,0.0,0.0,0.0,0.0,0.0,0.0,0.0,0.0,0.0,0.0,0.0,0.0,0.0,0.0,0.0,0.0,0.0,0.0,0.0,0.0,0.0,0.0,0.0,0.0,0.0,0.0,0.0,0.0,0.0,0.0,0.0,0.0,0.0,0.0,0.0,0.0,0.0,0.0,0.0,0.0,0.0,0.0,0.0,0.0,0.0,0.0,0.0,0.0,0.0,0.0,0.0,0.0,0.0,0.0,0.0,0.0,0.0,0.0,0.0,0.0,0.0,0.0,0.0,0.0,0.0,0.0,0.0,0.0,0.0,0.0,0.0,0.0,0.0,0.0,0.0,0.0,0.0,0.0,0.0,0.0,0.0,0.0,0.0,0.0,0.0,0.0,-1.8273,-1.7235,-1.6838,0.0,0.0,0.0,0.0,0.0,0.0,0.0,0.0,0.0,0.0,0.0,0.0,0.0,0.0,0.0,0.0,0.0,0.0,0.0,0.0,0.0,0.0,0.0,0.0,0.0,0.0,0.0,0.0,0.0,0.0,0.0,0.0,0.0,0.0,0.0,0.0,0.0,0.0,0.0,0.0,0.0,0.0,0.0,0.0,0.0,0.0,0.0,0.0,0.0,0.0,0.0,0.0,0.0,0.0,0.0,0.0,0.0,0.0,0.0,0.0,0.0,0.0,0.0,0.0,0.0,0.0,0.0,0.0,0.0,0.0,0.0,0.0,0.0,0.0,0.0,0.0,0.0,0.0,0.0,0.0,0.0,0.0,0.0,0.0,0.0,0.0,0.0,0.0,0.0,0.0,0.0,0.0,0.0,0.0,0.0,0.0,0.0,0.0,0.0,0.0,0.0,0.0,0.0,0.0,0.0,0.0,0.0,0.0,0.0,0.0,-1.9917,-1.9963,-1.8364,0.0,-1.5342,0.0,0.0,0.0,0.0,0.0,0.0,0.0,0.0,0.0,0.0,0.0,0.0,0.0,0.0,0.0,0.0,0.0,0.0,0.0,0.0,0.0,0.0,0.0,0.0,0.0,0.0,0.0,0.0,0.0,0.0,0.0,0.0,0.0,0.0,0.0,0.0,0.0,0.0,0.0,0.0,0.0,0.0,0.0,0.0,0.0,0.0,0.0,0.0,0.0,0.0,0.0,0.0,0.0,0.0,0.0,0.0,0.0,0.0,0.0,0.0,0.0,0.0,0.0,0.0,0.0,0.0,0.0,0.0,0.0,0.0,0.0,0.0,0.0,0.0,0.0,0.0,0.0,0.0,0.0,0.0,0.0,0.0,0.0,0.0,0.0,0.0,0.0,0.0,0.0,0.0,0.0,0.0,0.0,0.0,0.0,0.0,0.0,0.0,0.0,0.0,0.0,0.0,0.0,0.0,0.0,0.0,0.0,0.0,0.0,0.0,-1.9989,-2.0059,-1.8429,-1.6777,0.0,0.0,0.0,0.0,0.0,0.0,0.0,0.0,0.0,0.0,0.0,0.0,0.0,0.0,0.0,0.0,0.0,0.0,0.0,0.0,0.0,0.0,0.0,0.0,0.0,0.0,0.0,0.0,0.0,0.0,0.0,0.0,0.0,0.0,0.0,0.0,0.0,0.0,0.0,0.0,0.0,0.0,0.0,0.0,0.0,0.0,0.0,0.0,0.0,0.0,0.0,0.0,0.0,0.0,0.0,0.0,0.0,0.0,0.0,0.0,0.0,0.0,0.0,0.0,0.0,0.0,0.0,0.0,0.0,0.0,0.0,0.0,0.0,0.0,0.0,0.0,0.0,0.0,0.0,0.0,0.0,0.0,0.0,0.0,0.0,0.0,0.0,0.0,0.0,0.0,0.0,0.0,0.0,0.0,0.0,0.0,0.0,0.0,0.0,0.0,0.0,0.0,0.0,0.0,0.0,0.0,0.0,0.0,0.0,0.0,-1.9926,-1.9869,-1.9407,-1.8265,-1.6833,-1.5168,0.0,0.0,0.0,0.0,0.0,0.0,0.0,0.0,0.0,0.0,0.0,0.0,0.0,0.0,0.0,0.0,0.0,0.0,0.0,0.0,0.0,0.0,0.0,0.0,0.0,0.0,0.0,0.0,0.0,0.0,0.0,0.0,0.0,0.0,0.0,0.0,0.0,0.0,0.0,0.0,0.0,0.0,0.0,0.0,0.0,0.0,0.0,0.0,0.0,0.0,0.0,0.0,0.0,0.0,0.0,0.0,0.0,0.0,0.0,0.0,0.0,0.0,0.0,0.0,0.0,0.0,0.0,0.0,0.0,0.0,0.0,0.0,0.0,0.0,0.0,0.0,0.0,0.0,0.0,0.0,0.0,0.0,0.0,0.0,0.0,0.0,0.0,0.0,0.0,0.0,0.0,0.0,0.0,0.0,0.0,0.0,0.0,0.0,0.0,0.0,0.0,0.0,0.0,0.0,0.0,0.0,0.0,0.0,0.0,-1.9767,-1.9428,-1.792,-1.7734,-1.691,0.0,0.0,0.0,0.0,0.0,0.0,0.0,0.0,0.0,0.0,0.0,0.0,0.0,0.0,0.0,0.0,0.0,0.0,0.0,0.0,0.0,0.0,0.0,0.0,0.0,0.0,0.0,0.0,0.0,0.0,0.0,0.0,0.0,0.0,0.0,0.0,0.0,0.0,0.0,0.0,0.0,0.0,0.0,0.0,0.0,0.0,0.0,0.0,0.0,0.0,0.0,0.0,0.0,0.0,0.0,0.0,0.0,0.0,0.0,0.0,0.0,0.0,0.0,0.0,0.0,0.0,0.0,0.0,0.0,0.0,0.0,0.0,0.0,0.0,0.0,0.0,0.0,0.0,0.0,0.0,0.0,0.0,0.0,0.0,0.0,0.0,0.0,0.0,0.0,0.0,0.0,0.0,0.0,0.0,0.0,0.0,0.0,0.0,0.0,0.0,0.0,0.0,0.0,0.0,0.0,0.0,0.0,0.0,0.0,-1.895,-1.9815,-1.9458,-1.786,-1.7763,-1.696,0.0,0.0,0.0,0.0,0.0,0.0,0.0,0.0,0.0,0.0,0.0,0.0,0.0,0.0,0.0,0.0,0.0,0.0,0.0,0.0,0.0,0.0,0.0,0.0,0.0,0.0,0.0,0.0,0.0,0.0,0.0,0.0,0.0,0.0,0.0,0.0,0.0,0.0,0.0,0.0,0.0,0.0,0.0,0.0,0.0,0.0,0.0,0.0,0.0,0.0,0.0,0.0,0.0,0.0,0.0,0.0,0.0,0.0,0.0,0.0,0.0,0.0,0.0,0.0,0.0,0.0,0.0,0.0,0.0,0.0,0.0,0.0,0.0,0.0,0.0,0.0,0.0,0.0,0.0,0.0,0.0,0.0,0.0,0.0,0.0,0.0,0.0,0.0,0.0,0.0,0.0,0.0,0.0,0.0,0.0,0.0,0.0,0.0,0.0,0.0,0.0,0.0,0.0,0.0,0.0,0.0,0.0,0.0,0.0,-1.9394,0.0,-1.9527,0.0,-1.7843,-1.7011,0.0,0.0,0.0,0.0,0.0,0.0,0.0,0.0,0.0,0.0,0.0,0.0,0.0,0.0,0.0,0.0,0.0,0.0,0.0,0.0,0.0,0.0,0.0,0.0,0.0,0.0,0.0,0.0,0.0,0.0,0.0,0.0,0.0,0.0,0.0,0.0,0.0,0.0,0.0,0.0,0.0,0.0,0.0,0.0,0.0,0.0,0.0,0.0,0.0,0.0,0.0,0.0,0.0,0.0,0.0,0.0,0.0,0.0,0.0,0.0,0.0,0.0,0.0,0.0,0.0,0.0,0.0,0.0,0.0,0.0,0.0,0.0,0.0,0.0,0.0,0.0,0.0,0.0,0.0,0.0,0.0,0.0,0.0,0.0,0.0,0.0,0.0,0.0,0.0,0.0,0.0,0.0,0.0,0.0,0.0,0.0,0.0,0.0,0.0,0.0,0.0,0.0,0.0,0.0,0.0,0.0,0.0,0.0,-1.8621,-2.0287,-2.0381,-1.9609,-1.7964,-1.7906,-1.7078,0.0,0.0,0.0,0.0,0.0,0.0,0.0,0.0,0.0,0.0,0.0,0.0,0.0,0.0,0.0,0.0,0.0,0.0,0.0,0.0,0.0,0.0,0.0,0.0,0.0,0.0,0.0,0.0,0.0,0.0,0.0,0.0,0.0,0.0,0.0,0.0,0.0,0.0,0.0,0.0,0.0,0.0,0.0,0.0,0.0,0.0,0.0,0.0,0.0,0.0,0.0,0.0,0.0,0.0,0.0,0.0,0.0,0.0,0.0,0.0,0.0,0.0,0.0,0.0,0.0,0.0,0.0,0.0,0.0,0.0,0.0,0.0,0.0,0.0,0.0,0.0,0.0,0.0,0.0,0.0,0.0,0.0,0.0,0.0,0.0,0.0,0.0,0.0,0.0,0.0,0.0,0.0,0.0,0.0,0.0,0.0,0.0,0.0,0.0,0.0,0.0,0.0,0.0,0.0,0.0,0.0,0.0,0.0,0.0,-1.9561,-2.0162,-1.9656,-1.8005,-1.7917,-1.7093,0.0,0.0,0.0,0.0,0.0,0.0,0.0,0.0,0.0,0.0,0.0,0.0,0.0,0.0,0.0,0.0,0.0,0.0,0.0,0.0,0.0,0.0,0.0,0.0,0.0,0.0,0.0,0.0,0.0,0.0,0.0,0.0,0.0,0.0,0.0,0.0,0.0,0.0,0.0,0.0,0.0,0.0,0.0,0.0,0.0,0.0,0.0,0.0,0.0,0.0,0.0,0.0,0.0,0.0,0.0,0.0,0.0,0.0,0.0,0.0,0.0,0.0,0.0,0.0,0.0,0.0,0.0,0.0,0.0,0.0,0.0,0.0,0.0,0.0,0.0,0.0,0.0,0.0,0.0,0.0,0.0,0.0,0.0,0.0,0.0,0.0,0.0,0.0,0.0,0.0,0.0,0.0,0.0,0.0,0.0,0.0,0.0,0.0,0.0,0.0,0.0,0.0,0.0,0.0,0.0,0.0,0.0,0.0,0.0,-1.9706,-2.0225,-1.9834,-1.8459,-1.8102,-1.7265,-1.5815,0.0,0.0,0.0,0.0,0.0,0.0,0.0,0.0,0.0,0.0,0.0,0.0,0.0,0.0,0.0,0.0,0.0,0.0,0.0,0.0,0.0,0.0,0.0,0.0,0.0,0.0,0.0,0.0,0.0,0.0,0.0,0.0,0.0,0.0,0.0,0.0,0.0,0.0,0.0,0.0,0.0,0.0,0.0,0.0,0.0,0.0,0.0,0.0,0.0,0.0,0.0,0.0,0.0,0.0,0.0,0.0,0.0,0.0,0.0,0.0,0.0,0.0,0.0,0.0,0.0,0.0,0.0,0.0,0.0,0.0,0.0,0.0,0.0,0.0,0.0,0.0,0.0,0.0,0.0,0.0,0.0,0.0,0.0,0.0,0.0,0.0,0.0,0.0,0.0,0.0,0.0,0.0,0.0,0.0,0.0,0.0,0.0,0.0,0.0,0.0,0.0,0.0,0.0,0.0,0.0,0.0,0.0,0.0,-2.051,-2.0506,-2.0111,-1.9305,-1.844,-1.7552,0.0,0.0,0.0,0.0,0.0,0.0,0.0,0.0,0.0,0.0,0.0,0.0,0.0,0.0,0.0,0.0,0.0,0.0,0.0,0.0,0.0,0.0,0.0,0.0,0.0,0.0,0.0,0.0,0.0,0.0,0.0,0.0,0.0,0.0,0.0,0.0,0.0,0.0,0.0,0.0,0.0,0.0,0.0,0.0,0.0,0.0,0.0,0.0,0.0,0.0,0.0,0.0,0.0,0.0,0.0,0.0,0.0,0.0,0.0,0.0,0.0,0.0,0.0,0.0,0.0,0.0,0.0,0.0,0.0,0.0,0.0,0.0,0.0,0.0,0.0,0.0,0.0,0.0,0.0,0.0,0.0,0.0,0.0,0.0,0.0,0.0,0.0,0.0,0.0,0.0,0.0,0.0,0.0,0.0,0.0,0.0,0.0,0.0,0.0,0.0,0.0,0.0,0.0,0.0,0.0,0.0,0.0,0.0,0.0,-2.0565,-2.057,-2.0162,-1.9319,-1.8459,-1.7577,0.0,0.0,0.0,0.0,0.0,0.0,0.0,0.0,0.0,0.0,0.0,0.0,0.0,0.0,0.0,0.0,0.0,0.0,0.0,0.0,0.0,0.0,0.0,0.0,0.0,0.0,0.0,0.0,0.0,0.0,0.0,0.0,0.0,0.0,0.0,0.0,0.0,0.0,0.0,0.0,0.0,0.0,0.0,0.0,0.0,0.0,0.0,0.0,0.0,0.0,0.0,0.0,0.0,0.0,0.0,0.0,0.0,0.0,0.0,0.0,0.0,0.0,0.0,0.0,0.0,0.0,0.0,0.0,0.0,0.0,0.0,0.0,0.0,0.0,0.0,0.0,0.0,0.0,0.0,0.0,0.0,0.0,0.0,0.0,0.0,0.0,0.0,0.0,0.0,0.0,0.0,0.0,0.0,0.0,0.0,0.0,0.0,0.0,0.0,0.0,0.0,0.0,0.0,0.0,0.0,0.0,0.0,0.0,-2.1089,-2.1144,-2.1142,-2.091,-2.0406,-1.8831,-1.7761,0.0,0.0,0.0,0.0,0.0,0.0,0.0,0.0,0.0,0.0,0.0,0.0,0.0,0.0,0.0,0.0,0.0,0.0,0.0,0.0,0.0,0.0,0.0,0.0,0.0,0.0,0.0,0.0,0.0,0.0,0.0,0.0,0.0,0.0,0.0,0.0,0.0,0.0,0.0,0.0,0.0,0.0,0.0,0.0,0.0,0.0,0.0,0.0,0.0,0.0,0.0,0.0,0.0,0.0,0.0,0.0,0.0,0.0,0.0,0.0,0.0,0.0,0.0,0.0,0.0,0.0,0.0,0.0,0.0,0.0,0.0,0.0,0.0,0.0,0.0,0.0,0.0,0.0,0.0,0.0,0.0,0.0,0.0,0.0,0.0,0.0,0.0,0.0,0.0,0.0,0.0,0.0,0.0,0.0,0.0,0.0,0.0,0.0,0.0,0.0,0.0,0.0,0.0,0.0,0.0,0.0,0.0,0.0,-2.1846,-2.1902,-2.2,-2.1993,-2.1841,-1.9464,-1.8098,0.0,0.0,0.0,0.0,0.0,0.0,0.0,0.0,0.0,0.0,0.0,0.0,0.0,0.0,0.0,0.0,0.0,0.0,0.0,0.0,0.0,0.0,0.0,0.0,0.0,0.0,0.0,0.0,0.0,0.0,0.0,0.0,0.0,0.0,0.0,0.0,0.0,0.0,0.0,0.0,0.0,0.0,0.0,0.0,0.0,0.0,0.0,0.0,0.0,0.0,0.0,0.0,0.0,0.0,0.0,0.0,0.0,0.0,0.0,0.0,0.0,0.0,0.0,0.0,0.0,0.0,0.0,0.0,0.0,0.0,0.0,0.0,0.0,0.0,0.0,0.0,0.0,0.0,0.0,0.0,0.0,0.0,0.0,0.0,0.0,0.0,0.0,0.0,0.0,0.0,0.0,0.0,0.0,0.0,0.0,0.0,0.0,0.0,0.0,0.0,0.0,0.0,0.0,0.0,0.0,0.0,0.0,0.0,-2.1881,-2.1912,-2.2568,-2.26,-2.1911,-2.0031,-1.8714,0.0,0.0,0.0,0.0,0.0,0.0,0.0,0.0,0.0,0.0,0.0,0.0,0.0,0.0,0.0,0.0,0.0,0.0,0.0,0.0,0.0,0.0,0.0,0.0,0.0,0.0,0.0,0.0,0.0,0.0,0.0,0.0,0.0,0.0,0.0,0.0,0.0,0.0,0.0,0.0,0.0,0.0,0.0,0.0,0.0,0.0,0.0,0.0,-2.0029,0.0,0.0,0.0,0.0,0.0,0.0,0.0,0.0,0.0,0.0,0.0,0.0,0.0,0.0,0.0,0.0,0.0,0.0,0.0,0.0,0.0,0.0,0.0,0.0,0.0,0.0,0.0,0.0,0.0,0.0,0.0,0.0,0.0,0.0,0.0,0.0,0.0,0.0,0.0,0.0,0.0,0.0,0.0,0.0,0.0,0.0,0.0,0.0,0.0,0.0,0.0,0.0,0.0,0.0,0.0,0.0,0.0,0.0,0.0,-2.2658,-2.3064,-2.3532,-2.3347,-2.2457,-2.1169,-1.9706,0.0,0.0,0.0,0.0,0.0,0.0,0.0,0.0,0.0,0.0,0.0,0.0,0.0,0.0,0.0,0.0,0.0,0.0,0.0,0.0,0.0,0.0,0.0,0.0,0.0,0.0,0.0,0.0,0.0,0.0,0.0,0.0,0.0,0.0,0.0,0.0,0.0,0.0,0.0,0.0,0.0,0.0,0.0,0.0,0.0,0.0,0.0,0.0,0.0,0.0,0.0,0.0,0.0,0.0,0.0,0.0,0.0,0.0,0.0,0.0,0.0,0.0,0.0,0.0,0.0,0.0,0.0,0.0,0.0,0.0,0.0,0.0,0.0,0.0,0.0,0.0,0.0,0.0,0.0,0.0,0.0,0.0,0.0,0.0,0.0,0.0,0.0,0.0,0.0,0.0,0.0,0.0,0.0,0.0,0.0,0.0,0.0,0.0,0.0,0.0,0.0,0.0,0.0,0.0,0.0,0.0,0.0,-2.2698,-2.3532,-2.4365,-2.4521,-2.4179,-2.3317,-2.2465,-2.0853,-1.848,0.0,0.0,0.0,0.0,0.0,0.0,0.0,0.0,0.0,0.0,0.0,0.0,0.0,0.0,0.0,0.0,0.0,0.0,0.0,0.0,0.0,0.0,0.0,0.0,0.0,0.0,0.0,0.0,0.0,0.0,0.0,0.0,0.0,0.0,0.0,0.0,0.0,0.0,-1.914,-2.0451,0.0,0.0,0.0,0.0,0.0,0.0,0.0,0.0,-1.984,0.0,0.0,0.0,0.0,0.0,0.0,0.0,0.0,0.0,0.0,0.0,0.0,0.0,0.0,0.0,0.0,0.0,0.0,0.0,0.0,0.0,0.0,0.0,0.0,0.0,0.0,0.0,0.0,0.0,0.0,0.0,0.0,0.0,0.0,0.0,0.0,0.0,0.0,0.0,0.0,0.0,0.0,0.0,0.0,0.0,0.0,0.0,0.0,0.0,0.0,0.0,0.0,0.0,0.0,0.0,0.0,-2.1901,-2.2694,-2.3525,-2.4385,-2.5107,-2.5068,-2.4205,-2.3343,-2.1994,-2.0153,0.0,0.0,0.0,0.0,0.0,0.0,0.0,0.0,0.0,0.0,0.0,0.0,0.0,0.0,0.0,0.0,0.0,0.0,0.0,0.0,0.0,0.0,0.0,0.0,0.0,0.0,0.0,0.0,0.0,0.0,0.0,0.0,0.0,0.0,0.0,0.0,0.0,0.0,0.0,-2.0686,-2.0986,0.0,0.0,0.0,0.0,0.0,0.0,0.0,0.0,-1.9688,0.0,0.0,0.0,0.0,0.0,0.0,0.0,0.0,0.0,0.0,0.0,0.0,0.0,0.0,0.0,0.0,0.0,0.0,0.0,0.0,0.0,0.0,0.0,0.0,0.0,0.0,0.0,0.0,0.0,0.0,0.0,0.0,0.0,0.0,0.0,0.0,0.0,0.0,0.0,0.0,0.0,0.0,0.0,0.0,0.0,0.0,0.0,0.0,0.0,0.0,0.0,0.0,0.0,0.0,0.0,-2.2467,-2.2939,-2.3769,-2.5019,-2.5487,-2.527,-2.442,-2.3546,-2.2496,0.0,0.0,0.0,0.0,0.0,0.0,0.0,0.0,0.0,0.0,0.0,0.0,0.0,0.0,0.0,0.0,0.0,0.0,0.0,0.0,0.0,0.0,0.0,0.0,0.0,0.0,0.0,0.0,0.0,0.0,0.0,0.0,0.0,0.0,0.0,0.0,0.0,0.0,0.0,0.0,-2.0709,-2.1045,-2.062,0.0,0.0,0.0,0.0,0.0,0.0,-1.9651,-1.962,0.0,0.0,0.0,0.0,0.0,0.0,0.0,0.0,0.0,0.0,0.0,0.0,0.0,0.0,0.0,0.0,0.0,0.0,0.0,0.0,0.0,0.0,0.0,0.0,0.0,0.0,0.0,0.0,0.0,0.0,0.0,0.0,0.0,0.0,0.0,0.0,0.0,0.0,0.0,0.0,0.0,0.0,0.0,0.0,0.0,0.0,0.0,0.0,0.0,0.0,0.0,0.0,0.0,0.0,0.0,-2.3034,-2.3164,-2.3994,-2.5605,-2.5696,-2.5369,-2.4662,-2.3649,-2.2773,0.0,0.0,0.0,0.0,0.0,0.0,0.0,0.0,0.0,0.0,0.0,0.0,0.0,0.0,0.0,0.0,0.0,0.0,0.0,0.0,0.0,0.0,0.0,0.0,0.0,0.0,0.0,0.0,0.0,0.0,0.0,0.0,0.0,0.0,0.0,0.0,0.0,0.0,0.0,0.0,0.0,-2.1336,-2.112,-2.1368,0.0,0.0,0.0,0.0,-2.0075,-1.9931,0.0,0.0,0.0,0.0,0.0,0.0,0.0,0.0,0.0,0.0,0.0,0.0,0.0,0.0,0.0,0.0,0.0,0.0,0.0,0.0,0.0,0.0,0.0,0.0,0.0,0.0,0.0,0.0,0.0,0.0,0.0,0.0,0.0,0.0,0.0,0.0,0.0,0.0,0.0,0.0,0.0,0.0,0.0,0.0,0.0,0.0,0.0,0.0,0.0,0.0,0.0,0.0,0.0,0.0,0.0,0.0,-2.3022,-2.3105,-2.3965,-2.5596,-2.5697,-2.5658,-2.5523,-2.3957,-2.3046,0.0,0.0,0.0,0.0,0.0,0.0,0.0,0.0,0.0,0.0,0.0,0.0,0.0,0.0,0.0,0.0,0.0,0.0,0.0,0.0,0.0,0.0,0.0,0.0,0.0,0.0,0.0,0.0,0.0,0.0,0.0,0.0,0.0,0.0,0.0,0.0,0.0,0.0,0.0,0.0,0.0,-2.1898,-2.1121,-2.2214,-2.2843,0.0,0.0,0.0,-2.1643,-2.1038,0.0,0.0,0.0,0.0,0.0,0.0,0.0,0.0,0.0,0.0,0.0,0.0,0.0,0.0,0.0,0.0,0.0,0.0,0.0,0.0,0.0,0.0,0.0,0.0,0.0,0.0,0.0,0.0,0.0,0.0,0.0,0.0,0.0,0.0,0.0,0.0,0.0,0.0,0.0,0.0,0.0,0.0,0.0,0.0,0.0,0.0,0.0,0.0,0.0,0.0,0.0,0.0,0.0,0.0,0.0,-2.1393,-2.3028,-2.3099,-2.3951,-2.5614,-2.5694,-2.5697,-2.5687,-2.4018,-2.3107,0.0,0.0,0.0,0.0,0.0,0.0,0.0,0.0,0.0,0.0,0.0,0.0,0.0,0.0,0.0,0.0,0.0,0.0,0.0,0.0,0.0,0.0,0.0,0.0,0.0,0.0,0.0,0.0,0.0,0.0,0.0,0.0,0.0,0.0,0.0,0.0,0.0,0.0,0.0,0.0,0.0,0.0,-2.0952,-2.1868,0.0,0.0,0.0,-2.1916,-2.1849,0.0,0.0,0.0,0.0,0.0,0.0,0.0,0.0,0.0,0.0,0.0,0.0,0.0,0.0,0.0,0.0,0.0,0.0,0.0,0.0,0.0,0.0,0.0,0.0,0.0,0.0,0.0,0.0,0.0,0.0,0.0,0.0,0.0,0.0,0.0,0.0,0.0,0.0,0.0,0.0,0.0,0.0,0.0,0.0,0.0,0.0,0.0,0.0,0.0,0.0,0.0,0.0,0.0,0.0,0.0,0.0,0.0,-2.3054,-2.3105,-2.3942,-2.5629,-2.5699,-2.5695,-2.5668,-2.4232,0.0,0.0,0.0,0.0,0.0,0.0,0.0,0.0,0.0,0.0,0.0,0.0,0.0,0.0,0.0,0.0,0.0,0.0,0.0,0.0,0.0,0.0,0.0,0.0,0.0,0.0,0.0,-1.7385,0.0,0.0,0.0,0.0,0.0,0.0,0.0,0.0,0.0,0.0,0.0,0.0,0.0,0.0,-2.1307,-2.1371,-2.2073,-2.2543,0.0,0.0,-2.2451,-2.2406,-2.2232,-2.2113,0.0,0.0,0.0,0.0,0.0,0.0,0.0,0.0,0.0,0.0,0.0,0.0,0.0,0.0,0.0,0.0,0.0,0.0,0.0,0.0,0.0,0.0,0.0,0.0,0.0,0.0,0.0,0.0,0.0,0.0,0.0,0.0,0.0,0.0,0.0,0.0,0.0,0.0,0.0,0.0,0.0,0.0,0.0,0.0,0.0,0.0,0.0,0.0,0.0,0.0,0.0,0.0,0.0,0.0,0.0,-2.3023,-2.31,-2.3944,-2.5619,-2.5701,-2.5698,-2.5678,-2.4808,-2.3916,0.0,0.0,0.0,0.0,0.0,0.0,0.0,0.0,0.0,0.0,0.0,0.0,0.0,0.0,0.0,0.0,0.0,0.0,0.0,0.0,0.0,0.0,0.0,0.0,0.0,0.0,0.0,0.0,0.0,0.0,0.0,0.0,0.0,0.0,0.0,0.0,0.0,0.0,0.0,0.0,0.0,-2.2275,-2.2959,-2.3672,-2.4128,0.0,0.0,-2.4063,-2.4044,-2.34,-2.2923,-2.2923,0.0,0.0,0.0,0.0,0.0,0.0,0.0,0.0,0.0,0.0,0.0,0.0,0.0,0.0,0.0,0.0,0.0,0.0,0.0,0.0,0.0,0.0,0.0,0.0,0.0,0.0,0.0,0.0,0.0,0.0,0.0,0.0,0.0,0.0,0.0,0.0,0.0,0.0,0.0,0.0,0.0,0.0,0.0,0.0,0.0,0.0,0.0,0.0,0.0,0.0,0.0,0.0,0.0,-2.1346,-2.3001,-2.3072,-2.3946,-2.5609,-2.57,-2.5693,-2.5698,-2.4858,-2.3998,0.0,0.0,0.0,0.0,0.0,0.0,0.0,0.0,0.0,0.0,0.0,0.0,0.0,0.0,0.0,0.0,0.0,0.0,0.0,0.0,0.0,0.0,0.0,0.0,0.0,0.0,0.0,0.0,-2.0038,-2.0238,-2.0238,0.0,0.0,0.0,0.0,0.0,0.0,0.0,0.0,0.0,0.0,-2.2866,-2.3117,-2.3768,0.0,0.0,-2.419,-2.42,-2.4199,-2.3914,-2.3684,-2.3665,-2.3389,0.0,0.0,0.0,0.0,0.0,0.0,0.0,0.0,0.0,0.0,0.0,0.0,0.0,0.0,0.0,0.0,0.0,0.0,0.0,0.0,0.0,0.0,0.0,0.0,0.0,0.0,0.0,0.0,0.0,0.0,0.0,0.0,0.0,0.0,0.0,0.0,0.0,0.0,0.0,0.0,0.0,0.0,0.0,0.0,0.0,0.0,0.0,0.0,0.0,0.0,0.0,0.0,-2.1541,-2.2975,-2.3304,-2.4177,-2.5631,-2.5694,-2.5694,-2.5684,-2.5109,-2.4387,0.0,0.0,0.0,0.0,0.0,0.0,0.0,0.0,0.0,0.0,0.0,0.0,0.0,0.0,0.0,0.0,0.0,0.0,0.0,0.0,0.0,0.0,0.0,0.0,0.0,0.0,0.0,0.0,-2.0204,-2.0195,-2.0203,0.0,0.0,0.0,0.0,0.0,0.0,0.0,0.0,0.0,0.0,-2.3245,-2.3417,-2.387,-2.42,-2.4199,-2.4199,-2.4208,-2.417,-2.4132,-2.4075,-2.4074,0.0,0.0,0.0,0.0,0.0,0.0,0.0,0.0,0.0,0.0,0.0,0.0,0.0,0.0,0.0,0.0,0.0,0.0,0.0,0.0,0.0,0.0,0.0,0.0,0.0,0.0,0.0,0.0,0.0,0.0,-1.7299,0.0,0.0,0.0,0.0,0.0,0.0,0.0,0.0,0.0,0.0,0.0,0.0,0.0,0.0,0.0,0.0,0.0,0.0,0.0,0.0,0.0,0.0,0.0,-2.2986,-2.3828,-2.4695,-2.5571,-2.5671,-2.5693,-2.57,-2.5674,-2.5257,-2.4368,0.0,0.0,0.0,0.0,0.0,0.0,0.0,0.0,0.0,0.0,0.0,0.0,0.0,0.0,0.0,0.0,0.0,0.0,0.0,0.0,0.0,0.0,0.0,0.0,0.0,0.0,-2.0102,-2.0207,-2.0207,0.0,0.0,0.0,0.0,0.0,0.0,0.0,0.0,0.0,0.0,-2.3167,-2.336,-2.4063,-2.4191,-2.4199,-2.4199,-2.4199,-2.417,-2.4113,-2.4121,-2.4074,0.0,0.0,0.0,0.0,0.0,0.0,0.0,0.0,0.0,0.0,0.0,0.0,0.0,0.0,0.0,0.0,0.0,0.0,0.0,0.0,0.0,0.0,0.0,0.0,0.0,0.0,0.0,-1.708,-1.7135,0.0,0.0,0.0,0.0,0.0,0.0,0.0,0.0,0.0,0.0,0.0,-2.1709,-2.1787,0.0,0.0,0.0,0.0,0.0,0.0,0.0,0.0,0.0,0.0,0.0,0.0,-2.2042,-2.2927,-2.3796,-2.4655,-2.5504,-2.56,-2.5634,-2.5639,-2.5634,-2.5231,-2.435,0.0,0.0,0.0,0.0,0.0,0.0,0.0,0.0,0.0,0.0,0.0,0.0,0.0,0.0,0.0,0.0,0.0,0.0,0.0,0.0,0.0,0.0,0.0,0.0,0.0,-1.9764,0.0,0.0,0.0,0.0,0.0,0.0,0.0,0.0,0.0,0.0,0.0,-2.2755,-2.317,-2.3615,-2.3961,-2.4164,-2.4209,-2.4199,0.0,0.0,0.0,0.0,0.0,0.0,0.0,0.0,0.0,0.0,0.0,0.0,0.0,0.0,-2.4802,-2.4912,-2.4759,-2.4454,-2.3781,0.0,0.0,0.0,0.0,0.0,0.0,0.0,0.0,0.0,0.0,0.0,0.0,0.0,0.0,-1.8569,0.0,-1.8412,0.0,0.0,0.0,0.0,0.0,0.0,0.0,0.0,-2.146,-2.1907,-2.2446,-2.2528,-2.2561,0.0,-2.2034,-2.1521,0.0,0.0,0.0,0.0,0.0,0.0,0.0,0.0,-2.2441,-2.3313,-2.4181,-2.49,-2.5473,-2.5544,-2.5562,-2.5578,-2.556,-2.5146,-2.4292,-2.3199,-2.2332,0.0,0.0,0.0,0.0,0.0,0.0,0.0,0.0,0.0,0.0,0.0,0.0,0.0,0.0,0.0,0.0,0.0,0.0,0.0,0.0,0.0,0.0,0.0,-2.0021,0.0,0.0,0.0,0.0,0.0,0.0,0.0,0.0,0.0,-2.1821,-2.2696,-2.3387,-2.3568,-2.4247,-2.469,-2.4624,0.0,0.0,0.0,0.0,0.0,0.0,0.0,-2.5398,-2.533,-2.5626,-2.5834,-2.5734,-2.5791,-2.586,-2.5759,0.0,0.0,-2.5516,-2.5319,-2.4975,-2.4335,-2.4557,-2.4658,-2.3965,-2.4179,-2.4402,0.0,0.0,0.0,0.0,0.0,0.0,0.0,0.0,-2.1771,-2.1369,0.0,-2.0677,0.0,0.0,0.0,0.0,0.0,0.0,0.0,0.0,-2.199,-2.2394,-2.2496,-2.258,-2.2586,-2.2576,-2.2552,-2.2559,-2.2537,-2.1053,0.0,0.0,0.0,0.0,0.0,0.0,-2.324,-2.4075,-2.4921,-2.5419,-2.5492,-2.549,-2.5499,-2.5518,-2.5518,-2.5114,-2.431,-2.4264,-2.35,-2.1886,-2.1786,0.0,0.0,0.0,0.0,0.0,0.0,0.0,0.0,0.0,0.0,0.0,0.0,0.0,0.0,0.0,0.0,0.0,0.0,0.0,0.0,-2.0059,0.0,0.0,0.0,0.0,0.0,0.0,0.0,0.0,0.0,0.0,-2.3478,-2.3396,-2.3549,-2.4257,0.0,0.0,0.0,0.0,-2.6594,-2.6566,-2.6521,-2.6428,-2.6295,-2.6245,-2.6179,-2.5978,0.0,0.0,-2.5525,-2.6002,-2.6377,-2.6255,-2.6718,-2.6795,-2.5542,-2.5248,-2.508,-2.4876,-2.4825,-2.4686,-2.4551,-2.4568,-2.45,-2.3003,0.0,0.0,0.0,0.0,-2.1525,-2.1589,-2.1634,-2.1661,-2.1577,-2.1421,-2.1417,0.0,0.0,0.0,0.0,0.0,0.0,-2.2068,-2.2654,-2.2961,-2.3427,-2.4048,-2.4101,-2.4148,-2.4119,-2.3565,-2.331,-2.3334,-2.234,-2.189,-2.1981,0.0,0.0,0.0,0.0,-2.3803,-2.4118,-2.4908,-2.536,-2.5423,-2.5427,-2.5459,-2.5507,-2.5517,-2.5374,-2.5122,-2.4551,-2.4028,-2.3574,-2.2425,0.0,0.0,0.0,0.0,0.0,0.0,0.0,0.0,0.0,0.0,0.0,0.0,0.0,0.0,0.0,0.0,0.0,0.0,0.0,-1.9936,-2.0507,-2.0857,0.0,0.0,0.0,0.0,0.0,0.0,0.0,0.0,0.0,-2.4954,-2.5002,-2.5005,0.0,0.0,-2.6344,-2.6264,-2.6456,-2.6582,-2.6539,0.0,0.0,0.0,-2.6564,-2.6785,-2.671,-2.696,-2.71,-2.6856,-2.6909,-2.6947,-2.6862,-2.6965,-2.691,-2.6535,-2.6439,-2.6193,-2.5655,-2.5847,-2.597,-2.5392,-2.5555,-2.5815,-2.4244,-2.2706,-2.2576,-2.2434,-2.228,-2.2372,-2.2431,-2.2471,-2.2499,-2.2372,-2.2136,-2.2145,-2.1971,-2.1731,-2.1792,0.0,0.0,0.0,-2.2736,-2.3259,-2.3652,-2.412,-2.4601,-2.472,-2.476,-2.4734,-2.4308,-2.411,-2.4123,-2.3676,-2.349,-2.3543,0.0,0.0,-2.3187,-2.3695,-2.4157,-2.4543,-2.5013,-2.5284,-2.536,-2.5395,-2.5421,-2.5455,-2.5455,-2.5445,-2.5453,-2.4984,-2.4563,-2.4274,-2.3325,-2.2493,0.0,0.0,0.0,0.0,0.0,0.0,0.0,0.0,0.0,0.0,0.0,-1.8939,-1.9423,0.0,0.0,0.0,-2.0344,-2.0584,-2.0866,-2.1339,0.0,0.0,0.0,0.0,0.0,0.0,0.0,-2.3714,-2.4452,-2.5217,-2.6004,-2.6364,-2.6428,-2.6035,-2.6648,-2.7141,-2.709,0.0,-2.7495,-2.7451,-2.7351,-2.7235,-2.713,-2.7338,-2.7478,-2.7306,-2.7376,-2.7452,-2.7364,-2.7198,-2.7111,-2.7023,-2.6966,-2.6909,-2.6842,-2.6859,-2.674,-2.6215,-2.6461,-2.6589,-2.6,-2.6244,-2.6415,-2.5219,-2.5205,-2.4872,-2.4349,-2.3781,-2.384,-2.39,-2.3937,-2.3898,-2.3531,-2.2954,-2.2909,-2.2473,-2.1808,-2.1853,0.0,0.0,-2.2783,-2.3222,-2.331,-2.4177,-2.4574,-2.4597,-2.4776,-2.4872,-2.4881,-2.4876,-2.4894,-2.4885,-2.4879,-2.487,-2.4847,-2.3474,-2.3174,-2.3934,-2.3997,-2.4391,-2.5177,-2.518,-2.5242,-2.5303,-2.536,-2.5396,-2.5396,-2.5387,-2.5386,-2.5401,-2.5456,-2.513,-2.4361,-2.4295,-2.361,-2.212,0.0,0.0,0.0,0.0,0.0,0.0,0.0,0.0,0.0,0.0,0.0,0.0,0.0,0.0,0.0,-2.0902,0.0,-2.2332,-2.2397,0.0,0.0,0.0,-2.2501,-2.2482,-2.3141,-2.3845,-2.4511,0.0,0.0,0.0,0.0,-2.7705,-2.6979,-2.746,-2.7888,-2.7906,-2.843,-2.8896,-2.8804,-2.87,-2.856,-2.8304,-2.8192,-2.7945,-2.7622,-2.7391,-2.7213,-2.719,-2.7087,-2.6975,-2.6867,-2.6893,-2.6842,-2.6725,-2.6708,-2.67,-2.6674,-2.6683,-2.6649,-2.6496,-2.646,-2.6372,-2.619,-2.5656,-2.5765,-2.5532,-2.5107,-2.478,-2.4906,-2.5312,-2.4229,-2.397,-2.4293,-2.3789,-2.3481,-2.3344,-2.3431,-2.3451,-2.3471,-2.3795,-2.3943,-2.4008,-2.4857,-2.5273,-2.5301,-2.5978,-2.6321,-2.633,-2.577,-2.5549,-2.5597,-2.503,-2.476,-2.4734,-2.4388,-2.4356,-2.4638,-2.4696,-2.4838,-2.5041,-2.5151,-2.5208,-2.5242,-2.5284,-2.5322,-2.5332,-2.5369,-2.5395,-2.5386,-2.5421,-2.5358,-2.5183,-2.4618,-2.4151,-2.3786,-2.2514,0.0,0.0,0.0,0.0,0.0,0.0,0.0,0.0,0.0,-2.0557,-2.1137,0.0,-2.1426,0.0,-2.2064,-2.219,-2.2378,-2.2895,0.0,0.0,-2.3731,-2.4323,-2.4796,-2.5038,-2.5402,-2.6067,-2.6868,-2.7456,-2.7607,-2.8281,-2.8691,-2.8475,-2.8594,-2.8732,-2.8741,-2.8791,-2.8881,-2.8801,-2.8687,-2.8536,-2.8353,-2.8045,-2.771,-2.736,-2.7244,-2.7158,-2.6999,-2.695,-2.6876,-2.6792,-2.6742,-2.6733,-2.6691,-2.67,-2.67,-2.6708,-2.6657,-2.6606,-2.6528,-2.6425,-2.6277,-2.6471,-2.6065,-2.6309,-2.635,-2.6167,-2.5381,-2.5306,-2.5688,-2.4901,-2.4809,-2.5186,-2.4509,-2.4217,-2.4256,-2.4006,-2.4112,-2.4439,-2.4552,-2.4812,-2.5205,-2.5743,-2.5987,-2.6005,-2.6528,-2.6771,-2.68,-2.6404,-2.6228,-2.6264,-2.5881,-2.5657,-2.5682,-2.5325,-2.5185,-2.5242,-2.5026,-2.4916,-2.4911,-2.5047,-2.5139,-2.5208,-2.5241,-2.5262,-2.5263,-2.5322,-2.5361,-2.536,-2.5387,-2.5419,-2.5476,-2.5101,-2.4744,-2.4405,-2.3483,-2.2773,0.0,0.0,0.0,0.0,0.0,0.0,0.0,0.0,0.0,0.0,0.0,-2.2335,0.0,-2.3016,-2.3058,-2.3431,-2.4151,-2.4548,-2.4518,-2.5251,-2.5853,-2.6191,-2.6219,-2.6458,-2.7152,-2.7607,-2.8027,-2.8346,-2.8732,-2.8984,-2.8984,-2.8984,-2.8984,-2.8952,-2.8905,-2.8834,-2.8721,-2.8587,-2.8397,-2.8146,-2.7847,-2.7543,-2.7276,-2.7158,-2.7055,-2.6917,-2.6842,-2.68,-2.6708,-2.67,-2.67,-2.67,-2.67,-2.67,-2.6708,-2.6632,-2.6554,-2.6485,-2.6382,-2.6216,-2.634,-2.634,-2.6564,-2.6742,-2.6872,-2.5811,-2.5563,-2.5835,-2.5694,-2.5693,-2.5716,-2.5078,-2.4822,-2.4787,-2.4311,-2.4468,-2.5109,-2.5203,-2.5642,-2.6363,-2.6611,-2.6716,-2.6738,-2.6884,-2.6993,-2.7004,-2.6944,-2.6938,-2.6939,-2.6895,-2.6877,-2.684,-2.6191,-2.5829,-2.5801,-2.5316,-2.499,-2.4813,-2.4925,-2.506,-2.5177,-2.5185,-2.5208,-2.521,-2.5262,-2.5292,-2.5303,-2.536,-2.5422,-2.5488,-2.5544,-2.5278,-2.46,-2.4456,-2.4066,0.0,-2.3149,0.0,0.0,0.0,0.0,0.0,0.0,0.0,0.0,-2.2949,-2.3281,-2.3914,-2.3937,-2.4205,-2.4898,-2.5618,-2.6064,-2.607,-2.6622,-2.7,-2.7028,-2.6978,-2.7232,-2.7957,-2.8037,-2.8309,-2.8888,-2.8984,-2.8984,-2.8984,-2.8984,-2.8961,-2.8905,-2.8834,-2.877,-2.8612,-2.8467,-2.821,-2.7876,-2.7698,-2.7496,-2.7221,-2.7087,-2.6983,-2.6876,-2.6775,-2.67,-2.67,-2.67,-2.67,-2.67,-2.67,-2.67,-2.67,-2.6589,-2.6528,-2.6485,-2.6355,-2.6197,-2.6018,-2.6074,-2.6287,-2.6435,-2.6496,-2.6379,-2.665,-2.7081,-2.6156,-2.5686,-2.557,-2.5472,-2.5453,-2.5511,-2.5484,-2.5593,-2.5736,-2.5865,-2.5998,-2.6267,-2.7004,-2.7355,-2.7429,-2.81,-2.8448,-2.8544,-2.7919,-2.765,-2.7756,-2.7073,-2.674,-2.6731,-2.6565,-2.6529,-2.6511,0.0,0.0,0.0,-2.4931,-2.5018,-2.506,-2.5146,-2.5212,-2.5203,-2.52,0.0,-2.5292,-2.5303,-2.536,-2.5419,-2.5481,0.0,0.0,0.0,0.0,0.0,0.0,0.0,0.0,0.0,0.0,0.0,-2.3745,-2.3676,-2.3755,-2.431,-2.4707,-2.4854,-2.531,-2.5686,-2.5855,-2.6472,-2.6874,-2.6876,-2.6905,-2.714,-2.7701,-2.7735,-2.796,-2.8691,-2.8778,-2.8833,-2.8971,-2.8984,-2.8984,-2.8984,-2.8984,-2.897,-2.8843,-2.881,-2.877,-2.8603,-2.8362,-2.8025,-2.7707,-2.7548,-2.7395,-2.7137,-2.7048,-2.6942,-2.6784,-2.6733,-2.67,-2.67,-2.67,-2.67,-2.67,-2.67,-2.67,-2.67,-2.6589,-2.6485,-2.6485,-2.6258,-2.601,-2.5659,0.0,-2.5929,-2.6074,0.0,-2.6277,-2.653,-2.6922,-2.657,-2.6433,-2.6411,-2.6092,-2.6017,-2.6109,-2.5843,-2.5974,-2.6407,-2.6509,-2.679,-2.727,-2.7775,-2.803,-2.8121,-2.8537,-2.8819,-2.8872,-2.847,-2.8343,-2.8361,-2.797,-2.7791,-2.7781,-2.7469,-2.7288,-2.7278,-2.6984,-2.6358,-2.5362,-2.5405,-2.5295,-2.4977,-2.5057,-2.5126,-2.5154,0.0,0.0,0.0,0.0,0.0,0.0,0.0,0.0,0.0,0.0,0.0,-2.5029,-2.4633,-2.4346,-2.4287,-2.4266,-2.4581,-2.5371,-2.5745,-2.5533,-2.4665,-2.5271,-2.5701,-2.5697,-2.6304,-2.6695,-2.6723,-2.73,-2.7708,-2.7699,-2.7913,-2.8234,-2.8529,-2.8531,-2.862,-2.8897,-2.8984,-2.8984,-2.8984,-2.8984,-2.8984,-2.8984,-2.8961,-2.8914,-2.8819,-2.8804,-2.8712,-2.8466,-2.8182,-2.7864,-2.7647,-2.7457,-2.7293,-2.7055,-2.6975,-2.6876,-2.6733,-2.67,-2.67,-2.67,-2.67,-2.67,-2.67,-2.67,-2.6716,-2.6649,-2.658,-2.6477,-2.639,-2.6197,-2.5982,-2.5309,-2.537,-2.5551,-2.5717,-2.5807,-2.5901,-2.611,-2.6357,0.0,0.0,0.0,-2.6697,-2.6556,-2.6705,-2.6112,-2.6284,-2.7004,-2.7103,-2.7558,-2.8264,-2.8406,-2.8484,-2.8545,-2.8594,-2.8687,-2.8728,-2.877,-2.877,-2.8795,-2.8858,-2.8872,-2.885,-2.8347,-2.8082,-2.8067,-2.7516,-2.6886,-2.629,-2.6145,-2.5822,-2.5328,-2.5362,-2.5437,-2.5494,-2.5558,-2.5617,-2.564,-2.5692,-2.5765,-2.5841,-2.5906,-2.5974,-2.6048,-2.61,-2.6134,-2.6152,-2.6153,-2.6123,-2.6057,-2.6001,-2.6231,-2.6879,-2.7466,-2.7186,-2.5768,-2.6206,-2.6538,-2.6529,-2.7155,-2.7534,-2.7544,-2.8126,-2.8502,-2.8521,-2.8972,-2.924,-2.9193,-2.913,-2.903,-2.9007,-2.8984,-2.8984,-2.8984,-2.8984,-2.8984,-2.8984,-2.8919,-2.8848,-2.8795,-2.8737,-2.8603,-2.8327,-2.8007,-2.776,-2.7587,-2.7386,-2.7158,-2.6999,-2.6959,-2.6851,-2.675,-2.67,-2.67,-2.67,-2.67,-2.67,-2.67,-2.67,-2.6674,-2.6606,-2.6554,-2.6434,-2.6312,-2.6134,-2.5962,-2.4997,-2.5146,-2.5309,-2.5394,-2.5492,-2.5663,-2.5856,-2.609,-2.6674,-2.6983,-2.7064,-2.7,-2.7097,-2.7278,-2.7248,-2.7337,-2.7601,-2.7659,-2.7853,0.0,-2.8218,-2.8282,-2.8353,-2.8406,-2.8484,-2.8552,-2.8603,-2.8653,-2.8703,-2.8795,-2.8819,-2.8801,-2.8763,-2.8824,-2.8933,-2.8835,-2.8427,-2.7724,-2.7139,-2.6865,-2.6874,-2.6956,-2.7,-2.7081,-2.7115,-2.7223,-2.7338,-2.7338,-2.743,-2.7556,-2.7612,-2.7683,-2.7743,-2.779,-2.7878,-2.7938,-2.7934,-2.7907,-2.7818,-2.7778,-2.7738,-2.772,-2.7782,-2.7685,-2.7474,-2.7418,-2.7409,-2.7438,-2.8026,-2.8431,-2.8461,-2.8951,-2.9296,-2.9285,-2.9235,-2.9212,-2.9198,-2.9094,-2.9007,-2.9007,-2.8984,-2.8984,-2.8984,-2.8984,-2.8961,-2.8919,-2.8863,-2.8825,-2.8671,-2.8554,-2.8389,-2.8173,-2.7941,-2.7722,-2.7548,-2.7324,-2.7143,-2.7007,-2.6917,-2.6842,-2.6733,-2.67,-2.67,-2.67,-2.67,-2.67,-2.67,-2.67,-2.6683,-2.6623,-2.652,-2.6407,-2.6231,-2.6026,-2.5844,-2.5215,-2.5276,-2.5092,-2.5053,-2.5084,-2.5386,-2.5584,-2.5815,-2.617,-2.6495,-2.6683,-2.6833,-2.7006,-2.7192,-2.7247,-2.7386,-2.7531,-2.7591,-2.7707,-2.7833,-2.7922,-2.8053,-2.8145,-2.8182,-2.8291,-2.8406,-2.8432,-2.8458,-2.8536,-2.8637,-2.8687,-2.8687,-2.8782,-2.8887,-2.8919,-2.8984,-2.8847,-2.8533,-2.7924,-2.741,-2.7036,-2.7159,-2.726,-2.727,-2.7402,-2.7476,-2.758,-2.7647,-2.7747,-2.785,-2.7904,-2.7995,-2.81,-2.8159,-2.8222,-2.8291,-2.829,-2.8259,-2.8198,-2.8537,-2.87,-2.8628,-2.8954,-2.9161,-2.9152,-2.8592,-2.8237,-2.8265,-2.8843,-2.9261,-2.9244,-2.9401,-2.9511,-2.951,-2.931,-2.9222,-2.9184,-2.9094,-2.9007,-2.8984,-2.8984,-2.8975,-2.8961,-2.8929,-2.8905,-2.8858,-2.8801,-2.8687,-2.851,-2.8398,-2.8273,-2.8099,-2.7864,-2.7668,-2.7505,-2.7247,-2.7096,-2.7016,-2.6876,-2.6792,-2.67,-2.67,-2.67,-2.67,-2.67,-2.67,-2.67,-2.6674,-2.6632,-2.6546,-2.6415,-2.6266,-2.6115,-2.5836,-2.5575,-2.5631,-2.5589,-2.5085,-2.4834,-2.4782,-2.5053,-2.5286,-2.5494,-2.5704,-2.5946,-2.6216,-2.6504,-2.6708,-2.685,-2.6973,-2.7126,-2.731,-2.7364,-2.7457,-2.7557,-2.7689,-2.7798,-2.7911,-2.8005,-2.8072,-2.8174,-2.8237,-2.8282,-2.8362,-2.8467,-2.8562,-2.8612,-2.87,-2.8782,-2.8804,-2.8858,-2.8905,-2.8948,-2.8538,-2.8007,-2.7474,-2.7596,-2.7695,-2.7782,-2.7862,-2.796,-2.8036,-2.8188,-2.8281,-2.8361,-2.8431,-2.854,-2.8655,-2.8727,-2.8786,-2.8847,-2.8867,-2.8847,-2.8807,-2.9251,-2.9545,-2.9485,-2.9982,-3.0279,-3.0196,-2.956,-2.9074,-2.9135,-2.9486,-2.9762,-2.9717,-2.9598,-2.9502,-2.9472,-2.93,-2.9212,-2.9187,-2.9085,-2.8984,-2.8984,-2.9003,-2.8952,-2.8905,-2.8872,-2.8834,-2.8761,-2.8662,-2.851,-2.838,-2.8246,-2.8154,-2.7996,-2.7757,-2.7565,-2.7465,-2.7184,-2.7016,-2.6975,-2.6808,-2.6733,-2.67,-2.67,-2.67,-2.67,-2.67,-2.6708,-2.6674,-2.6623,-2.6572,-2.6468,-2.6337,-2.6159,-2.5934,-2.5567,-2.5309,-2.6001,-2.5932,-2.5372,-2.4883,-2.4708,-2.479,-2.4997,-2.517,-2.5278,-2.5448,-2.5712,-2.6145,-2.6357,-2.6496,-2.6649,-2.685,-2.704,-2.7111,-2.723,-2.7404,-2.7487,-2.7587,-2.7638,-2.7769,-2.7827,-2.7893,-2.8016,-2.8145,-2.8209,-2.8282,-2.8397,-2.8587,-2.8612,-2.8696,-2.8795,-2.8795,-2.8825,-2.8905,-2.8911,-2.8977,-2.9089,-2.91,-2.9229,-2.9457,-2.9464,-2.9561,-2.9583,-2.9821,-2.9927,-3.0062,-3.0125,-3.026,-3.0333,-3.0399,-3.0481,-3.0506,-3.0527,-3.054,-3.0445,-3.0409,-3.0327,-3.0303,-3.0278,-3.0266,-3.0213,-3.0061,-2.9939,-2.9864,-2.9817,-2.9763,-2.9711,-2.9598,-2.9472,-2.9394,-2.9277,-2.9209,-2.9187,-2.9085,-2.8984,-2.8905,-2.8905,-2.8881,-2.881,-2.8795,-2.8746,-2.8637,-2.8527,-2.8441,-2.8255,-2.8136,-2.7996,-2.7806,-2.7659,-2.7487,-2.7293,-2.7111,-2.6975,-2.6917,-2.6784,-2.6733,-2.67,-2.67,-2.67,-2.67,-2.67,-2.6683,-2.664,-2.6615,-2.6546,-2.6347,-2.6222,-2.6059,-2.572,-2.5325,-2.5092,-2.6396,-2.6368,-2.5857,-2.5558,-2.5472,-2.5215,-2.5189,-2.5356,-2.5107,-2.5131,-2.5317,-2.5613,-2.5856,-2.6181,-2.6357,-2.6538,-2.664,-2.6759,-2.6909,-2.7105,-2.7169,-2.7247,-2.7324,-2.7478,-2.7569,-2.763,-2.7757,-2.7844,-2.7988,-2.8136,-2.83,-2.8406,-2.8467,-2.8502,-2.8571,-2.8646,-2.8696,-2.8737,-2.8858,-2.8989,-2.9115,-2.9249,-2.9384,-2.9569,-2.9664,-2.9773,-2.9884,-2.9988,-3.0104,-3.0244,-3.0357,-3.0481,-3.06,-3.0669,-3.0721,-3.0781,-3.0793,-3.077,-3.0707,-3.0564,-3.0462,-3.0398,-3.0343,-3.0266,-3.0195,-3.0098,-3.0016,-2.9952,-2.985,-2.9782,-2.972,-2.9589,-2.9434,-2.9353,-2.9265,-2.9187,-2.9143,-2.9012,-2.8938,-2.8896,-2.8848,-2.8801,-2.8678,-2.8612,-2.8545,-2.8467,-2.8398,-2.8291,-2.8182,-2.8025,-2.7798,-2.7651,-2.7478,-2.7338,-2.7213,-2.7087,-2.6975,-2.6909,-2.6784,-2.6691,-2.67,-2.67,-2.67,-2.67,-2.6683,-2.6623,-2.6615,-2.6503,-2.639,-2.6206,-2.5962,-2.5728,-2.5347,-2.5162,-2.4974,-2.6758,-2.671,-2.6271,-2.6036,-2.5902,-2.5537,-2.55,-2.5671,-2.5341,-2.5229,-2.5226,-2.5354,-2.5563,-2.5762,-2.6046,-2.6225,-2.6314,-2.6443,-2.6606,-2.6767,-2.6842,-2.6942,-2.7047,-2.7215,-2.735,-2.7404,-2.7487,-2.763,-2.7769,-2.7996,-2.8136,-2.8219,-2.8309,-2.8327,-2.8389,-2.8475,-2.8536,-2.8621,-2.8761,-2.8872,-2.9007,-2.915,-2.9312,-2.9463,-2.9589,-2.9738,-2.9878,-2.9968,-3.0049,-3.0184,-3.033,-3.0459,-3.0593,-3.0655,-3.0721,-3.0784,-3.0794,-3.0769,-3.0707,-3.0584,-3.0462,-3.0406,-3.0321,-3.023,-3.0142,-3.0044,-2.9943,-2.9861,-2.98,-2.9746,-2.9664,-2.9512,-2.9403,-2.93,-2.9234,-2.9134,-2.9085,-2.8966,-2.8881,-2.8848,-2.8785,-2.8687,-2.8571,-2.8467,-2.8389,-2.8345,-2.8273,-2.8135,-2.8071,-2.7864,-2.768,-2.7565,-2.7364,-2.7181,-2.7126,-2.7031,-2.695,-2.6867,-2.6733,-2.67,-2.67,-2.67,-2.67,-2.6708,-2.6632,-2.658,-2.6554,-2.6434,-2.6206,-2.6015,-2.5758,-2.5448,-2.5154,-2.4997,-2.4766,-2.7188,-2.7085,-2.6594,-2.6057,-2.5463,-2.5601,-2.5772,-2.591,-2.6061,-2.598,-2.5594,-2.5723,-2.5533,-2.5273,-2.5748,-2.597,-2.601,-2.6225,-2.6339,-2.6426,-2.6555,-2.6725,-2.6901,-2.6975,-2.7064,-2.7126,-2.7319,-2.7457,-2.7578,-2.7748,-2.7893,-2.8005,-2.8062,-2.8173,-2.8273,-2.83,-2.8406,-2.8562,-2.8612,-2.8737,-2.897,-2.9076,-2.9212,-2.9383,-2.954,-2.9664,-2.9808,-2.9933,-3.0059,-3.0204,-3.0327,-3.0459,-3.0593,-3.0665,-3.0732,-3.079,-3.0794,-3.0781,-3.07,-3.0574,-3.0462,-3.0392,-3.0273,-3.0142,-3.0044,-2.9946,-2.9841,-2.9738,-2.9711,-2.9645,-2.9512,-2.9405,-2.933,-2.9283,-2.9165,-2.9085,-2.9017,-2.8938,-2.8839,-2.8709,-2.8637,-2.8536,-2.8415,-2.8353,-2.8246,-2.82,-2.8126,-2.8034,-2.7806,-2.771,-2.76,-2.7443,-2.7287,-2.7166,-2.704,-2.6983,-2.6867,-2.6775,-2.6742,-2.67,-2.67,-2.67,-2.67,-2.6674,-2.6598,-2.6546,-2.6485,-2.631,-2.6051,-2.5795,-2.5546,-2.527,-2.5045,-2.4791,-2.4605,-2.6795,-2.6871,-2.6703,-2.6528,-2.6423,-2.6108,-2.6061,-2.6198,-2.5991,-2.5872,-2.5809,-2.5912,-2.5993,-2.6044,-2.5803,-2.5678,-2.5621,-2.5811,-2.5974,-2.6099,-2.6162,-2.6304,-2.6521,-2.6572,-2.6708,-2.6866,-2.6999,-2.7152,-2.7355,-2.7539,-2.7668,-2.7748,-2.7844,-2.7941,-2.8007,-2.8145,-2.8282,-2.8397,-2.8536,-2.8696,-2.8867,-2.903,-2.9169,-2.9323,-2.9482,-2.9626,-2.9771,-2.9891,-3.0019,-3.0204,-3.0323,-3.0461,-3.06,-3.0706,-3.0779,-3.0788,-3.0749,-3.0699,-3.0627,-3.0556,-3.0452,-3.0348,-3.0251,-3.0133,-3.0003,-2.99,-2.9798,-2.9692,-2.9531,-2.9423,-2.9384,-2.9314,-2.9261,-2.9178,-2.9085,-2.9007,-2.8929,-2.8819,-2.8687,-2.8621,-2.8467,-2.8327,-2.8228,-2.8136,-2.8044,-2.795,-2.7884,-2.7777,-2.7668,-2.7548,-2.7434,-2.731,-2.7152,-2.7023,-2.6942,-2.6917,-2.6834,-2.675,-2.67,-2.67,-2.67,-2.6649,-2.6623,-2.6623,-2.6537,-2.6425,-2.632,-2.6099,-2.5815,-2.5645,-2.5402,-2.5162,-2.4902,-2.4678,-2.4482,-2.6358,-2.6472,-2.6479,-2.6592,-2.6676,-2.6374,-2.6287,-2.6416,-2.6277,-2.6108,-2.6031,-2.6142,-2.6321,-2.6287,-2.5921,-2.5737,-2.5711,-2.5657,-2.5605,-2.5704,-2.5836,-2.601,-2.6154,-2.626,-2.6392,-2.6564,-2.6742,-2.6925,-2.7103,-2.7293,-2.7404,-2.7478,-2.7621,-2.7701,-2.7789,-2.7979,-2.8127,-2.8273,-2.8441,-2.8621,-2.8761,-2.8952,-2.9138,-2.9312,-2.9443,-2.9608,-2.9771,-2.9907,-3.0044,-3.0194,-3.0348,-3.0501,-3.0622,-3.0735,-3.079,-3.0784,-3.0733,-3.0675,-3.0603,-3.0548,-3.044,-3.0304,-3.0211,-3.009,-2.9991,-2.9841,-2.9718,-2.9589,-2.9433,-2.9303,-2.9249,-2.9197,-2.9141,-2.9067,-2.9007,-2.8914,-2.8834,-2.8696,-2.8562,-2.8458,-2.8282,-2.8126,-2.8005,-2.792,-2.7844,-2.7739,-2.768,-2.7591,-2.7487,-2.7412,-2.7305,-2.7143,-2.704,-2.6942,-2.6842,-2.6767,-2.675,-2.6666,-2.6657,-2.6683,-2.6649,-2.6598,-2.6537,-2.6537,-2.6425,-2.6304,-2.6118,-2.5864,-2.5696,-2.5532,-2.5294,-2.5013,-2.4806,-2.4556,-2.4367,-2.5893,-2.5893,-2.6064,-2.6111,-2.615,-2.6301,-2.6467,-2.6536,-2.6857,-2.6607,-2.6186,-2.6433,-2.6391,-2.6068,-2.5993,-2.613,-2.6277,-2.574,-2.5431,-2.5445,-2.5592,-2.5746,-2.5897,-2.6079,-2.6222,-2.633,-2.6556,-2.6742,-2.6909,-2.7047,-2.7135,-2.723,-2.7355,-2.7518,-2.7701,-2.7789,-2.795,-2.8173,-2.8327,-2.8501,-2.8694,-2.8905,-2.9093,-2.9293,-2.9492,-2.9683,-2.9798,-2.9975,-3.0137,-3.0224,-3.0402,-3.0559,-3.0688,-3.0759,-3.0791,-3.0796,-3.0742,-3.0686,-3.0599,-3.054,-3.0431,-3.0296,-3.0185,-3.0049,-2.99,-2.9762,-2.9626,-2.9434,-2.9332,-2.9249,-2.9134,-2.9044,-2.9021,-2.8984,-2.8947,-2.881,-2.8671,-2.8596,-2.8484,-2.8237,-2.8071,-2.794,-2.7798,-2.7689,-2.7617,-2.7587,-2.7518,-2.7426,-2.7261,-2.7207,-2.7143,-2.7031,-2.6942,-2.6842,-2.6733,-2.6657,-2.6606,-2.658,-2.6615,-2.6606,-2.6563,-2.6503,-2.6468,-2.6434,-2.6277,-2.6162,-2.5946,-2.5696,-2.5508,-2.5341,-2.51,-2.4894,-2.4686,-2.4482,-2.4276,-2.5286,-2.5286,-2.5453,-2.555,-2.5646,-2.5872,-2.6042,-2.6197,-2.6464,-2.6493,-2.6445,-2.6718,-2.6819,-2.6688,-2.6422,-2.6391,-2.6647,-2.6058,-2.5699,-2.5612,-2.5408,-2.5394,-2.5508,-2.5683,-2.595,-2.6222,-2.6365,-2.6512,-2.6666,-2.6767,-2.6875,-2.7031,-2.7166,-2.7293,-2.7391,-2.7603,-2.7827,-2.8062,-2.8255,-2.8458,-2.8703,-2.8881,-2.9093,-2.9293,-2.9541,-2.9738,-2.9859,-3.0026,-3.0152,-3.0266,-3.0415,-3.0576,-3.0738,-3.0787,-3.0791,-3.0794,-3.0741,-3.0689,-3.0592,-3.0497,-3.0375,-3.0272,-3.0157,-3.0022,-2.9842,-2.9709,-2.9551,-2.9353,-2.9279,-2.9169,-2.9062,-2.8984,-2.8929,-2.8929,-2.8785,-2.8687,-2.8571,-2.8424,-2.8191,-2.7922,-2.7827,-2.7739,-2.763,-2.7487,-2.7434,-2.7364,-2.7261,-2.7207,-2.7087,-2.7047,-2.7031,-2.695,-2.6842,-2.6733,-2.6606,-2.6503,-2.6442,-2.645,-2.645,-2.6442,-2.6407,-2.6364,-2.6329,-2.625,-2.6126,-2.5946,-2.5733,-2.5554,-2.5363,-2.517,-2.4926,-2.4726,-2.4572,-2.4367,-2.4158,-2.4657,-2.4701,-2.4878,-2.4978,-2.5077,-2.5328,-2.5564,-2.577,-2.5913,-2.6075,-2.6244,-2.6546,-2.6712,-2.6768,-2.6572,-2.6627,-2.6837,-2.6265,-2.6053,-2.6066,-2.5552,-2.5242,-2.5179,-2.5371,-2.5675,-2.5954,-2.6099,-2.625,-2.6442,-2.6512,-2.6632,-2.6817,-2.6965,-2.7094,-2.7221,-2.7509,-2.7727,-2.7922,-2.8191,-2.8423,-2.8653,-2.8891,-2.9093,-2.9303,-2.9569,-2.9746,-2.9893,-3.0047,-3.0175,-3.0321,-3.0471,-3.0632,-3.0779,-3.0794,-3.0789,-3.0781,-3.0735,-3.0658,-3.0576,-3.0463,-3.0333,-3.0222,-3.0113,-2.9965,-2.9798,-2.9645,-2.9491,-2.934,-2.9191,-2.9067,-2.8984,-2.8858,-2.8767,-2.8752,-2.8685,-2.8543,-2.8432,-2.8164,-2.7931,-2.768,-2.7552,-2.747,-2.7386,-2.727,-2.7224,-2.7143,-2.7079,-2.7014,-2.6933,-2.69,-2.6842,-2.6784,-2.6683,-2.658,-2.6485,-2.638,-2.631,-2.6274,-2.6274,-2.6231,-2.6231,-2.6151,-2.6107,-2.599,-2.5873,-2.5762,-2.5546,-2.5378,-2.5185,-2.495,-2.4759,-2.4597,-2.4434,-2.4242,-2.4074,-2.406,-2.406,-2.4343,-2.4465,-2.4523,-2.4828,-2.4998,-2.5167,-2.5307,-2.5474,-2.5667,-2.5941,-2.615,-2.6229,-2.6318,-2.6575,-2.6931,-2.6432,-2.6275,-2.6336,-2.596,-2.5408,-2.5081,-2.5203,-2.5424,-2.5663,-2.5836,-2.5979,-2.6159,-2.6277,-2.6435,-2.6632,-2.67,-2.6858,-2.7126,-2.7395,-2.76,-2.7827,-2.8119,-2.838,-2.8621,-2.8876,-2.9102,-2.9293,-2.955,-2.9756,-2.9898,-3.0094,-3.0257,-3.0342,-3.0556,-3.071,-3.0779,-3.079,-3.0793,-3.0793,-3.074,-3.0639,-3.0529,-3.0439,-3.032,-3.018,-3.0044,-2.9907,-2.9709,-2.9579,-2.9431,-2.9283,-2.9108,-2.8961,-2.8858,-2.8712,-2.8578,-2.8509,-2.8498,-2.836,-2.809,-2.7844,-2.7659,-2.7478,-2.7315,-2.7149,-2.7103,-2.7023,-2.6975,-2.6975,-2.6942,-2.6834,-2.675,-2.6683,-2.6615,-2.6563,-2.6511,-2.6399,-2.6266,-2.6151,-2.6043,-2.5987,-2.5979,-2.5962,-2.5962,-2.5917,-2.5844,-2.5725,-2.5621,-2.5508,-2.5386,-2.5232,-2.5029,-2.4839,-2.4678,-2.4508,-2.4351,-2.4151,-2.3982,-2.3371,-2.3365,-2.3727,-2.3845,-2.3904,-2.4196,-2.4421,-2.4529,-2.4681,-2.4858,-2.5055,-2.5342,-2.5488,-2.5632,-2.5818,-2.6136,-2.6393,-2.6323,-2.6206,-2.6229,-2.6113,-2.5773,-2.538,-2.5147,-2.5201,-2.5386,-2.5546,-2.5741,-2.5836,-2.6063,-2.625,-2.6329,-2.6572,-2.6767,-2.699,-2.7279,-2.7518,-2.7739,-2.8063,-2.8344,-2.8587,-2.8867,-2.9102,-2.9312,-2.9568,-2.9747,-2.9905,-3.0203,-3.0402,-3.053,-3.063,-3.0728,-3.0789,-3.0793,-3.0796,-3.0779,-3.0735,-3.0636,-3.0511,-3.0381,-3.0266,-3.0123,-2.9975,-2.979,-2.9645,-2.9463,-2.93,-2.9156,-2.8998,-2.8848,-2.8712,-2.8545,-2.8379,-2.8201,-2.8156,-2.8064,-2.7844,-2.7668,-2.7487,-2.7324,-2.7135,-2.7023,-2.6933,-2.68,-2.6725,-2.6683,-2.6683,-2.6606,-2.6521,-2.6521,-2.646,-2.6382,-2.6285,-2.6178,-2.6063,-2.5909,-2.5807,-2.572,-2.5675,-2.5642,-2.5642,-2.5642,-2.5567,-2.5492,-2.5394,-2.5286,-2.517,-2.5053,-2.4894,-2.4686,-2.4515,-2.4343,-2.4227,-2.4032,-2.389,-2.2726,-2.272,-2.2963,-2.3138,-2.3192,-2.349,-2.3727,-2.3904,-2.4073,-2.4234,-2.4414,-2.4701,-2.4858,-2.5021,-2.5203,-2.5536,-2.5899,-2.5906,-2.6016,-2.6177,-2.6095,-2.5779,-2.5323,-2.4924,-2.4791,-2.5005,-2.524,-2.5386,-2.553,-2.5824,-2.597,-2.6143,-2.64,-2.6607,-2.6825,-2.7111,-2.7386,-2.7621,-2.7959,-2.8246,-2.8519,-2.8795,-2.9012,-2.9267,-2.9528,-2.9738,-3.0009,-3.027,-3.0458,-3.0576,-3.0668,-3.0725,-3.0794,-3.0788,-3.0789,-3.0767,-3.0707,-3.0601,-3.0501,-3.0366,-3.0238,-3.0097,-2.9919,-2.9728,-2.956,-2.9362,-2.9203,-2.9035,-2.8872,-2.8703,-2.851,-2.8291,-2.8057,-2.7822,-2.7701,-2.7587,-2.7543,-2.7402,-2.7215,-2.7029,-2.6833,-2.6716,-2.6657,-2.6529,-2.646,-2.6434,-2.6399,-2.6355,-2.6277,-2.6293,-2.6258,-2.6099,-2.6018,-2.5909,-2.5762,-2.5605,-2.5492,-2.541,-2.5248,-2.5216,-2.5285,-2.5293,-2.5224,-2.5154,-2.5131,-2.506,-2.4934,-2.4806,-2.4645,-2.4475,-2.431,-2.4177,-2.4017,-2.3897,-2.3797,-2.2129,-2.2129,-2.2235,-2.2347,-2.2525,-2.2714,-2.2963,-2.3277,-2.3384,-2.3537,-2.3695,-2.4002,-2.4234,-2.4408,-2.4593,-2.4865,-2.5294,-2.5287,-2.568,-2.5913,-2.5959,-2.5612,-2.4942,-2.4686,-2.4539,-2.462,-2.4839,-2.5084,-2.5278,-2.5486,-2.572,-2.5962,-2.6162,-2.6392,-2.6674,-2.6973,-2.7239,-2.7518,-2.7844,-2.8136,-2.8415,-2.8696,-2.8961,-2.9222,-2.9531,-2.9816,-3.0094,-3.0318,-3.0468,-3.0605,-3.0668,-3.0721,-3.078,-3.0791,-3.0767,-3.0718,-3.0654,-3.0575,-3.0478,-3.035,-3.0185,-3.0041,-2.9859,-2.9701,-2.9482,-2.9277,-2.9058,-2.8863,-2.8669,-2.8493,-2.8282,-2.797,-2.7694,-2.7476,-2.723,-2.718,-2.7221,-2.7078,-2.6859,-2.67,-2.6479,-2.6314,-2.6252,-2.6189,-2.6134,-2.609,-2.6063,-2.6063,-2.5982,-2.5982,-2.5873,-2.5717,-2.5642,-2.5605,-2.5454,-2.5301,-2.5146,-2.5045,-2.4839,-2.4743,-2.4855,-2.4863,-2.4839,-2.4814,-2.4766,-2.4678,-2.4589,-2.4467,-2.4392,-2.4268,-2.4094,-2.3959,-2.3839,-2.3711,-2.3574,-2.1429,-2.1417,-2.1526,-2.1708,-2.1901,-2.2075,-2.2217,-2.2426,-2.2604,-2.2763,-2.2878,-2.3071,-2.3431,-2.3793,-2.3852,-2.4183,-2.461,-2.4731,-2.5021,-2.5542,-2.5536,-2.5178,-2.4773,-2.4672,-2.4562,-2.4399,-2.4541,-2.4799,-2.5053,-2.5248,-2.5486,-2.572,-2.5954,-2.6208,-2.6487,-2.685,-2.7192,-2.7496,-2.7833,-2.8118,-2.8389,-2.8646,-2.8938,-2.9212,-2.9608,-2.9888,-3.0109,-3.0308,-3.0469,-3.0575,-3.0655,-3.0721,-3.0786,-3.0791,-3.0764,-3.0699,-3.0642,-3.054,-3.0423,-3.0255,-3.0054,-2.9886,-2.97,-2.9511,-2.9337,-2.9102,-2.8887,-2.8685,-2.8475,-2.8219,-2.7853,-2.7668,-2.74,-2.7148,-2.6899,-2.6725,-2.6624,-2.6586,-2.6512,-2.6426,-2.6181,-2.5982,-2.5982,-2.5791,-2.5754,-2.5717,-2.5725,-2.5725,-2.5688,-2.5642,-2.553,-2.5378,-2.5301,-2.5262,-2.506,-2.491,-2.4751,-2.4622,-2.4418,-2.4261,-2.4369,-2.4459,-2.4434,-2.4434,-2.4426,-2.4294,-2.4204,-2.4162,-2.412,-2.3994,-2.3875,-2.3739,-2.361,-2.3523,-2.3443,-2.07,-2.0694,-2.0741,-2.0875,-2.1071,-2.1256,-2.1394,-2.16,-2.1851,-2.1963,-2.2081,-2.2328,-2.2628,-2.2919,-2.3071,-2.3418,-2.3865,-2.4279,-2.4624,-2.5009,-2.5174,-2.4934,-2.4376,-2.4461,-2.4409,-2.3968,-2.4177,-2.4434,-2.4678,-2.4918,-2.5201,-2.5486,-2.577,-2.609,-2.6365,-2.675,-2.7047,-2.7355,-2.7698,-2.8016,-2.83,-2.8562,-2.8919,-2.9258,-2.9645,-2.9914,-3.0104,-3.0286,-3.0449,-3.0585,-3.0671,-3.0731,-3.0792,-3.079,-3.0771,-3.0699,-3.0607,-3.0492,-3.0344,-3.0203,-3.0003,-2.9774,-2.956,-2.9351,-2.9169,-2.8919,-2.866,-2.8431,-2.8228,-2.7959,-2.7478,-2.7253,-2.7029,-2.6747,-2.6497,-2.6289,-2.613,-2.6118,-2.6162,-2.6082,-2.5844,-2.5704,-2.5546,-2.5424,-2.5339,-2.5301,-2.5309,-2.5309,-2.5309,-2.5262,-2.5146,-2.5037,-2.4997,-2.4878,-2.4678,-2.4515,-2.4351,-2.417,-2.3986,-2.3867,-2.3875,-2.3967,-2.4017,-2.4009,-2.4036,-2.3944,-2.3852,-2.3852,-2.3817,-2.3703,-2.3617,-2.3523,-2.3428,-2.3304,-2.326,-1.9911,-1.9906,-1.9911,-2.0031,-2.0226,-2.0372,-2.0571,-2.0769,-2.1014,-2.1193,-2.1262,-2.1571,-2.1747,-2.199,-2.2255,-2.2561,-2.3094,-2.3689,-2.4157,-2.4368,-2.4664,-2.4346,-2.3872,-2.3872,-2.38,-2.3474,-2.3754,-2.4009,-2.4302,-2.4589,-2.4878,-2.5232,-2.5592,-2.5917,-2.6233,-2.6623,-2.6925,-2.7198,-2.7509,-2.7827,-2.8146,-2.8449,-2.8854,-2.9312,-2.9636,-2.9881,-3.0075,-3.0276,-3.0459,-3.0593,-3.0659,-3.0731,-3.078,-3.0788,-3.0778,-3.0709,-3.0579,-3.0443,-3.0296,-3.0142,-2.9952,-2.9711,-2.9482,-2.9237,-2.8971,-2.8718,-2.8431,-2.8156,-2.7884,-2.76,-2.7158,-2.6891,-2.6623,-2.6328,-2.6065,-2.5815,-2.5644,-2.5686,-2.5645,-2.568,-2.5416,-2.5193,-2.5123,-2.4997,-2.4926,-2.4886,-2.4886,-2.4886,-2.4878,-2.4839,-2.467,-2.4549,-2.45,-2.441,-2.4211,-2.4044,-2.389,-2.3746,-2.3595,-2.3472,-2.34,-2.3392,-2.348,-2.361,-2.3602,-2.3551,-2.3465,-2.3421,-2.3392,-2.3363,-2.3312,-2.3157,-2.312,-2.309,-2.3038,-1.9008,-1.9008,-1.9203,-1.932,-1.9436,-1.9502,-1.972,-2.0064,-2.0118,-2.0307,-2.056,-2.0613,-2.0869,-2.1181,-2.1313,-2.1747,-2.247,-2.3015,-2.3427,-2.3619,-2.3774,-2.3452,-2.3075,-2.3018,-2.2887,-2.284,-2.3187,-2.3675,-2.4024,-2.4268,-2.4549,-2.4895,-2.5232,-2.5575,-2.5974,-2.6295,-2.6674,-2.7014,-2.7355,-2.768,-2.8007,-2.8388,-2.8797,-2.9303,-2.9608,-2.9846,-3.0032,-3.026,-3.0461,-3.0584,-3.0664,-3.074,-3.0784,-3.0797,-3.0758,-3.0689,-3.0552,-3.0414,-3.0232,-3.0032,-2.9803,-2.9561,-2.9342,-2.9071,-2.8791,-2.8492,-2.8156,-2.7751,-2.7408,-2.7047,-2.6725,-2.6479,-2.6181,-2.5872,-2.5607,-2.5335,-2.5116,-2.494,-2.4878,-2.4918,-2.4775,-2.467,-2.4589,-2.4508,-2.441,-2.4369,-2.4328,-2.4294,-2.4294,-2.4253,-2.4162,-2.4044,-2.3917,-2.3824,-2.3731,-2.3566,-2.3407,-2.3356,-2.3209,-2.3016,-2.2942,-2.2897,-2.2934,-2.3024,-2.3157,-2.3165,-2.3076,-2.3031,-2.2986,-2.2942,-2.2889,-2.2792,-2.2761,-2.2723,-2.2685,-1.8061,-1.8134,-1.8254,-1.838,-1.8509,-1.8721,-1.8865,-1.9059,-1.9126,-1.9325,-1.9523,-1.9715,-1.9901,-2.0155,-2.0484,-2.1037,-2.1676,-2.2145,-2.2365,-2.2505,-2.2687,-2.2467,-2.2061,-2.2094,-2.2114,-2.2136,-2.2495,-2.309,-2.3625,-2.3932,-2.4204,-2.4541,-2.4902,-2.5293,-2.5709,-2.6093,-2.6444,-2.6842,-2.7213,-2.7543,-2.7913,-2.8388,-2.8868,-2.92,-2.9532,-2.9786,-3.0017,-3.0254,-3.046,-3.0584,-3.0673,-3.074,-3.0775,-3.0788,-3.0764,-3.0685,-3.0545,-3.0362,-3.0168,-2.9956,-2.9718,-2.9427,-2.9184,-2.8863,-2.8534,-2.8192,-2.78,-2.7312,-2.6915,-2.6504,-2.6191,-2.5985,-2.5672,-2.5338,-2.5056,-2.4808,-2.4511,-2.4254,-2.4158,-2.4188,-2.4204,-2.4135,-2.4128,-2.3994,-2.3852,-2.3809,-2.3817,-2.3739,-2.3696,-2.3653,-2.361,-2.3516,-2.3392,-2.3341,-2.3246,-2.3076,-2.2956,-2.2859,-2.2761,-2.2618,-2.2533,-2.2441,-2.2388,-2.2427,-2.2526,-2.2625,-2.2678,-2.2593,-2.2579,-2.2526,-2.248,-2.2441,-2.2402,-2.241,-2.2317,-1.7045,-1.7045,-1.7331,-1.7423,-1.7496,-1.7774,-1.791,-1.8051,-1.8104,-1.8312,-1.8529,-1.8669,-1.8849,-1.9166,-1.9617,-2.0219,-2.0642,-2.0968,-2.1043,-2.1086,-2.1335,-2.1263,-2.1082,-2.1095,-2.1237,-2.1325,-2.1684,-2.2249,-2.3083,-2.3487,-2.3832,-2.4162,-2.455,-2.4997,-2.543,-2.5787,-2.6183,-2.659,-2.6987,-2.7365,-2.7878,-2.8422,-2.8896,-2.9157,-2.9446,-2.9751,-3.0006,-3.026,-3.0459,-3.0566,-3.0661,-3.074,-3.0779,-3.0788,-3.0763,-3.0661,-3.0501,-3.0314,-3.0099,-2.9869,-2.9598,-2.9307,-2.9021,-2.8653,-2.8201,-2.78,-2.7312,-2.6766,-2.6375,-2.603,-2.5721,-2.5422,-2.5075,-2.4728,-2.4449,-2.4182,-2.3877,-2.3599,-2.3371,-2.3422,-2.3553,-2.353,-2.3421,-2.3414,-2.3223,-2.3223,-2.3187,-2.3157,-2.312,-2.3083,-2.3038,-2.2949,-2.2859,-2.2814,-2.2716,-2.2579,-2.2495,-2.2395,-2.2256,-2.2109,-2.2077,-2.199,-2.1983,-2.1921,-2.1935,-2.203,-2.2091,-2.2137,-2.2077,-2.203,-2.2037,-2.2044,-2.199,-2.1935,-2.1888,-1.5738,-1.5769,-1.6229,-1.645,-1.6446,-1.6511,-1.6793,-1.7001,-1.707,-1.7285,-1.7501,-1.755,-1.7794,-1.8145,-1.8767,-1.9042,-1.9126,-1.9413,-1.9655,-1.9631,-1.9668,-1.9773,-1.9855,-1.9843,-2.0136,-2.039,-2.0894,-2.1725,-2.2434,-2.2897,-2.3341,-2.3724,-2.4147,-2.4566,-2.4989,-2.5414,-2.5823,-2.621,-2.6632,-2.7241,-2.7897,-2.8378,-2.8767,-2.9097,-2.9395,-2.9716,-2.9969,-3.0244,-3.0448,-3.0593,-3.0668,-3.0739,-3.079,-3.0734,-3.0678,-3.0589,-3.0463,-3.0297,-3.0027,-2.9767,-2.9472,-2.9159,-2.8864,-2.8483,-2.7897,-2.7232,-2.6699,-2.6245,-2.5905,-2.5535,-2.5145,-2.4871,-2.4502,-2.4116,-2.3791,-2.3484,-2.3164,-2.2881,-2.2662,-2.247,-2.2572,-2.2656,-2.2649,-2.2596,-2.2596,-2.2596,-2.2603,-2.2526,-2.2487,-2.2487,-2.2449,-2.2349,-2.231,-2.2263,-2.221,-2.2123,-2.1983,-2.1888,-2.1739,-2.1595,-2.1547,-2.1506,-2.1513,-2.1458,-2.1465,-2.1465,-2.1506,-2.1554,-2.1513,-2.1513,-2.1506,-2.1513,-2.1471,-2.1465,-2.1451,-1.3739,-1.4453,-1.4882,-1.52,-1.5376,-1.5609,-1.5754,-1.5899,-1.5965,-1.6105,-1.6262,-1.6195,-1.6337,-1.6656,-1.7111,-1.7342,-1.757,-1.7909,-1.8126,-1.8254,-1.8274,-1.8363,-1.8487,-1.8714,-1.9062,-1.9451,-1.9984,-2.0503,-2.1376,-2.2249,-2.2897,-2.3201,-2.3673,-2.4113,-2.451,-2.4958,-2.5392,-2.5896,-2.6479,-2.7129,-2.7716,-2.8192,-2.8567,-2.8911,-2.9254,-2.958,-2.9911,-3.0174,-3.0367,-3.0528,-3.0639,-3.0734,-3.0761,-3.0728,-3.0656,-3.0543,-3.0382,-3.019,-2.9987,-2.9661,-2.9323,-2.8934,-2.856,-2.8029,-2.7317,-2.6657,-2.6093,-2.5639,-2.5299,-2.491,-2.4461,-2.4124,-2.3686,-2.3348,-2.2987,-2.2732,-2.241,-2.2129,-2.1884,-2.1739,-2.1595,-2.1623,-2.1704,-2.1759,-2.1806,-2.1908,-2.1908,-2.1827,-2.1834,-2.1834,-2.1786,-2.1786,-2.1746,-2.1752,-2.1698,-2.1602,-2.1465,-2.1368,-2.1251,-2.1104,-2.1006,-2.0963,-2.0963,-2.0921,-2.0871,-2.0871,-2.0963,-2.1013,-2.1062,-2.1062,-2.1013,-2.1019,-2.1026,-2.097,-2.0963,-1.164,-1.2669,-1.337,-1.3832,-1.3987,-1.4288,-1.4417,-1.4499,-1.4475,-1.4624,-1.4845,-1.4815,-1.4868,-1.5068,-1.5315,-1.5679,-1.59,-1.6282,-1.6471,-1.6622,-1.6906,-1.7073,-1.7231,-1.7595,-1.8027,-1.8483,-1.8998,-1.9515,-2.0226,-2.1077,-2.1894,-2.2618,-2.3061,-2.3544,-2.4021,-2.4469,-2.4895,-2.5639,-2.6298,-2.6905,-2.7435,-2.7915,-2.8308,-2.8679,-2.906,-2.9446,-2.9793,-3.0071,-3.0268,-3.0491,-3.0639,-3.0734,-3.0781,-3.0732,-3.0649,-3.0517,-3.0338,-3.0085,-2.9832,-2.9523,-2.9163,-2.87,-2.8049,-2.7383,-2.6657,-2.6057,-2.5535,-2.5005,-2.4527,-2.4116,-2.3651,-2.3253,-2.2794,-2.2423,-2.2107,-2.1846,-2.1595,-2.1289,-2.1047,-2.0825,-2.066,-2.051,-2.0603,-2.0802,-2.1006,-2.1166,-2.1173,-2.1124,-2.1118,-2.1111,-2.1111,-2.1111,-2.1111,-2.1166,-2.116,-2.1068,-2.0983,-2.0891,-2.0723,-2.0616,-2.0516,-2.0409,-2.0403,-2.0365,-2.0321,-2.0315,-2.0403,-2.0503,-2.0653,-2.061,-2.0623,-2.0573,-2.0529,-2.0523,-2.0523,-0.9587,-0.9931,-1.1523,-1.2208,-1.233,-1.2294,-1.2456,-1.2658,-1.2617,-1.2814,-1.3149,-1.3404,-1.3502,-1.3707,-1.3941,-1.4165,-1.4123,-1.4528,-1.4775,-1.497,-1.5205,-1.5629,-1.5958,-1.6415,-1.6866,-1.7302,-1.7858,-1.8442,-1.902,-1.9606,-2.072,-2.1786,-2.226,-2.2763,-2.3304,-2.3814,-2.4511,-2.5229,-2.5892,-2.6479,-2.7042,-2.7538,-2.7973,-2.8421,-2.8846,-2.9256,-2.9607,-2.9899,-3.0196,-3.0452,-3.0598,-3.0715,-3.0758,-3.0726,-3.0646,-3.0508,-3.0239,-2.9945,-2.9596,-2.929,-2.8961,-2.8359,-2.7563,-2.664,-2.5947,-2.5443,-2.4902,-2.4284,-2.3706,-2.3201,-2.2763,-2.2314,-2.1771,-2.1383,-2.1037,-2.0799,-2.0564,-2.0327,-2.0067,-1.9914,-1.9753,-1.9592,-1.9488,-1.9676,-2.0163,-2.0372,-2.0472,-2.0422,-2.0372,-2.0372,-2.0422,-2.0422,-2.0466,-2.0516,-2.061,-2.0566,-2.0479,-2.0385,-2.0271,-2.0169,-2.0022,-1.9965,-1.985,-1.9856,-1.9811,-1.9805,-1.985,-1.9952,-2.0055,-2.0169,-2.0226,-2.0125,-2.0125,-2.0125,-2.0125,-0.8481,-0.8504,-0.911,-1.0001,-1.1005,-1.1538,-1.1528,-1.1214,-1.1126,-1.1154,-1.1406,-1.1591,-1.168,-1.1754,-1.2018,-1.228,-1.2336,-1.2769,-1.3165,-1.3541,-1.3846,-1.4259,-1.4732,-1.5138,-1.5598,-1.6005,-1.6569,-1.7074,-1.7556,-1.8161,-1.885,-1.9857,-2.0968,-2.192,-2.2508,-2.3187,-2.4051,-2.4704,-2.5289,-2.5855,-2.6445,-2.7025,-2.7551,-2.802,-2.8478,-2.8925,-2.9318,-2.9661,-3.0003,-3.0273,-3.0458,-3.0608,-3.072,-3.0704,-3.0629,-3.0471,-3.0149,-2.973,-2.9275,-2.8977,-2.8535,-2.7549,-2.6731,-2.5947,-2.5173,-2.4569,-2.3952,-2.3354,-2.2675,-2.2086,-2.1684,-2.1148,-2.0657,-2.0263,-1.9902,-1.9639,-1.9374,-1.9113,-1.8961,-1.8756,-1.8673,-1.8584,-1.8536,-1.8483,-1.9028,-1.9571,-1.9617,-1.9662,-1.961,-1.961,-1.9656,-1.9708,-1.9753,-1.9862,-1.9959,-1.9959,-1.9965,-1.9869,-1.9766,-1.9662,-1.9506,-1.9408,-1.9297,-1.9297,-1.9297,-1.9291,-1.9344,-1.9402,-1.9558,-1.9766,-1.9766,-1.9662,-1.9668,-1.9726,-1.9778,-0.7323,-0.719,-0.712,-0.7942,-0.9386,-1.0054,-1.0054,-0.9599,-0.9434,-0.9498,-0.9655,-0.978,-0.9823,-0.9923,-1.0145,-1.0468,-1.072,-1.1153,-1.1586,-1.2008,-1.2439,-1.2805,-1.3291,-1.3773,-1.4186,-1.4551,-1.508,-1.5583,-1.6156,-1.6666,-1.7203,-1.8103,-1.9267,-2.0223,-2.1568,-2.2448,-2.3318,-2.3903,-2.444,-2.5065,-2.5668,-2.6275,-2.6871,-2.7396,-2.7921,-2.8399,-2.8842,-2.9243,-2.9666,-2.9989,-3.0257,-3.0489,-3.0609,-3.0641,-3.0568,-3.0318,-2.9956,-2.9503,-2.895,-2.8361,-2.7802,-2.6771,-2.5821,-2.5018,-2.4271,-2.3518,-2.2736,-2.199,-2.1335,-2.0759,-2.0231,-1.9647,-1.9117,-1.8596,-1.8431,-1.8115,-1.791,-1.7698,-1.7654,-1.7556,-1.7468,-1.7307,-1.7307,-1.7307,-1.7869,-1.8417,-1.8697,-1.875,-1.875,-1.881,-1.8875,-1.8975,-1.9022,-1.9133,-1.9297,-1.9291,-1.9285,-1.9233,-1.9133,-1.9028,-1.8928,-1.8833,-1.8727,-1.8721,-1.8721,-1.8721,-1.8774,-1.8774,-1.904,-1.9356,-1.9303,-1.9303,-1.9303,-1.9356,-1.9356,-0.6079,-0.5888,-0.5747,-0.6348,-0.7372,-0.7475,-0.7557,-0.7593,-0.7515,-0.763,-0.7877,-0.8132,-0.826,-0.8291,-0.86,-0.8851,-0.9166,-0.9482,-0.9926,-1.0435,-1.0819,-1.1197,-1.1695,-1.212,-1.2606,-1.3057,-1.3528,-1.3994,-1.466,-1.4978,-1.5496,-1.6074,-1.7037,-1.8354,-2.0149,-2.1225,-2.2104,-2.2781,-2.3259,-2.396,-2.4642,-2.5306,-2.5952,-2.6514,-2.716,-2.7644,-2.8102,-2.8629,-2.9089,-2.9544,-2.9955,-3.0259,-3.0523,-3.0565,-3.0487,-3.0278,-2.9743,-2.9066,-2.8275,-2.7473,-2.6505,-2.5724,-2.476,-2.3815,-2.2988,-2.2154,-2.124,-2.0341,-1.9641,-1.8976,-1.8413,-1.7821,-1.733,-1.6932,-1.6709,-1.649,-1.6218,-1.6064,-1.6007,-1.6017,-1.5928,-1.5833,-1.5891,-1.6063,-1.6636,-1.7146,-1.7606,-1.7776,-1.7831,-1.7892,-1.8007,-1.8116,-1.8164,-1.8327,-1.8435,-1.8554,-1.8554,-1.8554,-1.8494,-1.8446,-1.8344,-1.8242,-1.8193,-1.8139,-1.8078,-1.8067,-1.8078,-1.809,-1.829,-1.8441,-1.8875,-1.8934,-1.8987,-1.8987,-1.8881,-0.4815,-0.4615,-0.4548,-0.4613,-0.4942,-0.5738,-0.6069,-0.5999,-0.6001,-0.6133,-0.6266,-0.6465,-0.6595,-0.6724,-0.6983,-0.7237,-0.743,-0.7944,-0.8393,-0.8648,-0.9105,-0.9554,-0.9993,-1.0425,-1.0864,-1.1319,-1.1753,-1.2177,-1.2736,-1.3124,-1.3614,-1.4205,-1.5056,-1.6871,-1.8731,-1.9927,-2.0608,-2.1356,-2.1976,-2.2655,-2.3408,-2.4135,-2.4807,-2.5381,-2.6045,-2.6626,-2.7113,-2.768,-2.8266,-2.8882,-2.9322,-2.987,-3.0235,-3.0353,-3.0311,-2.9955,-2.9342,-2.7902,-2.6273,-2.4887,-2.4264,-2.3825,-2.3346,-2.2248,-2.1336,-2.0338,-1.9393,-1.8484,-1.7562,-1.6878,-1.6362,-1.5847,-1.5336,-1.4912,-1.4683,-1.4512,-1.4296,-1.42,-1.4155,-1.4282,-1.43,-1.4291,-1.4346,-1.4464,-1.4925,-1.552,-1.5918,-1.6641,-1.6882,-1.7011,-1.7072,-1.719,-1.7296,-1.7401,-1.7567,-1.7617,-1.7782,-1.7831,-1.7837,-1.7799,-1.775,-1.759,-1.7473,-1.7407,-1.7357,-1.7362,-1.7357,-1.7301,-1.7307,-1.7518,-1.7892,-1.8278,-1.8338,-1.8344,-1.835,-0.355,-0.3349,-0.328,-0.308,-0.3082,-0.4213,-0.4678,-0.461,-0.461,-0.4613,-0.4749,-0.4815,-0.4946,-0.514,-0.5337,-0.5601,-0.5731,-0.6119,-0.6645,-0.6837,-0.73,-0.7752,-0.8197,-0.8578,-0.8962,-0.9418,-0.9799,-1.017,-1.0596,-1.0968,-1.1585,-1.2322,-1.3103,-1.4286,-1.6084,-1.7371,-1.8865,-1.9578,-2.0222,-2.0868,-2.1638,-2.2419,-2.3198,-2.3796,-2.4485,-2.5158,-2.5791,-2.6441,-2.7095,-2.7771,-2.8513,-2.9217,-2.9677,-3.0017,-2.9965,-2.9506,-2.7697,-2.5902,-2.3638,-2.1657,-2.0911,-2.0246,-2.054,-2.0171,-1.9076,-1.7842,-1.6808,-1.5895,-1.5123,-1.4366,-1.3738,-1.3288,-1.2916,-1.2429,-1.232,-1.2149,-1.1966,-1.1863,-1.1932,-1.2131,-1.2338,-1.246,-1.272,-1.2915,-1.3149,-1.3691,-1.4232,-1.4953,-1.5733,-1.5916,-1.6041,-1.6156,-1.6327,-1.6487,-1.6601,-1.6724,-1.6832,-1.7051,-1.7,-1.6955,-1.6899,-1.6729,-1.6673,-1.6678,-1.6616,-1.6554,-1.6565,-1.6513,-1.6503,-1.6616,-1.6893,-1.7285,-1.7628,-1.7744,-1.7744,-0.2214,-0.2013,-0.1878,-0.1743,-0.1743,-0.2679,-0.3149,-0.3148,-0.3148,-0.3148,-0.3149,-0.3282,-0.3347,-0.3415,-0.3546,-0.3808,-0.4073,-0.4204,-0.4604,-0.5069,-0.5394,-0.5857,-0.625,-0.6637,-0.6956,-0.7284,-0.7668,-0.7976,-0.8361,-0.887,-0.9506,-1.021,-1.0694,-1.1572,-1.2862,-1.4324,-1.614,-1.7202,-1.8112,-1.8762,-1.9484,-2.0329,-2.0968,-2.1625,-2.2328,-2.3046,-2.37,-2.438,-2.5206,-2.6145,-2.7148,-2.8177,-2.8966,-2.9552,-2.9335,-2.7979,-2.534,-2.2715,-2.0233,-1.8202,-1.6437,-1.5579,-1.6224,-1.6498,-1.6121,-1.4806,-1.3853,-1.2927,-1.2116,-1.1276,-1.0564,-1.0253,-0.9881,-0.9769,-0.9722,-0.9539,-0.9352,-0.9358,-0.9485,-0.968,-1.0011,-1.0273,-1.0725,-1.0989,-1.1162,-1.1673,-1.2212,-1.2838,-1.3682,-1.4664,-1.4787,-1.504,-1.5211,-1.5439,-1.556,-1.568,-1.5801,-1.5963,-1.5968,-1.5921,-1.5869,-1.5864,-1.5801,-1.5743,-1.5806,-1.5753,-1.5584,-1.5642,-1.5753,-1.5869,-1.5921,-1.6384,-1.6832,-1.7067,-1.7128,-0.0806,-0.0604,-0.0537,-0.0403,-0.0134,-0.0201,-0.0738,-0.1611,-0.1544,-0.1477,-0.1477,-0.1407,-0.1406,-0.1405,-0.1741,-0.194,-0.214,-0.2409,-0.2679,-0.3077,-0.3405,-0.3872,-0.4204,-0.4531,-0.4924,-0.5186,-0.551,-0.5701,-0.6161,-0.6683,-0.7133,-0.7713,-0.8081,-0.8582,-0.9385,-1.0423,-1.2454,-1.4257,-1.5303,-1.6231,-1.6934,-1.7712,-1.8358,-1.8998,-1.9671,-2.0331,-2.0938,-2.1662,-2.247,-2.338,-2.4795,-2.6115,-2.7712,-2.8153,-2.7873,-2.4622,-2.1543,-1.8488,-1.5849,-1.3621,-1.1647,-0.9877,-0.9691,-1.0802,-1.1147,-1.1052,-1.0261,-0.9532,-0.8452,-0.7441,-0.6935,-0.6627,-0.6523,-0.6604,-0.6613,-0.6557,-0.6432,-0.6434,-0.6627,-0.723,-0.7495,-0.8096,-0.8553,-0.8951,-0.9131,-0.96,-1.0179,-1.0739,-1.168,-1.2716,-1.3524,-1.3777,-1.4021,-1.4186,-1.4433,-1.4555,-1.4688,-1.4874,-1.481,-1.481,-1.4869,-1.4869,-1.481,-1.4805,-1.4746,-1.4638,-1.4474,-1.4588,-1.481,-1.4824,-1.4942,-1.5459,-1.5921,-1.6156,-1.6389,0.0604,0.0738,0.0805,0.1074,0.141,0.1746,0.1408,0.0737,0.0268,0.0067,0.0134,0.0268,0.0335,0.0268,0.0067,-0.0067,-0.0201,-0.0536,-0.0803,-0.1138,-0.1405,-0.1805,-0.2206,-0.2406,-0.2737,-0.3002,-0.3266,-0.3392,-0.3791,-0.4185,-0.4639,-0.5032,-0.5356,-0.5745,-0.6312,-0.6872,-0.7869,-0.99,-1.1632,-1.3122,-1.3996,-1.4668,-1.5281,-1.5797,-1.645,-1.6994,-1.7514,-1.8223,-1.8994,-1.9793,-2.1212,-2.2739,-2.3946,-2.4249,-2.2815,-1.9406,-1.5677,-1.2476,-0.968,-0.7671,-0.5953,-0.4325,-0.2969,-0.3085,-0.4423,-0.4882,-0.5325,-0.5439,-0.4352,-0.3455,-0.3136,-0.288,-0.3151,-0.3358,-0.3428,-0.3497,-0.3434,-0.3435,-0.3965,-0.4631,-0.5227,-0.5825,-0.629,-0.6687,-0.7084,-0.7534,-0.7988,-0.8572,-0.9657,-1.0927,-1.1862,-1.2431,-1.2683,-1.2866,-1.3114,-1.3291,-1.3476,-1.3597,-1.3597,-1.3661,-1.3799,-1.3799,-1.379,-1.3734,-1.3683,-1.3627,-1.3567,-1.3627,-1.3799,-1.3808,-1.3872,-1.4277,-1.4805,-1.5284,-1.5517,0.1877,0.2078,0.2212,0.2548,0.2886,0.3218,0.3416,0.355,0.2343,0.1742,0.1809,0.1809,0.1876,0.1876,0.1808,0.1674,0.1539,0.1338,0.107,0.0737,0.0669,0.0267,-0.0067,-0.0268,-0.0534,-0.0802,-0.1003,-0.1066,-0.12,-0.1531,-0.1993,-0.2394,-0.2525,-0.285,-0.3241,-0.3501,-0.4132,-0.4887,-0.7103,-0.8861,-1.0281,-1.1034,-1.1525,-1.1959,-1.2447,-1.2994,-1.346,-1.4039,-1.4731,-1.546,-1.6361,-1.7812,-1.74,-1.6906,-1.4981,-1.2255,-0.8072,-0.5412,-0.2841,-0.0972,0.0431,0.1875,0.3035,0.3643,0.2872,0.0317,-0.0704,-0.0514,0.0581,0.1488,0.1945,0.1558,0.1236,0.0913,0.0719,0.0721,0.0788,0.0197,-0.0991,-0.1718,-0.245,-0.3045,-0.3644,-0.4036,-0.4841,-0.5306,-0.584,-0.6367,-0.7277,-0.869,-0.9784,-1.0669,-1.119,-1.1374,-1.1688,-1.1869,-1.2128,-1.2254,-1.2312,-1.2447,-1.2516,-1.2581,-1.2708,-1.2646,-1.2585,-1.2708,-1.2704,-1.2765,-1.2765,-1.2887,-1.2952,-1.3143,-1.3563,-1.4098,-1.4583,0.3215,0.3547,0.3886,0.4088,0.4284,0.4551,0.4817,0.5084,0.494,0.4273,0.3613,0.3547,0.3614,0.3613,0.3479,0.341,0.3343,0.3141,0.2941,0.2807,0.2672,0.2337,0.2007,0.1871,0.1671,0.1471,0.127,0.1268,0.1133,0.0933,0.0667,0.04,0.0333,0.0133,-0.0133,-0.0331,-0.0463,-0.0658,-0.17,-0.4014,-0.5807,-0.6727,-0.7363,-0.7654,-0.8058,-0.8213,-0.8594,-0.8807,-0.9174,-0.9603,-1.0055,-0.9502,-0.7802,-0.6511,-0.4079,-0.1065,0.0797,0.2942,0.4498,0.5946,0.7024,0.7993,0.898,0.9787,0.8896,0.5778,0.4364,0.4954,0.5431,0.6299,0.6645,0.6051,0.5533,0.5153,0.4776,0.4862,0.4882,0.3502,0.2052,0.1194,0.0398,-0.0266,-0.0863,-0.1595,-0.2464,-0.3131,-0.3665,-0.4196,-0.4791,-0.5892,-0.7203,-0.823,-0.9415,-0.9803,-1.0119,-1.0368,-1.062,-1.0815,-1.0874,-1.108,-1.123,-1.141,-1.1461,-1.1476,-1.1479,-1.1531,-1.1593,-1.1666,-1.1729,-1.1841,-1.1965,-1.2155,-1.2286,-1.2769,-1.3385,0.4486,0.4749,0.5214,0.5545,0.5741,0.5943,0.6208,0.6529,0.6721,0.6455,0.5794,0.5472,0.5211,0.5209,0.514,0.5137,0.5137,0.4875,0.4805,0.4738,0.4603,0.4335,0.4138,0.4004,0.3802,0.3601,0.3668,0.36,0.3594,0.3528,0.3392,0.3258,0.319,0.3184,0.2913,0.2979,0.2909,0.2838,0.2901,0.1634,-0.0777,-0.1751,-0.2796,-0.318,-0.3297,-0.3412,-0.327,-0.3378,-0.335,-0.3186,-0.3155,-0.1966,-0.0024,0.1986,0.4498,0.7002,0.9115,1.106,1.2012,1.2729,1.3336,1.3952,1.4502,1.5067,1.5153,1.2375,1.0795,1.1067,0.9877,1.0414,1.0251,0.979,0.938,0.9015,0.8406,0.812,0.7385,0.6234,0.5065,0.4225,0.3435,0.2582,0.2052,0.1594,0.0664,-0.0533,-0.1133,-0.18,-0.2398,-0.3132,-0.4451,-0.5639,-0.6737,-0.7869,-0.8463,-0.8782,-0.9035,-0.9233,-0.9424,-0.9688,-0.9882,-1.0145,-1.0278,-1.0275,-1.0275,-1.0342,-1.0405,-1.0471,-1.0604,-1.0717,-1.0905,-1.1163,-1.1358,-1.1487,-1.1973,0.5751,0.5943,0.64,0.6789,0.712,0.7323,0.7582,0.7904,0.8089,0.8288,0.8221,0.7307,0.6918,0.6658,0.6721,0.6852,0.685,0.665,0.6654,0.6588,0.6455,0.6246,0.6113,0.5984,0.5911,0.5844,0.5911,0.6038,0.6096,0.6092,0.6088,0.6096,0.6155,0.6211,0.6207,0.6199,0.6179,0.6296,0.6484,0.6748,0.5228,0.3405,0.2023,0.1435,0.1563,0.1687,0.1939,0.2249,0.2426,0.3488,0.4449,0.6697,0.8667,1.1077,1.2967,1.5301,1.6697,1.791,1.8494,1.8637,1.8952,1.9322,1.9632,1.971,1.9681,1.8871,1.7271,1.6208,1.5053,1.3955,1.3852,1.3488,1.3088,1.2534,1.1863,1.1092,0.9981,0.8934,0.8119,0.723,0.6329,0.5477,0.4901,0.4517,0.3528,0.2332,0.1468,0.0734,0.0067,-0.0666,-0.1662,-0.2723,-0.3778,-0.4968,-0.6443,-0.7102,-0.7353,-0.7623,-0.7812,-0.8208,-0.8538,-0.8796,-0.8924,-0.9058,-0.9122,-0.9122,-0.9189,-0.9256,-0.9387,-0.9512,-0.9834,-1.0021,-1.0212,-1.0405,-1.0601,0.7125,0.7572,0.7772,0.8027,0.8347,0.8541,0.8807,0.9008,0.9323,0.9512,0.9633,0.963,0.9113,0.8091,0.8218,0.8345,0.8339,0.8275,0.8407,0.8468,0.8334,0.8202,0.8135,0.806,0.8066,0.8125,0.8117,0.8249,0.8481,0.8545,0.8553,0.8548,0.8667,0.8787,0.8963,0.9015,0.9124,0.937,0.9678,0.9925,0.9593,0.7896,0.6264,0.5989,0.6289,0.6591,0.6949,0.7416,0.7992,0.9514,1.2061,1.5042,1.7399,1.9393,2.1211,2.2018,2.3502,2.3237,2.3374,2.3149,2.3143,2.2992,2.309,2.3067,2.2997,2.2797,2.1656,2.1147,1.9828,1.8018,1.7505,1.6934,1.6458,1.5562,1.4764,1.3798,1.2794,1.184,1.0928,1.001,0.9084,0.8252,0.75,0.6858,0.5821,0.4765,0.3851,0.3185,0.2661,0.1865,0.1001,0.0067,-0.0932,-0.2669,-0.4338,-0.5266,-0.5656,-0.5926,-0.6258,-0.6647,-0.7039,-0.7372,-0.7567,-0.7625,-0.7765,-0.777,-0.7837,-0.7959,-0.8156,-0.828,-0.8613,-0.8874,-0.9064,-0.9256,-0.9451]}]]